<?xml version="1.0" encoding="UTF-8" standalone="no" ?>
<gpx xmlns="http://www.topografix.com/GPX/1/1" xmlns:xsi="http://www.w3.org/2001/XMLSchema-instance" xsi:schemaLocation="http://www.topografix.com/GPX/1/1 http://www.topografix.com/GPX/1/1/gpx.xsd" version="1.1" creator="VisuGPX - https://www.visugpx.com">
  <metadata>
    <name>Gemsa Ski de Rando 2014-03-13 J5 : Refuge Larribet - Refuge Wallon</name>
    <desc><![CDATA[Refuge Larribet (2060m)
Cabane Doumblas (1563m)
Lacs de Remoulit (2019m)
Col de Cambales (2706m)
Lacs de Cambales (2424m)
Lacs d\\\'Opale (2287m)
Refuge Wallon (1865m)]]></desc>
  </metadata>
  <trk>
    <name><![CDATA[Gemsa Ski de Rando 2014-03-13 J5 : Refuge Larribet - Refuge Wallon_1]]></name>
    <trkseg>
      <trkpt lat="42.85793" lon="-0.28869">
        <ele>2030.70703125</ele>
        <time>2014-03-13T07:02:31Z</time>
      </trkpt>
      <trkpt lat="42.85794" lon="-0.28868">
        <ele>2033.4350585938</ele>
        <time>2014-03-13T07:02:43Z</time>
      </trkpt>
      <trkpt lat="42.85794" lon="-0.28868">
        <ele>2036.4870605469</ele>
        <time>2014-03-13T07:02:47Z</time>
      </trkpt>
      <trkpt lat="42.85794" lon="-0.28868">
        <ele>2039.5870361328</ele>
        <time>2014-03-13T07:02:52Z</time>
      </trkpt>
      <trkpt lat="42.85794" lon="-0.28868">
        <ele>2042.8170166016</ele>
        <time>2014-03-13T07:02:58Z</time>
      </trkpt>
      <trkpt lat="42.85794" lon="-0.28868">
        <ele>2043.4399414062</ele>
        <time>2014-03-13T07:02:59Z</time>
      </trkpt>
      <trkpt lat="42.85797" lon="-0.28856">
        <ele>2043.1090087891</ele>
        <time>2014-03-13T07:03:03Z</time>
      </trkpt>
      <trkpt lat="42.8581" lon="-0.28839">
        <ele>2042.6779785156</ele>
        <time>2014-03-13T07:03:09Z</time>
      </trkpt>
      <trkpt lat="42.85824" lon="-0.28832">
        <ele>2033.1870117188</ele>
        <time>2014-03-13T07:03:13Z</time>
      </trkpt>
      <trkpt lat="42.85828" lon="-0.28832">
        <ele>2033.1870117188</ele>
        <time>2014-03-13T07:03:14Z</time>
      </trkpt>
      <trkpt lat="42.85834" lon="-0.28814">
        <ele>2030.0030517578</ele>
        <time>2014-03-13T07:03:17Z</time>
      </trkpt>
      <trkpt lat="42.85833" lon="-0.28805">
        <ele>2026.5389404297</ele>
        <time>2014-03-13T07:03:18Z</time>
      </trkpt>
      <trkpt lat="42.85831" lon="-0.28797">
        <ele>2026.8470458984</ele>
        <time>2014-03-13T07:03:19Z</time>
      </trkpt>
      <trkpt lat="42.85829" lon="-0.28788">
        <ele>2026.6949462891</ele>
        <time>2014-03-13T07:03:20Z</time>
      </trkpt>
      <trkpt lat="42.85827" lon="-0.28765">
        <ele>2027.5780029297</ele>
        <time>2014-03-13T07:03:24Z</time>
      </trkpt>
      <trkpt lat="42.85844" lon="-0.28762">
        <ele>2025.1529541016</ele>
        <time>2014-03-13T07:03:29Z</time>
      </trkpt>
      <trkpt lat="42.85849" lon="-0.28752">
        <ele>2023.1569824219</ele>
        <time>2014-03-13T07:03:31Z</time>
      </trkpt>
      <trkpt lat="42.85847" lon="-0.2874">
        <ele>2021.2290039062</ele>
        <time>2014-03-13T07:03:33Z</time>
      </trkpt>
      <trkpt lat="42.85855" lon="-0.28723">
        <ele>2017.8399658203</ele>
        <time>2014-03-13T07:03:37Z</time>
      </trkpt>
      <trkpt lat="42.8586" lon="-0.28724">
        <ele>2018.0119628906</ele>
        <time>2014-03-13T07:03:38Z</time>
      </trkpt>
      <trkpt lat="42.85864" lon="-0.28728">
        <ele>2016.7659912109</ele>
        <time>2014-03-13T07:03:39Z</time>
      </trkpt>
      <trkpt lat="42.85873" lon="-0.28736">
        <ele>2015.708984375</ele>
        <time>2014-03-13T07:03:41Z</time>
      </trkpt>
      <trkpt lat="42.85884" lon="-0.28731">
        <ele>2012.0920410156</ele>
        <time>2014-03-13T07:03:44Z</time>
      </trkpt>
      <trkpt lat="42.85886" lon="-0.28723">
        <ele>2012.2640380859</ele>
        <time>2014-03-13T07:03:45Z</time>
      </trkpt>
      <trkpt lat="42.85889" lon="-0.28698">
        <ele>2008.7449951172</ele>
        <time>2014-03-13T07:03:48Z</time>
      </trkpt>
      <trkpt lat="42.85891" lon="-0.28668">
        <ele>2007.9399414062</ele>
        <time>2014-03-13T07:03:52Z</time>
      </trkpt>
      <trkpt lat="42.85895" lon="-0.28663">
        <ele>2009.2700195312</ele>
        <time>2014-03-13T07:03:54Z</time>
      </trkpt>
      <trkpt lat="42.8591" lon="-0.28659">
        <ele>2004.6789550781</ele>
        <time>2014-03-13T07:03:57Z</time>
      </trkpt>
      <trkpt lat="42.85914" lon="-0.28653">
        <ele>2004.6789550781</ele>
        <time>2014-03-13T07:03:58Z</time>
      </trkpt>
      <trkpt lat="42.85915" lon="-0.28645">
        <ele>2000.8199462891</ele>
        <time>2014-03-13T07:03:59Z</time>
      </trkpt>
      <trkpt lat="42.85916" lon="-0.2864">
        <ele>2001.1560058594</ele>
        <time>2014-03-13T07:04:00Z</time>
      </trkpt>
      <trkpt lat="42.85928" lon="-0.28634">
        <ele>1999.1750488281</ele>
        <time>2014-03-13T07:04:04Z</time>
      </trkpt>
      <trkpt lat="42.85941" lon="-0.28618">
        <ele>1996.5240478516</ele>
        <time>2014-03-13T07:04:15Z</time>
      </trkpt>
      <trkpt lat="42.85945" lon="-0.28613">
        <ele>1995.3380126953</ele>
        <time>2014-03-13T07:04:29Z</time>
      </trkpt>
      <trkpt lat="42.85949" lon="-0.28622">
        <ele>1992.7669677734</ele>
        <time>2014-03-13T07:04:33Z</time>
      </trkpt>
      <trkpt lat="42.8595" lon="-0.28626">
        <ele>1990.2919921875</ele>
        <time>2014-03-13T07:04:34Z</time>
      </trkpt>
      <trkpt lat="42.85962" lon="-0.28624">
        <ele>1985.3100585938</ele>
        <time>2014-03-13T07:04:37Z</time>
      </trkpt>
      <trkpt lat="42.85963" lon="-0.28619">
        <ele>1985.3089599609</ele>
        <time>2014-03-13T07:04:38Z</time>
      </trkpt>
      <trkpt lat="42.85964" lon="-0.28615">
        <ele>1984.3149414062</ele>
        <time>2014-03-13T07:04:39Z</time>
      </trkpt>
      <trkpt lat="42.85966" lon="-0.28609">
        <ele>1984.2440185547</ele>
        <time>2014-03-13T07:04:42Z</time>
      </trkpt>
      <trkpt lat="42.85971" lon="-0.2861">
        <ele>1982.5660400391</ele>
        <time>2014-03-13T07:04:45Z</time>
      </trkpt>
      <trkpt lat="42.85973" lon="-0.28613">
        <ele>1980.4649658203</ele>
        <time>2014-03-13T07:04:46Z</time>
      </trkpt>
      <trkpt lat="42.85975" lon="-0.2862">
        <ele>1978.8509521484</ele>
        <time>2014-03-13T07:04:49Z</time>
      </trkpt>
      <trkpt lat="42.8598" lon="-0.28616">
        <ele>1975.4990234375</ele>
        <time>2014-03-13T07:04:52Z</time>
      </trkpt>
      <trkpt lat="42.85982" lon="-0.28608">
        <ele>1973.6140136719</ele>
        <time>2014-03-13T07:04:54Z</time>
      </trkpt>
      <trkpt lat="42.85987" lon="-0.28608">
        <ele>1972.4189453125</ele>
        <time>2014-03-13T07:04:56Z</time>
      </trkpt>
      <trkpt lat="42.85987" lon="-0.28611">
        <ele>1970.6739501953</ele>
        <time>2014-03-13T07:05:06Z</time>
      </trkpt>
      <trkpt lat="42.85992" lon="-0.28621">
        <ele>1968.2270507812</ele>
        <time>2014-03-13T07:05:16Z</time>
      </trkpt>
      <trkpt lat="42.86" lon="-0.28618">
        <ele>1966.8919677734</ele>
        <time>2014-03-13T07:05:19Z</time>
      </trkpt>
      <trkpt lat="42.86003" lon="-0.28615">
        <ele>1964.6789550781</ele>
        <time>2014-03-13T07:05:20Z</time>
      </trkpt>
      <trkpt lat="42.86006" lon="-0.28621">
        <ele>1964.2659912109</ele>
        <time>2014-03-13T07:05:26Z</time>
      </trkpt>
      <trkpt lat="42.86004" lon="-0.28627">
        <ele>1962.9560546875</ele>
        <time>2014-03-13T07:05:28Z</time>
      </trkpt>
      <trkpt lat="42.86003" lon="-0.28631">
        <ele>1961.6479492188</ele>
        <time>2014-03-13T07:05:30Z</time>
      </trkpt>
      <trkpt lat="42.86003" lon="-0.28633">
        <ele>1961.3389892578</ele>
        <time>2014-03-13T07:05:42Z</time>
      </trkpt>
      <trkpt lat="42.86004" lon="-0.2864">
        <ele>1959.6669921875</ele>
        <time>2014-03-13T07:05:45Z</time>
      </trkpt>
      <trkpt lat="42.86008" lon="-0.28639">
        <ele>1958.1610107422</ele>
        <time>2014-03-13T07:05:47Z</time>
      </trkpt>
      <trkpt lat="42.86009" lon="-0.28636">
        <ele>1956.2700195312</ele>
        <time>2014-03-13T07:05:49Z</time>
      </trkpt>
      <trkpt lat="42.86009" lon="-0.28636">
        <ele>1956.3680419922</ele>
        <time>2014-03-13T07:05:52Z</time>
      </trkpt>
      <trkpt lat="42.86012" lon="-0.28651">
        <ele>1952.9959716797</ele>
        <time>2014-03-13T07:05:56Z</time>
      </trkpt>
      <trkpt lat="42.86016" lon="-0.28661">
        <ele>1951.6340332031</ele>
        <time>2014-03-13T07:05:58Z</time>
      </trkpt>
      <trkpt lat="42.86017" lon="-0.28666">
        <ele>1948.3990478516</ele>
        <time>2014-03-13T07:05:59Z</time>
      </trkpt>
      <trkpt lat="42.86018" lon="-0.28668">
        <ele>1946.1879882812</ele>
        <time>2014-03-13T07:06:00Z</time>
      </trkpt>
      <trkpt lat="42.86018" lon="-0.28688">
        <ele>1943.0679931641</ele>
        <time>2014-03-13T07:06:04Z</time>
      </trkpt>
      <trkpt lat="42.86018" lon="-0.28694">
        <ele>1943.0710449219</ele>
        <time>2014-03-13T07:06:05Z</time>
      </trkpt>
      <trkpt lat="42.86017" lon="-0.28705">
        <ele>1940.9730224609</ele>
        <time>2014-03-13T07:06:07Z</time>
      </trkpt>
      <trkpt lat="42.86018" lon="-0.28707">
        <ele>1941.1810302734</ele>
        <time>2014-03-13T07:06:16Z</time>
      </trkpt>
      <trkpt lat="42.86016" lon="-0.28702">
        <ele>1940.9029541016</ele>
        <time>2014-03-13T07:07:21Z</time>
      </trkpt>
      <trkpt lat="42.86016" lon="-0.28702">
        <ele>1940.8520507812</ele>
        <time>2014-03-13T07:07:38Z</time>
      </trkpt>
      <trkpt lat="42.86029" lon="-0.28679">
        <ele>1936.4940185547</ele>
        <time>2014-03-13T07:07:46Z</time>
      </trkpt>
      <trkpt lat="42.86032" lon="-0.28671">
        <ele>1935.6929931641</ele>
        <time>2014-03-13T07:07:48Z</time>
      </trkpt>
      <trkpt lat="42.86034" lon="-0.28668">
        <ele>1935.3360595703</ele>
        <time>2014-03-13T07:07:49Z</time>
      </trkpt>
      <trkpt lat="42.86039" lon="-0.28667">
        <ele>1933.8270263672</ele>
        <time>2014-03-13T07:07:52Z</time>
      </trkpt>
      <trkpt lat="42.86044" lon="-0.28663">
        <ele>1928.9250488281</ele>
        <time>2014-03-13T07:07:54Z</time>
      </trkpt>
      <trkpt lat="42.86048" lon="-0.28662">
        <ele>1928.9229736328</ele>
        <time>2014-03-13T07:07:55Z</time>
      </trkpt>
      <trkpt lat="42.86051" lon="-0.28662">
        <ele>1925.8160400391</ele>
        <time>2014-03-13T07:07:56Z</time>
      </trkpt>
      <trkpt lat="42.86055" lon="-0.28663">
        <ele>1925.8149414062</ele>
        <time>2014-03-13T07:07:57Z</time>
      </trkpt>
      <trkpt lat="42.86058" lon="-0.28662">
        <ele>1922.6540527344</ele>
        <time>2014-03-13T07:07:58Z</time>
      </trkpt>
      <trkpt lat="42.86069" lon="-0.28667">
        <ele>1919.4250488281</ele>
        <time>2014-03-13T07:08:01Z</time>
      </trkpt>
      <trkpt lat="42.8607" lon="-0.28673">
        <ele>1914.7569580078</ele>
        <time>2014-03-13T07:08:02Z</time>
      </trkpt>
      <trkpt lat="42.86071" lon="-0.28676">
        <ele>1913.0660400391</ele>
        <time>2014-03-13T07:08:03Z</time>
      </trkpt>
      <trkpt lat="42.8608" lon="-0.2867">
        <ele>1911.0250244141</ele>
        <time>2014-03-13T07:08:06Z</time>
      </trkpt>
      <trkpt lat="42.86083" lon="-0.28666">
        <ele>1908.3879394531</ele>
        <time>2014-03-13T07:08:07Z</time>
      </trkpt>
      <trkpt lat="42.86095" lon="-0.28669">
        <ele>1902.5500488281</ele>
        <time>2014-03-13T07:08:10Z</time>
      </trkpt>
      <trkpt lat="42.86098" lon="-0.28673">
        <ele>1902.5529785156</ele>
        <time>2014-03-13T07:08:11Z</time>
      </trkpt>
      <trkpt lat="42.86102" lon="-0.28683">
        <ele>1900.33203125</ele>
        <time>2014-03-13T07:08:13Z</time>
      </trkpt>
      <trkpt lat="42.86104" lon="-0.28688">
        <ele>1898.5620117188</ele>
        <time>2014-03-13T07:08:20Z</time>
      </trkpt>
      <trkpt lat="42.86104" lon="-0.28687">
        <ele>1898.5959472656</ele>
        <time>2014-03-13T07:08:22Z</time>
      </trkpt>
      <trkpt lat="42.86111" lon="-0.28686">
        <ele>1897.166015625</ele>
        <time>2014-03-13T07:08:25Z</time>
      </trkpt>
      <trkpt lat="42.86114" lon="-0.28683">
        <ele>1894.1300048828</ele>
        <time>2014-03-13T07:08:26Z</time>
      </trkpt>
      <trkpt lat="42.86127" lon="-0.28677">
        <ele>1891.9699707031</ele>
        <time>2014-03-13T07:08:29Z</time>
      </trkpt>
      <trkpt lat="42.86135" lon="-0.28676">
        <ele>1885.9630126953</ele>
        <time>2014-03-13T07:08:31Z</time>
      </trkpt>
      <trkpt lat="42.86139" lon="-0.28676">
        <ele>1885.9670410156</ele>
        <time>2014-03-13T07:08:32Z</time>
      </trkpt>
      <trkpt lat="42.8615" lon="-0.28671">
        <ele>1883.0119628906</ele>
        <time>2014-03-13T07:08:34Z</time>
      </trkpt>
      <trkpt lat="42.86174" lon="-0.2867">
        <ele>1875.4630126953</ele>
        <time>2014-03-13T07:08:38Z</time>
      </trkpt>
      <trkpt lat="42.8619" lon="-0.28666">
        <ele>1872.9799804688</ele>
        <time>2014-03-13T07:08:41Z</time>
      </trkpt>
      <trkpt lat="42.862" lon="-0.28671">
        <ele>1871.7249755859</ele>
        <time>2014-03-13T07:08:44Z</time>
      </trkpt>
      <trkpt lat="42.86211" lon="-0.28666">
        <ele>1867.6180419922</ele>
        <time>2014-03-13T07:08:47Z</time>
      </trkpt>
      <trkpt lat="42.86226" lon="-0.28664">
        <ele>1864.9940185547</ele>
        <time>2014-03-13T07:08:50Z</time>
      </trkpt>
      <trkpt lat="42.8623" lon="-0.2867">
        <ele>1861.4689941406</ele>
        <time>2014-03-13T07:08:51Z</time>
      </trkpt>
      <trkpt lat="42.86235" lon="-0.28676">
        <ele>1861.4720458984</ele>
        <time>2014-03-13T07:08:52Z</time>
      </trkpt>
      <trkpt lat="42.86247" lon="-0.28672">
        <ele>1859.5059814453</ele>
        <time>2014-03-13T07:08:55Z</time>
      </trkpt>
      <trkpt lat="42.86266" lon="-0.28668">
        <ele>1857.1300048828</ele>
        <time>2014-03-13T07:08:59Z</time>
      </trkpt>
      <trkpt lat="42.86277" lon="-0.28664">
        <ele>1854.5629882812</ele>
        <time>2014-03-13T07:09:02Z</time>
      </trkpt>
      <trkpt lat="42.86289" lon="-0.28662">
        <ele>1852.6920166016</ele>
        <time>2014-03-13T07:09:06Z</time>
      </trkpt>
      <trkpt lat="42.86295" lon="-0.28665">
        <ele>1848.4460449219</ele>
        <time>2014-03-13T07:09:08Z</time>
      </trkpt>
      <trkpt lat="42.863" lon="-0.2866">
        <ele>1846.9930419922</ele>
        <time>2014-03-13T07:09:11Z</time>
      </trkpt>
      <trkpt lat="42.86301" lon="-0.28649">
        <ele>1845.2729492188</ele>
        <time>2014-03-13T07:09:13Z</time>
      </trkpt>
      <trkpt lat="42.86301" lon="-0.28642">
        <ele>1844.7440185547</ele>
        <time>2014-03-13T07:09:21Z</time>
      </trkpt>
      <trkpt lat="42.86301" lon="-0.28642">
        <ele>1844.6850585938</ele>
        <time>2014-03-13T07:09:24Z</time>
      </trkpt>
      <trkpt lat="42.86304" lon="-0.28635">
        <ele>1843.6409912109</ele>
        <time>2014-03-13T07:09:27Z</time>
      </trkpt>
      <trkpt lat="42.86311" lon="-0.28643">
        <ele>1840.0629882812</ele>
        <time>2014-03-13T07:09:30Z</time>
      </trkpt>
      <trkpt lat="42.86322" lon="-0.28643">
        <ele>1837.3330078125</ele>
        <time>2014-03-13T07:09:32Z</time>
      </trkpt>
      <trkpt lat="42.86327" lon="-0.28635">
        <ele>1833.0629882812</ele>
        <time>2014-03-13T07:09:33Z</time>
      </trkpt>
      <trkpt lat="42.8633" lon="-0.28627">
        <ele>1833.0620117188</ele>
        <time>2014-03-13T07:09:34Z</time>
      </trkpt>
      <trkpt lat="42.86333" lon="-0.2862">
        <ele>1829.6030273438</ele>
        <time>2014-03-13T07:09:35Z</time>
      </trkpt>
      <trkpt lat="42.86338" lon="-0.2862">
        <ele>1829.6009521484</ele>
        <time>2014-03-13T07:09:36Z</time>
      </trkpt>
      <trkpt lat="42.86349" lon="-0.28623">
        <ele>1826.5720214844</ele>
        <time>2014-03-13T07:09:38Z</time>
      </trkpt>
      <trkpt lat="42.86354" lon="-0.28621">
        <ele>1826.5699462891</ele>
        <time>2014-03-13T07:09:39Z</time>
      </trkpt>
      <trkpt lat="42.86363" lon="-0.28615">
        <ele>1825.0369873047</ele>
        <time>2014-03-13T07:09:41Z</time>
      </trkpt>
      <trkpt lat="42.86367" lon="-0.28606">
        <ele>1822.8060302734</ele>
        <time>2014-03-13T07:09:45Z</time>
      </trkpt>
      <trkpt lat="42.86364" lon="-0.28607">
        <ele>1822.1860351562</ele>
        <time>2014-03-13T07:10:11Z</time>
      </trkpt>
      <trkpt lat="42.86364" lon="-0.28607">
        <ele>1822.4399414062</ele>
        <time>2014-03-13T07:12:38Z</time>
      </trkpt>
      <trkpt lat="42.86372" lon="-0.2861">
        <ele>1821.4100341797</ele>
        <time>2014-03-13T07:12:42Z</time>
      </trkpt>
      <trkpt lat="42.86378" lon="-0.28607">
        <ele>1820.0610351562</ele>
        <time>2014-03-13T07:12:44Z</time>
      </trkpt>
      <trkpt lat="42.86389" lon="-0.28604">
        <ele>1818.4389648438</ele>
        <time>2014-03-13T07:12:47Z</time>
      </trkpt>
      <trkpt lat="42.86395" lon="-0.28595">
        <ele>1813.9339599609</ele>
        <time>2014-03-13T07:12:49Z</time>
      </trkpt>
      <trkpt lat="42.86399" lon="-0.28594">
        <ele>1813.9310302734</ele>
        <time>2014-03-13T07:12:50Z</time>
      </trkpt>
      <trkpt lat="42.86404" lon="-0.28596">
        <ele>1811.8840332031</ele>
        <time>2014-03-13T07:12:51Z</time>
      </trkpt>
      <trkpt lat="42.86418" lon="-0.28596">
        <ele>1810.5980224609</ele>
        <time>2014-03-13T07:12:54Z</time>
      </trkpt>
      <trkpt lat="42.86425" lon="-0.28593">
        <ele>1809.0109863281</ele>
        <time>2014-03-13T07:12:56Z</time>
      </trkpt>
      <trkpt lat="42.8643" lon="-0.2858">
        <ele>1807.3530273438</ele>
        <time>2014-03-13T07:12:59Z</time>
      </trkpt>
      <trkpt lat="42.86432" lon="-0.28576">
        <ele>1805.3060302734</ele>
        <time>2014-03-13T07:13:00Z</time>
      </trkpt>
      <trkpt lat="42.86438" lon="-0.2856">
        <ele>1802.0570068359</ele>
        <time>2014-03-13T07:13:03Z</time>
      </trkpt>
      <trkpt lat="42.8644" lon="-0.28555">
        <ele>1802.0550537109</ele>
        <time>2014-03-13T07:13:04Z</time>
      </trkpt>
      <trkpt lat="42.86444" lon="-0.28547">
        <ele>1800.7939453125</ele>
        <time>2014-03-13T07:13:06Z</time>
      </trkpt>
      <trkpt lat="42.86447" lon="-0.28536">
        <ele>1799.1899414062</ele>
        <time>2014-03-13T07:13:09Z</time>
      </trkpt>
      <trkpt lat="42.86452" lon="-0.28526">
        <ele>1798.1209716797</ele>
        <time>2014-03-13T07:13:11Z</time>
      </trkpt>
      <trkpt lat="42.86457" lon="-0.28518">
        <ele>1796.6390380859</ele>
        <time>2014-03-13T07:13:13Z</time>
      </trkpt>
      <trkpt lat="42.86462" lon="-0.28511">
        <ele>1795.0970458984</ele>
        <time>2014-03-13T07:13:15Z</time>
      </trkpt>
      <trkpt lat="42.86464" lon="-0.28506">
        <ele>1795.0040283203</ele>
        <time>2014-03-13T07:13:16Z</time>
      </trkpt>
      <trkpt lat="42.86468" lon="-0.28496">
        <ele>1793.5889892578</ele>
        <time>2014-03-13T07:13:18Z</time>
      </trkpt>
      <trkpt lat="42.86471" lon="-0.28485">
        <ele>1792.7430419922</ele>
        <time>2014-03-13T07:13:20Z</time>
      </trkpt>
      <trkpt lat="42.86475" lon="-0.28474">
        <ele>1791.0529785156</ele>
        <time>2014-03-13T07:13:22Z</time>
      </trkpt>
      <trkpt lat="42.86476" lon="-0.28468">
        <ele>1789.4859619141</ele>
        <time>2014-03-13T07:13:23Z</time>
      </trkpt>
      <trkpt lat="42.86478" lon="-0.28455">
        <ele>1787.8509521484</ele>
        <time>2014-03-13T07:13:25Z</time>
      </trkpt>
      <trkpt lat="42.86485" lon="-0.28443">
        <ele>1786.3039550781</ele>
        <time>2014-03-13T07:13:27Z</time>
      </trkpt>
      <trkpt lat="42.86492" lon="-0.2843">
        <ele>1784.7039794922</ele>
        <time>2014-03-13T07:13:29Z</time>
      </trkpt>
      <trkpt lat="42.86495" lon="-0.28425">
        <ele>1783.2399902344</ele>
        <time>2014-03-13T07:13:30Z</time>
      </trkpt>
      <trkpt lat="42.86506" lon="-0.28412">
        <ele>1781.7459716797</ele>
        <time>2014-03-13T07:13:34Z</time>
      </trkpt>
      <trkpt lat="42.86507" lon="-0.28409">
        <ele>1781.0300292969</ele>
        <time>2014-03-13T07:13:45Z</time>
      </trkpt>
      <trkpt lat="42.86507" lon="-0.28409">
        <ele>1780.9739990234</ele>
        <time>2014-03-13T07:13:54Z</time>
      </trkpt>
      <trkpt lat="42.86516" lon="-0.28399">
        <ele>1778.9079589844</ele>
        <time>2014-03-13T07:13:59Z</time>
      </trkpt>
      <trkpt lat="42.86519" lon="-0.2839">
        <ele>1776.7679443359</ele>
        <time>2014-03-13T07:14:02Z</time>
      </trkpt>
      <trkpt lat="42.86522" lon="-0.28382">
        <ele>1774.7559814453</ele>
        <time>2014-03-13T07:14:04Z</time>
      </trkpt>
      <trkpt lat="42.86522" lon="-0.28362">
        <ele>1769.7690429688</ele>
        <time>2014-03-13T07:14:08Z</time>
      </trkpt>
      <trkpt lat="42.86518" lon="-0.28341">
        <ele>1768.3420410156</ele>
        <time>2014-03-13T07:14:11Z</time>
      </trkpt>
      <trkpt lat="42.8652" lon="-0.28325">
        <ele>1766.8449707031</ele>
        <time>2014-03-13T07:14:13Z</time>
      </trkpt>
      <trkpt lat="42.86525" lon="-0.28309">
        <ele>1765.3129882812</ele>
        <time>2014-03-13T07:14:15Z</time>
      </trkpt>
      <trkpt lat="42.86536" lon="-0.28293">
        <ele>1764.2740478516</ele>
        <time>2014-03-13T07:14:18Z</time>
      </trkpt>
      <trkpt lat="42.86591" lon="-0.28227">
        <ele>1761.2390136719</ele>
        <time>2014-03-13T07:14:35Z</time>
      </trkpt>
      <trkpt lat="42.86626" lon="-0.28189">
        <ele>1760.083984375</ele>
        <time>2014-03-13T07:14:46Z</time>
      </trkpt>
      <trkpt lat="42.86675" lon="-0.28128">
        <ele>1757.7030029297</ele>
        <time>2014-03-13T07:15:01Z</time>
      </trkpt>
      <trkpt lat="42.86703" lon="-0.28079">
        <ele>1756.0830078125</ele>
        <time>2014-03-13T07:15:12Z</time>
      </trkpt>
      <trkpt lat="42.86723" lon="-0.28042">
        <ele>1756.4699707031</ele>
        <time>2014-03-13T07:15:24Z</time>
      </trkpt>
      <trkpt lat="42.86746" lon="-0.27995">
        <ele>1754.541015625</ele>
        <time>2014-03-13T07:15:35Z</time>
      </trkpt>
      <trkpt lat="42.86779" lon="-0.27964">
        <ele>1753.7399902344</ele>
        <time>2014-03-13T07:15:49Z</time>
      </trkpt>
      <trkpt lat="42.86805" lon="-0.27941">
        <ele>1753.9279785156</ele>
        <time>2014-03-13T07:16:01Z</time>
      </trkpt>
      <trkpt lat="42.86817" lon="-0.27926">
        <ele>1752.7409667969</ele>
        <time>2014-03-13T07:16:08Z</time>
      </trkpt>
      <trkpt lat="42.86837" lon="-0.27905">
        <ele>1752.3959960938</ele>
        <time>2014-03-13T07:16:19Z</time>
      </trkpt>
      <trkpt lat="42.86846" lon="-0.27895">
        <ele>1751.8819580078</ele>
        <time>2014-03-13T07:16:23Z</time>
      </trkpt>
      <trkpt lat="42.86862" lon="-0.27866">
        <ele>1751.5679931641</ele>
        <time>2014-03-13T07:16:34Z</time>
      </trkpt>
      <trkpt lat="42.86866" lon="-0.27858">
        <ele>1750.2239990234</ele>
        <time>2014-03-13T07:16:36Z</time>
      </trkpt>
      <trkpt lat="42.86871" lon="-0.2784">
        <ele>1750.7249755859</ele>
        <time>2014-03-13T07:16:40Z</time>
      </trkpt>
      <trkpt lat="42.86872" lon="-0.27832">
        <ele>1750.8280029297</ele>
        <time>2014-03-13T07:16:42Z</time>
      </trkpt>
      <trkpt lat="42.86875" lon="-0.27815">
        <ele>1750.4460449219</ele>
        <time>2014-03-13T07:16:46Z</time>
      </trkpt>
      <trkpt lat="42.86886" lon="-0.27779">
        <ele>1751.2430419922</ele>
        <time>2014-03-13T07:16:59Z</time>
      </trkpt>
      <trkpt lat="42.86886" lon="-0.27777">
        <ele>1751.2359619141</ele>
        <time>2014-03-13T07:17:00Z</time>
      </trkpt>
      <trkpt lat="42.86881" lon="-0.27758">
        <ele>1751.2120361328</ele>
        <time>2014-03-13T07:17:08Z</time>
      </trkpt>
      <trkpt lat="42.8688" lon="-0.27736">
        <ele>1751.8160400391</ele>
        <time>2014-03-13T07:17:18Z</time>
      </trkpt>
      <trkpt lat="42.8688" lon="-0.27732">
        <ele>1751.8979492188</ele>
        <time>2014-03-13T07:17:36Z</time>
      </trkpt>
      <trkpt lat="42.86882" lon="-0.2773">
        <ele>1748.7170410156</ele>
        <time>2014-03-13T07:20:58Z</time>
      </trkpt>
      <trkpt lat="42.86886" lon="-0.27707">
        <ele>1748.7449951172</ele>
        <time>2014-03-13T07:24:15Z</time>
      </trkpt>
      <trkpt lat="42.86894" lon="-0.27682">
        <ele>1747.0939941406</ele>
        <time>2014-03-13T07:24:21Z</time>
      </trkpt>
      <trkpt lat="42.86897" lon="-0.27668">
        <ele>1745.3270263672</ele>
        <time>2014-03-13T07:24:23Z</time>
      </trkpt>
      <trkpt lat="42.86901" lon="-0.27652">
        <ele>1743.4890136719</ele>
        <time>2014-03-13T07:24:25Z</time>
      </trkpt>
      <trkpt lat="42.86915" lon="-0.27618">
        <ele>1743.3239746094</ele>
        <time>2014-03-13T07:24:34Z</time>
      </trkpt>
      <trkpt lat="42.86914" lon="-0.27616">
        <ele>1743.458984375</ele>
        <time>2014-03-13T07:24:53Z</time>
      </trkpt>
      <trkpt lat="42.86917" lon="-0.27612">
        <ele>1743.4069824219</ele>
        <time>2014-03-13T07:25:13Z</time>
      </trkpt>
      <trkpt lat="42.86917" lon="-0.27602">
        <ele>1742.8520507812</ele>
        <time>2014-03-13T07:25:28Z</time>
      </trkpt>
      <trkpt lat="42.86922" lon="-0.2759">
        <ele>1743.5489501953</ele>
        <time>2014-03-13T07:25:46Z</time>
      </trkpt>
      <trkpt lat="42.86926" lon="-0.27582">
        <ele>1743.0040283203</ele>
        <time>2014-03-13T07:26:01Z</time>
      </trkpt>
      <trkpt lat="42.86931" lon="-0.27571">
        <ele>1741.8630371094</ele>
        <time>2014-03-13T07:26:15Z</time>
      </trkpt>
      <trkpt lat="42.86939" lon="-0.27552">
        <ele>1739.6240234375</ele>
        <time>2014-03-13T07:26:33Z</time>
      </trkpt>
      <trkpt lat="42.86946" lon="-0.27541">
        <ele>1739.1870117188</ele>
        <time>2014-03-13T07:26:47Z</time>
      </trkpt>
      <trkpt lat="42.8695" lon="-0.27529">
        <ele>1736.0699462891</ele>
        <time>2014-03-13T07:27:01Z</time>
      </trkpt>
      <trkpt lat="42.86953" lon="-0.27523">
        <ele>1735.5959472656</ele>
        <time>2014-03-13T07:27:14Z</time>
      </trkpt>
      <trkpt lat="42.86952" lon="-0.27518">
        <ele>1733.5909423828</ele>
        <time>2014-03-13T07:27:17Z</time>
      </trkpt>
      <trkpt lat="42.8694" lon="-0.27505">
        <ele>1732.7889404297</ele>
        <time>2014-03-13T07:27:35Z</time>
      </trkpt>
      <trkpt lat="42.86934" lon="-0.27497">
        <ele>1732.9520263672</ele>
        <time>2014-03-13T07:27:53Z</time>
      </trkpt>
      <trkpt lat="42.86926" lon="-0.27483">
        <ele>1731.8840332031</ele>
        <time>2014-03-13T07:28:16Z</time>
      </trkpt>
      <trkpt lat="42.86927" lon="-0.27484">
        <ele>1733.0340576172</ele>
        <time>2014-03-13T07:30:39Z</time>
      </trkpt>
      <trkpt lat="42.86927" lon="-0.27484">
        <ele>1732.6729736328</ele>
        <time>2014-03-13T07:32:01Z</time>
      </trkpt>
      <trkpt lat="42.86924" lon="-0.27481">
        <ele>1731.5870361328</ele>
        <time>2014-03-13T07:32:07Z</time>
      </trkpt>
      <trkpt lat="42.86919" lon="-0.27481">
        <ele>1730.2669677734</ele>
        <time>2014-03-13T07:32:09Z</time>
      </trkpt>
      <trkpt lat="42.86911" lon="-0.27471">
        <ele>1726.7760009766</ele>
        <time>2014-03-13T07:32:12Z</time>
      </trkpt>
      <trkpt lat="42.86908" lon="-0.27465">
        <ele>1726.7810058594</ele>
        <time>2014-03-13T07:32:13Z</time>
      </trkpt>
      <trkpt lat="42.86905" lon="-0.2744">
        <ele>1726.0980224609</ele>
        <time>2014-03-13T07:32:17Z</time>
      </trkpt>
      <trkpt lat="42.869" lon="-0.27402">
        <ele>1725.2049560547</ele>
        <time>2014-03-13T07:32:27Z</time>
      </trkpt>
      <trkpt lat="42.86896" lon="-0.27369">
        <ele>1723.0849609375</ele>
        <time>2014-03-13T07:32:37Z</time>
      </trkpt>
      <trkpt lat="42.86905" lon="-0.27342">
        <ele>1721.1090087891</ele>
        <time>2014-03-13T07:32:45Z</time>
      </trkpt>
      <trkpt lat="42.86906" lon="-0.27331">
        <ele>1719.7590332031</ele>
        <time>2014-03-13T07:32:47Z</time>
      </trkpt>
      <trkpt lat="42.86905" lon="-0.27326">
        <ele>1718.7969970703</ele>
        <time>2014-03-13T07:32:48Z</time>
      </trkpt>
      <trkpt lat="42.86912" lon="-0.27302">
        <ele>1717.4150390625</ele>
        <time>2014-03-13T07:32:58Z</time>
      </trkpt>
      <trkpt lat="42.86913" lon="-0.27301">
        <ele>1717.2340087891</ele>
        <time>2014-03-13T07:33:03Z</time>
      </trkpt>
      <trkpt lat="42.86914" lon="-0.27295">
        <ele>1717.1409912109</ele>
        <time>2014-03-13T07:33:18Z</time>
      </trkpt>
      <trkpt lat="42.86917" lon="-0.2729">
        <ele>1715.3690185547</ele>
        <time>2014-03-13T07:33:22Z</time>
      </trkpt>
      <trkpt lat="42.86919" lon="-0.27283">
        <ele>1712.3160400391</ele>
        <time>2014-03-13T07:33:27Z</time>
      </trkpt>
      <trkpt lat="42.86921" lon="-0.27277">
        <ele>1710.6820068359</ele>
        <time>2014-03-13T07:33:29Z</time>
      </trkpt>
      <trkpt lat="42.86922" lon="-0.27273">
        <ele>1709.2760009766</ele>
        <time>2014-03-13T07:33:31Z</time>
      </trkpt>
      <trkpt lat="42.86923" lon="-0.27267">
        <ele>1706.2629394531</ele>
        <time>2014-03-13T07:33:33Z</time>
      </trkpt>
      <trkpt lat="42.86924" lon="-0.27261">
        <ele>1704.748046875</ele>
        <time>2014-03-13T07:33:36Z</time>
      </trkpt>
      <trkpt lat="42.86922" lon="-0.27251">
        <ele>1703.6529541016</ele>
        <time>2014-03-13T07:33:45Z</time>
      </trkpt>
      <trkpt lat="42.86922" lon="-0.27251">
        <ele>1704.4310302734</ele>
        <time>2014-03-13T07:34:32Z</time>
      </trkpt>
      <trkpt lat="42.86921" lon="-0.27251">
        <ele>1705.2819824219</ele>
        <time>2014-03-13T07:35:05Z</time>
      </trkpt>
      <trkpt lat="42.86921" lon="-0.27251">
        <ele>1703.7609863281</ele>
        <time>2014-03-13T07:35:07Z</time>
      </trkpt>
      <trkpt lat="42.86921" lon="-0.27251">
        <ele>1705</ele>
        <time>2014-03-13T07:35:09Z</time>
      </trkpt>
      <trkpt lat="42.86917" lon="-0.27235">
        <ele>1702.0959472656</ele>
        <time>2014-03-13T07:35:20Z</time>
      </trkpt>
      <trkpt lat="42.86914" lon="-0.27227">
        <ele>1700.0550537109</ele>
        <time>2014-03-13T07:35:23Z</time>
      </trkpt>
      <trkpt lat="42.86914" lon="-0.27207">
        <ele>1695.6290283203</ele>
        <time>2014-03-13T07:35:28Z</time>
      </trkpt>
      <trkpt lat="42.86913" lon="-0.27199">
        <ele>1693.5749511719</ele>
        <time>2014-03-13T07:35:30Z</time>
      </trkpt>
      <trkpt lat="42.86911" lon="-0.27191">
        <ele>1692.3139648438</ele>
        <time>2014-03-13T07:35:32Z</time>
      </trkpt>
      <trkpt lat="42.86909" lon="-0.27182">
        <ele>1692.7509765625</ele>
        <time>2014-03-13T07:35:41Z</time>
      </trkpt>
      <trkpt lat="42.86906" lon="-0.27171">
        <ele>1692.0860595703</ele>
        <time>2014-03-13T07:35:46Z</time>
      </trkpt>
      <trkpt lat="42.86907" lon="-0.27169">
        <ele>1691.5799560547</ele>
        <time>2014-03-13T07:36:05Z</time>
      </trkpt>
      <trkpt lat="42.86906" lon="-0.27169">
        <ele>1692.4499511719</ele>
        <time>2014-03-13T07:38:19Z</time>
      </trkpt>
      <trkpt lat="42.86902" lon="-0.27151">
        <ele>1691.2690429688</ele>
        <time>2014-03-13T07:38:24Z</time>
      </trkpt>
      <trkpt lat="42.86902" lon="-0.27143">
        <ele>1690.3620605469</ele>
        <time>2014-03-13T07:38:27Z</time>
      </trkpt>
      <trkpt lat="42.86901" lon="-0.27135">
        <ele>1688.3480224609</ele>
        <time>2014-03-13T07:38:31Z</time>
      </trkpt>
      <trkpt lat="42.86893" lon="-0.2713">
        <ele>1686.4310302734</ele>
        <time>2014-03-13T07:38:35Z</time>
      </trkpt>
      <trkpt lat="42.86891" lon="-0.27128">
        <ele>1684.7299804688</ele>
        <time>2014-03-13T07:38:38Z</time>
      </trkpt>
      <trkpt lat="42.86895" lon="-0.27127">
        <ele>1682.9610595703</ele>
        <time>2014-03-13T07:38:42Z</time>
      </trkpt>
      <trkpt lat="42.86903" lon="-0.2712">
        <ele>1681.0849609375</ele>
        <time>2014-03-13T07:38:58Z</time>
      </trkpt>
      <trkpt lat="42.86901" lon="-0.27117">
        <ele>1680.2740478516</ele>
        <time>2014-03-13T07:39:04Z</time>
      </trkpt>
      <trkpt lat="42.86899" lon="-0.27102">
        <ele>1677.3680419922</ele>
        <time>2014-03-13T07:39:08Z</time>
      </trkpt>
      <trkpt lat="42.86903" lon="-0.27095">
        <ele>1675.9090576172</ele>
        <time>2014-03-13T07:39:16Z</time>
      </trkpt>
      <trkpt lat="42.86904" lon="-0.27093">
        <ele>1675.2609863281</ele>
        <time>2014-03-13T07:39:30Z</time>
      </trkpt>
      <trkpt lat="42.86906" lon="-0.27073">
        <ele>1671.4620361328</ele>
        <time>2014-03-13T07:39:39Z</time>
      </trkpt>
      <trkpt lat="42.86906" lon="-0.27062">
        <ele>1670.3210449219</ele>
        <time>2014-03-13T07:39:49Z</time>
      </trkpt>
      <trkpt lat="42.86909" lon="-0.27054">
        <ele>1670.2130126953</ele>
        <time>2014-03-13T07:40:05Z</time>
      </trkpt>
      <trkpt lat="42.86906" lon="-0.27048">
        <ele>1668.751953125</ele>
        <time>2014-03-13T07:40:20Z</time>
      </trkpt>
      <trkpt lat="42.869" lon="-0.27043">
        <ele>1665.9739990234</ele>
        <time>2014-03-13T07:40:48Z</time>
      </trkpt>
      <trkpt lat="42.86892" lon="-0.27041">
        <ele>1664.1839599609</ele>
        <time>2014-03-13T07:40:57Z</time>
      </trkpt>
      <trkpt lat="42.8689" lon="-0.27039">
        <ele>1663.6340332031</ele>
        <time>2014-03-13T07:40:59Z</time>
      </trkpt>
      <trkpt lat="42.8689" lon="-0.27032">
        <ele>1661.9949951172</ele>
        <time>2014-03-13T07:41:03Z</time>
      </trkpt>
      <trkpt lat="42.86893" lon="-0.2703">
        <ele>1660.5510253906</ele>
        <time>2014-03-13T07:41:05Z</time>
      </trkpt>
      <trkpt lat="42.86893" lon="-0.27026">
        <ele>1658.2810058594</ele>
        <time>2014-03-13T07:41:08Z</time>
      </trkpt>
      <trkpt lat="42.86897" lon="-0.27021">
        <ele>1658.1149902344</ele>
        <time>2014-03-13T07:41:11Z</time>
      </trkpt>
      <trkpt lat="42.86909" lon="-0.27013">
        <ele>1656.8790283203</ele>
        <time>2014-03-13T07:41:13Z</time>
      </trkpt>
      <trkpt lat="42.86915" lon="-0.27014">
        <ele>1655.6719970703</ele>
        <time>2014-03-13T07:41:15Z</time>
      </trkpt>
      <trkpt lat="42.86916" lon="-0.27018">
        <ele>1656.2709960938</ele>
        <time>2014-03-13T07:41:32Z</time>
      </trkpt>
      <trkpt lat="42.86915" lon="-0.27021">
        <ele>1656.1219482422</ele>
        <time>2014-03-13T07:41:38Z</time>
      </trkpt>
      <trkpt lat="42.86922" lon="-0.27025">
        <ele>1655.1629638672</ele>
        <time>2014-03-13T07:41:47Z</time>
      </trkpt>
      <trkpt lat="42.86938" lon="-0.27017">
        <ele>1652.4260253906</ele>
        <time>2014-03-13T07:41:53Z</time>
      </trkpt>
      <trkpt lat="42.86939" lon="-0.27006">
        <ele>1651.1600341797</ele>
        <time>2014-03-13T07:41:57Z</time>
      </trkpt>
      <trkpt lat="42.86942" lon="-0.26997">
        <ele>1649.9539794922</ele>
        <time>2014-03-13T07:41:59Z</time>
      </trkpt>
      <trkpt lat="42.86944" lon="-0.26993">
        <ele>1648.001953125</ele>
        <time>2014-03-13T07:42:01Z</time>
      </trkpt>
      <trkpt lat="42.86944" lon="-0.26991">
        <ele>1647.3499755859</ele>
        <time>2014-03-13T07:42:03Z</time>
      </trkpt>
      <trkpt lat="42.86937" lon="-0.26974">
        <ele>1645.5589599609</ele>
        <time>2014-03-13T07:42:09Z</time>
      </trkpt>
      <trkpt lat="42.86934" lon="-0.26968">
        <ele>1643.9909667969</ele>
        <time>2014-03-13T07:42:11Z</time>
      </trkpt>
      <trkpt lat="42.86934" lon="-0.26961">
        <ele>1643.3360595703</ele>
        <time>2014-03-13T07:42:21Z</time>
      </trkpt>
      <trkpt lat="42.86931" lon="-0.26946">
        <ele>1641.9749755859</ele>
        <time>2014-03-13T07:42:27Z</time>
      </trkpt>
      <trkpt lat="42.86932" lon="-0.26942">
        <ele>1640.4019775391</ele>
        <time>2014-03-13T07:42:36Z</time>
      </trkpt>
      <trkpt lat="42.86932" lon="-0.26933">
        <ele>1637.2590332031</ele>
        <time>2014-03-13T07:42:40Z</time>
      </trkpt>
      <trkpt lat="42.86932" lon="-0.26933">
        <ele>1637.2719726562</ele>
        <time>2014-03-13T07:42:41Z</time>
      </trkpt>
      <trkpt lat="42.8693" lon="-0.26922">
        <ele>1635.1550292969</ele>
        <time>2014-03-13T07:42:55Z</time>
      </trkpt>
      <trkpt lat="42.86929" lon="-0.26916">
        <ele>1632.1099853516</ele>
        <time>2014-03-13T07:43:00Z</time>
      </trkpt>
      <trkpt lat="42.86926" lon="-0.2691">
        <ele>1628.9739990234</ele>
        <time>2014-03-13T07:43:03Z</time>
      </trkpt>
      <trkpt lat="42.86923" lon="-0.26906">
        <ele>1628.9849853516</ele>
        <time>2014-03-13T07:43:04Z</time>
      </trkpt>
      <trkpt lat="42.86918" lon="-0.269">
        <ele>1627.5450439453</ele>
        <time>2014-03-13T07:43:06Z</time>
      </trkpt>
      <trkpt lat="42.86917" lon="-0.26898">
        <ele>1626.5219726562</ele>
        <time>2014-03-13T07:43:07Z</time>
      </trkpt>
      <trkpt lat="42.86911" lon="-0.269">
        <ele>1626.0080566406</ele>
        <time>2014-03-13T07:43:20Z</time>
      </trkpt>
      <trkpt lat="42.86903" lon="-0.269">
        <ele>1623.70703125</ele>
        <time>2014-03-13T07:43:24Z</time>
      </trkpt>
      <trkpt lat="42.86896" lon="-0.26893">
        <ele>1622.3690185547</ele>
        <time>2014-03-13T07:43:27Z</time>
      </trkpt>
      <trkpt lat="42.8689" lon="-0.26886">
        <ele>1619.4899902344</ele>
        <time>2014-03-13T07:43:33Z</time>
      </trkpt>
      <trkpt lat="42.86883" lon="-0.26878">
        <ele>1618.75</ele>
        <time>2014-03-13T07:43:37Z</time>
      </trkpt>
      <trkpt lat="42.86881" lon="-0.26873">
        <ele>1617.7139892578</ele>
        <time>2014-03-13T07:43:40Z</time>
      </trkpt>
      <trkpt lat="42.86862" lon="-0.26855">
        <ele>1615.1789550781</ele>
        <time>2014-03-13T07:43:48Z</time>
      </trkpt>
      <trkpt lat="42.86847" lon="-0.26842">
        <ele>1613.79296875</ele>
        <time>2014-03-13T07:43:53Z</time>
      </trkpt>
      <trkpt lat="42.86847" lon="-0.26831">
        <ele>1612.5899658203</ele>
        <time>2014-03-13T07:43:55Z</time>
      </trkpt>
      <trkpt lat="42.86846" lon="-0.26823">
        <ele>1612.3699951172</ele>
        <time>2014-03-13T07:43:57Z</time>
      </trkpt>
      <trkpt lat="42.86821" lon="-0.26784">
        <ele>1609.2629394531</ele>
        <time>2014-03-13T07:44:09Z</time>
      </trkpt>
      <trkpt lat="42.86821" lon="-0.26769">
        <ele>1607.4200439453</ele>
        <time>2014-03-13T07:44:16Z</time>
      </trkpt>
      <trkpt lat="42.86831" lon="-0.26763">
        <ele>1605.0849609375</ele>
        <time>2014-03-13T07:44:20Z</time>
      </trkpt>
      <trkpt lat="42.8684" lon="-0.26764">
        <ele>1602.7900390625</ele>
        <time>2014-03-13T07:44:23Z</time>
      </trkpt>
      <trkpt lat="42.86842" lon="-0.26765">
        <ele>1602.4649658203</ele>
        <time>2014-03-13T07:44:24Z</time>
      </trkpt>
      <trkpt lat="42.86872" lon="-0.26776">
        <ele>1599.0720214844</ele>
        <time>2014-03-13T07:44:37Z</time>
      </trkpt>
      <trkpt lat="42.86874" lon="-0.2678">
        <ele>1599.4739990234</ele>
        <time>2014-03-13T07:44:52Z</time>
      </trkpt>
      <trkpt lat="42.86859" lon="-0.26763">
        <ele>1595.6590576172</ele>
        <time>2014-03-13T07:45:00Z</time>
      </trkpt>
      <trkpt lat="42.86852" lon="-0.26752">
        <ele>1592.4410400391</ele>
        <time>2014-03-13T07:45:03Z</time>
      </trkpt>
      <trkpt lat="42.8685" lon="-0.26746">
        <ele>1592.4479980469</ele>
        <time>2014-03-13T07:45:04Z</time>
      </trkpt>
      <trkpt lat="42.86849" lon="-0.26737">
        <ele>1590.8530273438</ele>
        <time>2014-03-13T07:45:07Z</time>
      </trkpt>
      <trkpt lat="42.86858" lon="-0.26735">
        <ele>1588.1789550781</ele>
        <time>2014-03-13T07:45:11Z</time>
      </trkpt>
      <trkpt lat="42.8686" lon="-0.26736">
        <ele>1587.0100097656</ele>
        <time>2014-03-13T07:45:12Z</time>
      </trkpt>
      <trkpt lat="42.86859" lon="-0.26729">
        <ele>1585.4830322266</ele>
        <time>2014-03-13T07:45:15Z</time>
      </trkpt>
      <trkpt lat="42.86856" lon="-0.26716">
        <ele>1583.1770019531</ele>
        <time>2014-03-13T07:45:18Z</time>
      </trkpt>
      <trkpt lat="42.86861" lon="-0.26703">
        <ele>1581.5550537109</ele>
        <time>2014-03-13T07:45:22Z</time>
      </trkpt>
      <trkpt lat="42.86861" lon="-0.26699">
        <ele>1578.9949951172</ele>
        <time>2014-03-13T07:45:24Z</time>
      </trkpt>
      <trkpt lat="42.86861" lon="-0.26701">
        <ele>1579.0959472656</ele>
        <time>2014-03-13T07:45:27Z</time>
      </trkpt>
      <trkpt lat="42.86868" lon="-0.26696">
        <ele>1577.5989990234</ele>
        <time>2014-03-13T07:45:31Z</time>
      </trkpt>
      <trkpt lat="42.86876" lon="-0.26695">
        <ele>1574.5379638672</ele>
        <time>2014-03-13T07:45:36Z</time>
      </trkpt>
      <trkpt lat="42.86879" lon="-0.26684">
        <ele>1569.6259765625</ele>
        <time>2014-03-13T07:45:40Z</time>
      </trkpt>
      <trkpt lat="42.86879" lon="-0.26682">
        <ele>1569.6330566406</ele>
        <time>2014-03-13T07:45:41Z</time>
      </trkpt>
      <trkpt lat="42.86883" lon="-0.26673">
        <ele>1566.166015625</ele>
        <time>2014-03-13T07:45:46Z</time>
      </trkpt>
      <trkpt lat="42.86886" lon="-0.26672">
        <ele>1565.541015625</ele>
        <time>2014-03-13T07:45:48Z</time>
      </trkpt>
      <trkpt lat="42.86888" lon="-0.26662">
        <ele>1563.8950195312</ele>
        <time>2014-03-13T07:45:50Z</time>
      </trkpt>
      <trkpt lat="42.86883" lon="-0.26654">
        <ele>1561.5830078125</ele>
        <time>2014-03-13T07:45:52Z</time>
      </trkpt>
      <trkpt lat="42.86877" lon="-0.26625">
        <ele>1560.7840576172</ele>
        <time>2014-03-13T07:46:04Z</time>
      </trkpt>
      <trkpt lat="42.86877" lon="-0.26537">
        <ele>1561.3990478516</ele>
        <time>2014-03-13T08:06:45Z</time>
      </trkpt>
      <trkpt lat="42.86874" lon="-0.26538">
        <ele>1561.5419921875</ele>
        <time>2014-03-13T08:06:46Z</time>
      </trkpt>
      <trkpt lat="42.86863" lon="-0.26535">
        <ele>1562.4670410156</ele>
        <time>2014-03-13T08:07:01Z</time>
      </trkpt>
      <trkpt lat="42.86856" lon="-0.26527">
        <ele>1564.3590087891</ele>
        <time>2014-03-13T08:07:17Z</time>
      </trkpt>
      <trkpt lat="42.86855" lon="-0.26518">
        <ele>1565.6540527344</ele>
        <time>2014-03-13T08:07:33Z</time>
      </trkpt>
      <trkpt lat="42.86849" lon="-0.26514">
        <ele>1567.6910400391</ele>
        <time>2014-03-13T08:07:46Z</time>
      </trkpt>
      <trkpt lat="42.86845" lon="-0.26502">
        <ele>1569.6779785156</ele>
        <time>2014-03-13T08:08:04Z</time>
      </trkpt>
      <trkpt lat="42.8684" lon="-0.26492">
        <ele>1572.7180175781</ele>
        <time>2014-03-13T08:08:16Z</time>
      </trkpt>
      <trkpt lat="42.86841" lon="-0.26489">
        <ele>1575.9329833984</ele>
        <time>2014-03-13T08:08:23Z</time>
      </trkpt>
      <trkpt lat="42.86843" lon="-0.26483">
        <ele>1579.3399658203</ele>
        <time>2014-03-13T08:08:33Z</time>
      </trkpt>
      <trkpt lat="42.86835" lon="-0.26477">
        <ele>1582.0260009766</ele>
        <time>2014-03-13T08:08:48Z</time>
      </trkpt>
      <trkpt lat="42.86827" lon="-0.26481">
        <ele>1582.9919433594</ele>
        <time>2014-03-13T08:09:04Z</time>
      </trkpt>
      <trkpt lat="42.86819" lon="-0.26485">
        <ele>1585.1550292969</ele>
        <time>2014-03-13T08:09:20Z</time>
      </trkpt>
      <trkpt lat="42.86811" lon="-0.26478">
        <ele>1587.1770019531</ele>
        <time>2014-03-13T08:09:34Z</time>
      </trkpt>
      <trkpt lat="42.86814" lon="-0.26467">
        <ele>1589.2559814453</ele>
        <time>2014-03-13T08:09:51Z</time>
      </trkpt>
      <trkpt lat="42.86812" lon="-0.26453">
        <ele>1591.5469970703</ele>
        <time>2014-03-13T08:10:09Z</time>
      </trkpt>
      <trkpt lat="42.86811" lon="-0.26442">
        <ele>1594.3499755859</ele>
        <time>2014-03-13T08:10:23Z</time>
      </trkpt>
      <trkpt lat="42.86813" lon="-0.26428">
        <ele>1596.4260253906</ele>
        <time>2014-03-13T08:10:39Z</time>
      </trkpt>
      <trkpt lat="42.86817" lon="-0.26421">
        <ele>1597.2979736328</ele>
        <time>2014-03-13T08:10:52Z</time>
      </trkpt>
      <trkpt lat="42.86825" lon="-0.26425">
        <ele>1599.9720458984</ele>
        <time>2014-03-13T08:11:05Z</time>
      </trkpt>
      <trkpt lat="42.8683" lon="-0.26425">
        <ele>1599.9890136719</ele>
        <time>2014-03-13T08:11:14Z</time>
      </trkpt>
      <trkpt lat="42.8683" lon="-0.26425">
        <ele>1601.6020507812</ele>
        <time>2014-03-13T08:11:16Z</time>
      </trkpt>
      <trkpt lat="42.86832" lon="-0.26423">
        <ele>1600.5729980469</ele>
        <time>2014-03-13T08:11:29Z</time>
      </trkpt>
      <trkpt lat="42.86833" lon="-0.26423">
        <ele>1601.1710205078</ele>
        <time>2014-03-13T08:11:44Z</time>
      </trkpt>
      <trkpt lat="42.86831" lon="-0.26421">
        <ele>1599.7309570312</ele>
        <time>2014-03-13T08:12:36Z</time>
      </trkpt>
      <trkpt lat="42.8683" lon="-0.26417">
        <ele>1600.6180419922</ele>
        <time>2014-03-13T08:12:59Z</time>
      </trkpt>
      <trkpt lat="42.86835" lon="-0.26408">
        <ele>1602.4770507812</ele>
        <time>2014-03-13T08:13:15Z</time>
      </trkpt>
      <trkpt lat="42.86841" lon="-0.26405">
        <ele>1604.0860595703</ele>
        <time>2014-03-13T08:13:25Z</time>
      </trkpt>
      <trkpt lat="42.86849" lon="-0.26397">
        <ele>1607.2919921875</ele>
        <time>2014-03-13T08:13:44Z</time>
      </trkpt>
      <trkpt lat="42.86842" lon="-0.26386">
        <ele>1608.2960205078</ele>
        <time>2014-03-13T08:14:04Z</time>
      </trkpt>
      <trkpt lat="42.8683" lon="-0.2639">
        <ele>1611.2399902344</ele>
        <time>2014-03-13T08:14:25Z</time>
      </trkpt>
      <trkpt lat="42.86821" lon="-0.26386">
        <ele>1613.2679443359</ele>
        <time>2014-03-13T08:14:48Z</time>
      </trkpt>
      <trkpt lat="42.86817" lon="-0.26385">
        <ele>1615.4880371094</ele>
        <time>2014-03-13T08:15:00Z</time>
      </trkpt>
      <trkpt lat="42.86822" lon="-0.26381">
        <ele>1618.5939941406</ele>
        <time>2014-03-13T08:15:12Z</time>
      </trkpt>
      <trkpt lat="42.8683" lon="-0.26371">
        <ele>1620.4439697266</ele>
        <time>2014-03-13T08:15:28Z</time>
      </trkpt>
      <trkpt lat="42.86836" lon="-0.26352">
        <ele>1622.0710449219</ele>
        <time>2014-03-13T08:16:00Z</time>
      </trkpt>
      <trkpt lat="42.86835" lon="-0.26351">
        <ele>1621.0520019531</ele>
        <time>2014-03-13T08:16:09Z</time>
      </trkpt>
      <trkpt lat="42.86833" lon="-0.26353">
        <ele>1622.4610595703</ele>
        <time>2014-03-13T08:16:12Z</time>
      </trkpt>
      <trkpt lat="42.86822" lon="-0.26357">
        <ele>1623.8310546875</ele>
        <time>2014-03-13T08:16:32Z</time>
      </trkpt>
      <trkpt lat="42.86815" lon="-0.26357">
        <ele>1627.0319824219</ele>
        <time>2014-03-13T08:16:47Z</time>
      </trkpt>
      <trkpt lat="42.86806" lon="-0.26349">
        <ele>1627.9060058594</ele>
        <time>2014-03-13T08:17:09Z</time>
      </trkpt>
      <trkpt lat="42.86791" lon="-0.26347">
        <ele>1631.0229492188</ele>
        <time>2014-03-13T08:17:36Z</time>
      </trkpt>
      <trkpt lat="42.86776" lon="-0.26343">
        <ele>1633.1590576172</ele>
        <time>2014-03-13T08:18:05Z</time>
      </trkpt>
      <trkpt lat="42.86762" lon="-0.26338">
        <ele>1636.2430419922</ele>
        <time>2014-03-13T08:18:31Z</time>
      </trkpt>
      <trkpt lat="42.86747" lon="-0.2633">
        <ele>1639.1629638672</ele>
        <time>2014-03-13T08:19:02Z</time>
      </trkpt>
      <trkpt lat="42.86732" lon="-0.26325">
        <ele>1642.5639648438</ele>
        <time>2014-03-13T08:19:32Z</time>
      </trkpt>
      <trkpt lat="42.86721" lon="-0.26319">
        <ele>1644.7060546875</ele>
        <time>2014-03-13T08:19:52Z</time>
      </trkpt>
      <trkpt lat="42.86703" lon="-0.26321">
        <ele>1647.3850097656</ele>
        <time>2014-03-13T08:20:22Z</time>
      </trkpt>
      <trkpt lat="42.86696" lon="-0.26315">
        <ele>1648.7629394531</ele>
        <time>2014-03-13T08:20:39Z</time>
      </trkpt>
      <trkpt lat="42.8669" lon="-0.26311">
        <ele>1652.1080322266</ele>
        <time>2014-03-13T08:21:00Z</time>
      </trkpt>
      <trkpt lat="42.86699" lon="-0.263">
        <ele>1655.6729736328</ele>
        <time>2014-03-13T08:21:21Z</time>
      </trkpt>
      <trkpt lat="42.86703" lon="-0.2629">
        <ele>1657.4820556641</ele>
        <time>2014-03-13T08:21:36Z</time>
      </trkpt>
      <trkpt lat="42.86706" lon="-0.26282">
        <ele>1657.7760009766</ele>
        <time>2014-03-13T08:21:56Z</time>
      </trkpt>
      <trkpt lat="42.86691" lon="-0.26283">
        <ele>1660.4749755859</ele>
        <time>2014-03-13T08:22:16Z</time>
      </trkpt>
      <trkpt lat="42.8667" lon="-0.26283">
        <ele>1663.0909423828</ele>
        <time>2014-03-13T08:22:48Z</time>
      </trkpt>
      <trkpt lat="42.8666" lon="-0.26291">
        <ele>1666.2919921875</ele>
        <time>2014-03-13T08:23:05Z</time>
      </trkpt>
      <trkpt lat="42.86656" lon="-0.26279">
        <ele>1667.7110595703</ele>
        <time>2014-03-13T08:23:21Z</time>
      </trkpt>
      <trkpt lat="42.86657" lon="-0.26276">
        <ele>1669.0679931641</ele>
        <time>2014-03-13T08:23:25Z</time>
      </trkpt>
      <trkpt lat="42.86649" lon="-0.26276">
        <ele>1670.8709716797</ele>
        <time>2014-03-13T08:23:42Z</time>
      </trkpt>
      <trkpt lat="42.86643" lon="-0.26283">
        <ele>1672.5870361328</ele>
        <time>2014-03-13T08:24:02Z</time>
      </trkpt>
      <trkpt lat="42.86641" lon="-0.26273">
        <ele>1673.748046875</ele>
        <time>2014-03-13T08:24:15Z</time>
      </trkpt>
      <trkpt lat="42.86644" lon="-0.26259">
        <ele>1676.3010253906</ele>
        <time>2014-03-13T08:24:33Z</time>
      </trkpt>
      <trkpt lat="42.86631" lon="-0.26261">
        <ele>1678.4499511719</ele>
        <time>2014-03-13T08:24:58Z</time>
      </trkpt>
      <trkpt lat="42.86628" lon="-0.26252">
        <ele>1681.2459716797</ele>
        <time>2014-03-13T08:25:19Z</time>
      </trkpt>
      <trkpt lat="42.86617" lon="-0.26253">
        <ele>1684.1209716797</ele>
        <time>2014-03-13T08:25:44Z</time>
      </trkpt>
      <trkpt lat="42.86616" lon="-0.26245">
        <ele>1686.6889648438</ele>
        <time>2014-03-13T08:26:03Z</time>
      </trkpt>
      <trkpt lat="42.86607" lon="-0.26254">
        <ele>1689.7359619141</ele>
        <time>2014-03-13T08:26:21Z</time>
      </trkpt>
      <trkpt lat="42.86602" lon="-0.26252">
        <ele>1690.9470214844</ele>
        <time>2014-03-13T08:26:39Z</time>
      </trkpt>
      <trkpt lat="42.86596" lon="-0.26251">
        <ele>1694.0520019531</ele>
        <time>2014-03-13T08:27:00Z</time>
      </trkpt>
      <trkpt lat="42.8659" lon="-0.26246">
        <ele>1696.6810302734</ele>
        <time>2014-03-13T08:27:17Z</time>
      </trkpt>
      <trkpt lat="42.86583" lon="-0.2625">
        <ele>1698.7309570312</ele>
        <time>2014-03-13T08:27:35Z</time>
      </trkpt>
      <trkpt lat="42.86573" lon="-0.26241">
        <ele>1701.8850097656</ele>
        <time>2014-03-13T08:27:58Z</time>
      </trkpt>
      <trkpt lat="42.86567" lon="-0.26229">
        <ele>1705.3459472656</ele>
        <time>2014-03-13T08:28:19Z</time>
      </trkpt>
      <trkpt lat="42.86551" lon="-0.26227">
        <ele>1707.4239501953</ele>
        <time>2014-03-13T08:28:44Z</time>
      </trkpt>
      <trkpt lat="42.86544" lon="-0.26225">
        <ele>1710.3260498047</ele>
        <time>2014-03-13T08:29:04Z</time>
      </trkpt>
      <trkpt lat="42.86544" lon="-0.26225">
        <ele>1710.3709716797</ele>
        <time>2014-03-13T08:29:21Z</time>
      </trkpt>
      <trkpt lat="42.8653" lon="-0.2622">
        <ele>1710.6159667969</ele>
        <time>2014-03-13T08:29:37Z</time>
      </trkpt>
      <trkpt lat="42.86527" lon="-0.2622">
        <ele>1711.9880371094</ele>
        <time>2014-03-13T08:29:39Z</time>
      </trkpt>
      <trkpt lat="42.86517" lon="-0.26213">
        <ele>1711.9530029297</ele>
        <time>2014-03-13T08:29:48Z</time>
      </trkpt>
      <trkpt lat="42.86513" lon="-0.26208">
        <ele>1713.1280517578</ele>
        <time>2014-03-13T08:29:53Z</time>
      </trkpt>
      <trkpt lat="42.86514" lon="-0.26207">
        <ele>1716.3480224609</ele>
        <time>2014-03-13T08:29:56Z</time>
      </trkpt>
      <trkpt lat="42.86515" lon="-0.26207">
        <ele>1717.4720458984</ele>
        <time>2014-03-13T08:29:58Z</time>
      </trkpt>
      <trkpt lat="42.86516" lon="-0.26207">
        <ele>1714.7430419922</ele>
        <time>2014-03-13T08:30:12Z</time>
      </trkpt>
      <trkpt lat="42.86516" lon="-0.26207">
        <ele>1715.3699951172</ele>
        <time>2014-03-13T08:30:46Z</time>
      </trkpt>
      <trkpt lat="42.86516" lon="-0.26207">
        <ele>1716.7309570312</ele>
        <time>2014-03-13T08:30:48Z</time>
      </trkpt>
      <trkpt lat="42.86515" lon="-0.26207">
        <ele>1715.5780029297</ele>
        <time>2014-03-13T08:30:58Z</time>
      </trkpt>
      <trkpt lat="42.86516" lon="-0.26207">
        <ele>1714.2540283203</ele>
        <time>2014-03-13T08:32:03Z</time>
      </trkpt>
      <trkpt lat="42.86505" lon="-0.26205">
        <ele>1715.0260009766</ele>
        <time>2014-03-13T08:32:16Z</time>
      </trkpt>
      <trkpt lat="42.86487" lon="-0.26202">
        <ele>1713.6199951172</ele>
        <time>2014-03-13T08:32:35Z</time>
      </trkpt>
      <trkpt lat="42.86469" lon="-0.26198">
        <ele>1712.3640136719</ele>
        <time>2014-03-13T08:32:55Z</time>
      </trkpt>
      <trkpt lat="42.86451" lon="-0.26193">
        <ele>1711.2580566406</ele>
        <time>2014-03-13T08:33:15Z</time>
      </trkpt>
      <trkpt lat="42.8643" lon="-0.26182">
        <ele>1709.7280273438</ele>
        <time>2014-03-13T08:33:37Z</time>
      </trkpt>
      <trkpt lat="42.86426" lon="-0.2618">
        <ele>1709.8940429688</ele>
        <time>2014-03-13T08:33:42Z</time>
      </trkpt>
      <trkpt lat="42.86419" lon="-0.26177">
        <ele>1709.8990478516</ele>
        <time>2014-03-13T08:33:49Z</time>
      </trkpt>
      <trkpt lat="42.86399" lon="-0.26171">
        <ele>1708.4090576172</ele>
        <time>2014-03-13T08:34:08Z</time>
      </trkpt>
      <trkpt lat="42.86378" lon="-0.26163">
        <ele>1707.5980224609</ele>
        <time>2014-03-13T08:34:28Z</time>
      </trkpt>
      <trkpt lat="42.86375" lon="-0.26162">
        <ele>1707.0450439453</ele>
        <time>2014-03-13T08:34:31Z</time>
      </trkpt>
      <trkpt lat="42.86361" lon="-0.26152">
        <ele>1706.2030029297</ele>
        <time>2014-03-13T08:34:46Z</time>
      </trkpt>
      <trkpt lat="42.86347" lon="-0.26145">
        <ele>1706.8100585938</ele>
        <time>2014-03-13T08:35:04Z</time>
      </trkpt>
      <trkpt lat="42.8633" lon="-0.26144">
        <ele>1707.8900146484</ele>
        <time>2014-03-13T08:35:25Z</time>
      </trkpt>
      <trkpt lat="42.86312" lon="-0.2614">
        <ele>1708.0219726562</ele>
        <time>2014-03-13T08:35:45Z</time>
      </trkpt>
      <trkpt lat="42.86292" lon="-0.26131">
        <ele>1707.0159912109</ele>
        <time>2014-03-13T08:36:10Z</time>
      </trkpt>
      <trkpt lat="42.86282" lon="-0.26127">
        <ele>1707.3210449219</ele>
        <time>2014-03-13T08:36:22Z</time>
      </trkpt>
      <trkpt lat="42.86274" lon="-0.26124">
        <ele>1706.9560546875</ele>
        <time>2014-03-13T08:36:29Z</time>
      </trkpt>
      <trkpt lat="42.86269" lon="-0.26118">
        <ele>1705.7359619141</ele>
        <time>2014-03-13T08:36:35Z</time>
      </trkpt>
      <trkpt lat="42.86263" lon="-0.26106">
        <ele>1708.8299560547</ele>
        <time>2014-03-13T08:36:48Z</time>
      </trkpt>
      <trkpt lat="42.86256" lon="-0.26099">
        <ele>1708.5610351562</ele>
        <time>2014-03-13T08:36:59Z</time>
      </trkpt>
      <trkpt lat="42.86241" lon="-0.26096">
        <ele>1708.5620117188</ele>
        <time>2014-03-13T08:37:20Z</time>
      </trkpt>
      <trkpt lat="42.8623" lon="-0.26097">
        <ele>1709.3380126953</ele>
        <time>2014-03-13T08:37:36Z</time>
      </trkpt>
      <trkpt lat="42.86215" lon="-0.26097">
        <ele>1710.9429931641</ele>
        <time>2014-03-13T08:37:58Z</time>
      </trkpt>
      <trkpt lat="42.862" lon="-0.26097">
        <ele>1714.6180419922</ele>
        <time>2014-03-13T08:38:19Z</time>
      </trkpt>
      <trkpt lat="42.86188" lon="-0.26091">
        <ele>1715.4549560547</ele>
        <time>2014-03-13T08:38:37Z</time>
      </trkpt>
      <trkpt lat="42.86172" lon="-0.26094">
        <ele>1717.8079833984</ele>
        <time>2014-03-13T08:38:58Z</time>
      </trkpt>
      <trkpt lat="42.86162" lon="-0.26102">
        <ele>1720.6929931641</ele>
        <time>2014-03-13T08:39:23Z</time>
      </trkpt>
      <trkpt lat="42.86158" lon="-0.2611">
        <ele>1723.5639648438</ele>
        <time>2014-03-13T08:39:51Z</time>
      </trkpt>
      <trkpt lat="42.86155" lon="-0.26106">
        <ele>1724.0720214844</ele>
        <time>2014-03-13T08:39:57Z</time>
      </trkpt>
      <trkpt lat="42.86142" lon="-0.26108">
        <ele>1726.6619873047</ele>
        <time>2014-03-13T08:40:14Z</time>
      </trkpt>
      <trkpt lat="42.86129" lon="-0.26119">
        <ele>1727.8800048828</ele>
        <time>2014-03-13T08:40:39Z</time>
      </trkpt>
      <trkpt lat="42.86126" lon="-0.26114">
        <ele>1729.3439941406</ele>
        <time>2014-03-13T08:40:47Z</time>
      </trkpt>
      <trkpt lat="42.86124" lon="-0.26112">
        <ele>1728.9300537109</ele>
        <time>2014-03-13T08:40:51Z</time>
      </trkpt>
      <trkpt lat="42.86122" lon="-0.2611">
        <ele>1730.9919433594</ele>
        <time>2014-03-13T08:40:55Z</time>
      </trkpt>
      <trkpt lat="42.86104" lon="-0.2611">
        <ele>1733.4370117188</ele>
        <time>2014-03-13T08:41:16Z</time>
      </trkpt>
      <trkpt lat="42.86101" lon="-0.26103">
        <ele>1736.6309814453</ele>
        <time>2014-03-13T08:41:34Z</time>
      </trkpt>
      <trkpt lat="42.86097" lon="-0.26099">
        <ele>1736.8389892578</ele>
        <time>2014-03-13T08:41:52Z</time>
      </trkpt>
      <trkpt lat="42.8609" lon="-0.26099">
        <ele>1737.6899414062</ele>
        <time>2014-03-13T08:42:05Z</time>
      </trkpt>
      <trkpt lat="42.86071" lon="-0.26098">
        <ele>1739.6619873047</ele>
        <time>2014-03-13T08:42:26Z</time>
      </trkpt>
      <trkpt lat="42.8607" lon="-0.26095">
        <ele>1738.2659912109</ele>
        <time>2014-03-13T08:42:31Z</time>
      </trkpt>
      <trkpt lat="42.86055" lon="-0.26098">
        <ele>1740.8360595703</ele>
        <time>2014-03-13T08:42:51Z</time>
      </trkpt>
      <trkpt lat="42.86039" lon="-0.26099">
        <ele>1739.4339599609</ele>
        <time>2014-03-13T08:43:13Z</time>
      </trkpt>
      <trkpt lat="42.86019" lon="-0.26097">
        <ele>1738.6199951172</ele>
        <time>2014-03-13T08:43:31Z</time>
      </trkpt>
      <trkpt lat="42.86004" lon="-0.26098">
        <ele>1739.5329589844</ele>
        <time>2014-03-13T08:43:44Z</time>
      </trkpt>
      <trkpt lat="42.85984" lon="-0.261">
        <ele>1738.9620361328</ele>
        <time>2014-03-13T08:44:02Z</time>
      </trkpt>
      <trkpt lat="42.85959" lon="-0.261">
        <ele>1738.08203125</ele>
        <time>2014-03-13T08:44:22Z</time>
      </trkpt>
      <trkpt lat="42.85929" lon="-0.26104">
        <ele>1739.6639404297</ele>
        <time>2014-03-13T08:44:44Z</time>
      </trkpt>
      <trkpt lat="42.85905" lon="-0.26108">
        <ele>1739.4229736328</ele>
        <time>2014-03-13T08:45:02Z</time>
      </trkpt>
      <trkpt lat="42.85891" lon="-0.26115">
        <ele>1741.2729492188</ele>
        <time>2014-03-13T08:45:20Z</time>
      </trkpt>
      <trkpt lat="42.8589" lon="-0.26116">
        <ele>1740.3890380859</ele>
        <time>2014-03-13T08:45:34Z</time>
      </trkpt>
      <trkpt lat="42.85893" lon="-0.26116">
        <ele>1739.0739746094</ele>
        <time>2014-03-13T08:45:56Z</time>
      </trkpt>
      <trkpt lat="42.85885" lon="-0.26086">
        <ele>1737.5959472656</ele>
        <time>2014-03-13T08:46:14Z</time>
      </trkpt>
      <trkpt lat="42.85882" lon="-0.26081">
        <ele>1738.1440429688</ele>
        <time>2014-03-13T08:46:17Z</time>
      </trkpt>
      <trkpt lat="42.85867" lon="-0.26065">
        <ele>1739.9909667969</ele>
        <time>2014-03-13T08:46:34Z</time>
      </trkpt>
      <trkpt lat="42.85867" lon="-0.26064">
        <ele>1739.4150390625</ele>
        <time>2014-03-13T08:47:30Z</time>
      </trkpt>
      <trkpt lat="42.85867" lon="-0.26065">
        <ele>1741.3160400391</ele>
        <time>2014-03-13T08:47:33Z</time>
      </trkpt>
      <trkpt lat="42.85865" lon="-0.26064">
        <ele>1740.7449951172</ele>
        <time>2014-03-13T08:48:38Z</time>
      </trkpt>
      <trkpt lat="42.8586" lon="-0.26068">
        <ele>1740.2850341797</ele>
        <time>2014-03-13T08:49:04Z</time>
      </trkpt>
      <trkpt lat="42.85856" lon="-0.26072">
        <ele>1740.0889892578</ele>
        <time>2014-03-13T08:49:09Z</time>
      </trkpt>
      <trkpt lat="42.85835" lon="-0.26081">
        <ele>1740.6409912109</ele>
        <time>2014-03-13T08:49:27Z</time>
      </trkpt>
      <trkpt lat="42.85817" lon="-0.26082">
        <ele>1741.7170410156</ele>
        <time>2014-03-13T08:49:42Z</time>
      </trkpt>
      <trkpt lat="42.85799" lon="-0.26086">
        <ele>1741.3459472656</ele>
        <time>2014-03-13T08:49:57Z</time>
      </trkpt>
      <trkpt lat="42.8578" lon="-0.26081">
        <ele>1742.6490478516</ele>
        <time>2014-03-13T08:50:16Z</time>
      </trkpt>
      <trkpt lat="42.85772" lon="-0.26078">
        <ele>1743.6130371094</ele>
        <time>2014-03-13T08:50:23Z</time>
      </trkpt>
      <trkpt lat="42.8575" lon="-0.26072">
        <ele>1745.6009521484</ele>
        <time>2014-03-13T08:50:42Z</time>
      </trkpt>
      <trkpt lat="42.85737" lon="-0.26069">
        <ele>1747.3499755859</ele>
        <time>2014-03-13T08:50:57Z</time>
      </trkpt>
      <trkpt lat="42.85717" lon="-0.2606">
        <ele>1749.1519775391</ele>
        <time>2014-03-13T08:51:15Z</time>
      </trkpt>
      <trkpt lat="42.85716" lon="-0.26059">
        <ele>1749.2879638672</ele>
        <time>2014-03-13T08:51:18Z</time>
      </trkpt>
      <trkpt lat="42.85701" lon="-0.26051">
        <ele>1750.1870117188</ele>
        <time>2014-03-13T08:51:32Z</time>
      </trkpt>
      <trkpt lat="42.85696" lon="-0.26048">
        <ele>1752.0920410156</ele>
        <time>2014-03-13T08:51:38Z</time>
      </trkpt>
      <trkpt lat="42.85688" lon="-0.26044">
        <ele>1751.8189697266</ele>
        <time>2014-03-13T08:51:45Z</time>
      </trkpt>
      <trkpt lat="42.85677" lon="-0.26035">
        <ele>1754.9899902344</ele>
        <time>2014-03-13T08:51:58Z</time>
      </trkpt>
      <trkpt lat="42.85666" lon="-0.26029">
        <ele>1757.0959472656</ele>
        <time>2014-03-13T08:52:12Z</time>
      </trkpt>
      <trkpt lat="42.8565" lon="-0.2602">
        <ele>1758.6949462891</ele>
        <time>2014-03-13T08:52:29Z</time>
      </trkpt>
      <trkpt lat="42.85638" lon="-0.26013">
        <ele>1760.7049560547</ele>
        <time>2014-03-13T08:52:46Z</time>
      </trkpt>
      <trkpt lat="42.85621" lon="-0.26003">
        <ele>1762.6800537109</ele>
        <time>2014-03-13T08:53:03Z</time>
      </trkpt>
      <trkpt lat="42.85604" lon="-0.25998">
        <ele>1764.2969970703</ele>
        <time>2014-03-13T08:53:18Z</time>
      </trkpt>
      <trkpt lat="42.85584" lon="-0.25986">
        <ele>1767.4790039062</ele>
        <time>2014-03-13T08:53:39Z</time>
      </trkpt>
      <trkpt lat="42.8557" lon="-0.25978">
        <ele>1769.9940185547</ele>
        <time>2014-03-13T08:53:56Z</time>
      </trkpt>
      <trkpt lat="42.85551" lon="-0.25972">
        <ele>1771.7679443359</ele>
        <time>2014-03-13T08:54:16Z</time>
      </trkpt>
      <trkpt lat="42.85539" lon="-0.25967">
        <ele>1773.9090576172</ele>
        <time>2014-03-13T08:54:32Z</time>
      </trkpt>
      <trkpt lat="42.85528" lon="-0.25958">
        <ele>1774.2209472656</ele>
        <time>2014-03-13T08:54:45Z</time>
      </trkpt>
      <trkpt lat="42.85524" lon="-0.25958">
        <ele>1776.2550048828</ele>
        <time>2014-03-13T08:54:48Z</time>
      </trkpt>
      <trkpt lat="42.85512" lon="-0.25964">
        <ele>1776.2679443359</ele>
        <time>2014-03-13T08:55:05Z</time>
      </trkpt>
      <trkpt lat="42.85501" lon="-0.25962">
        <ele>1777.3380126953</ele>
        <time>2014-03-13T08:55:28Z</time>
      </trkpt>
      <trkpt lat="42.85499" lon="-0.25945">
        <ele>1778.5760498047</ele>
        <time>2014-03-13T08:55:50Z</time>
      </trkpt>
      <trkpt lat="42.85482" lon="-0.25946">
        <ele>1778.8000488281</ele>
        <time>2014-03-13T08:56:11Z</time>
      </trkpt>
      <trkpt lat="42.85478" lon="-0.25951">
        <ele>1781.4899902344</ele>
        <time>2014-03-13T08:56:18Z</time>
      </trkpt>
      <trkpt lat="42.85477" lon="-0.25954">
        <ele>1779.9849853516</ele>
        <time>2014-03-13T08:56:23Z</time>
      </trkpt>
      <trkpt lat="42.85464" lon="-0.25955">
        <ele>1779.7430419922</ele>
        <time>2014-03-13T08:56:43Z</time>
      </trkpt>
      <trkpt lat="42.85458" lon="-0.25944">
        <ele>1783.7239990234</ele>
        <time>2014-03-13T08:56:59Z</time>
      </trkpt>
      <trkpt lat="42.85458" lon="-0.25944">
        <ele>1783.7220458984</ele>
        <time>2014-03-13T08:57:00Z</time>
      </trkpt>
      <trkpt lat="42.8546" lon="-0.25931">
        <ele>1785.041015625</ele>
        <time>2014-03-13T08:57:13Z</time>
      </trkpt>
      <trkpt lat="42.85452" lon="-0.25927">
        <ele>1787.3449707031</ele>
        <time>2014-03-13T08:57:25Z</time>
      </trkpt>
      <trkpt lat="42.85444" lon="-0.25922">
        <ele>1788.7030029297</ele>
        <time>2014-03-13T08:57:39Z</time>
      </trkpt>
      <trkpt lat="42.85432" lon="-0.25924">
        <ele>1789.9139404297</ele>
        <time>2014-03-13T08:57:48Z</time>
      </trkpt>
      <trkpt lat="42.85424" lon="-0.25923">
        <ele>1790.8740234375</ele>
        <time>2014-03-13T08:58:01Z</time>
      </trkpt>
      <trkpt lat="42.85428" lon="-0.2592">
        <ele>1792.2220458984</ele>
        <time>2014-03-13T08:58:15Z</time>
      </trkpt>
      <trkpt lat="42.85427" lon="-0.2592">
        <ele>1791.8360595703</ele>
        <time>2014-03-13T08:58:29Z</time>
      </trkpt>
      <trkpt lat="42.85427" lon="-0.25921">
        <ele>1791.2149658203</ele>
        <time>2014-03-13T08:58:45Z</time>
      </trkpt>
      <trkpt lat="42.85431" lon="-0.2591">
        <ele>1792.70703125</ele>
        <time>2014-03-13T09:02:03Z</time>
      </trkpt>
      <trkpt lat="42.8543" lon="-0.25903">
        <ele>1794.4169921875</ele>
        <time>2014-03-13T09:02:10Z</time>
      </trkpt>
      <trkpt lat="42.85426" lon="-0.25895">
        <ele>1797.5190429688</ele>
        <time>2014-03-13T09:02:25Z</time>
      </trkpt>
      <trkpt lat="42.85418" lon="-0.2589">
        <ele>1800.5760498047</ele>
        <time>2014-03-13T09:02:41Z</time>
      </trkpt>
      <trkpt lat="42.85422" lon="-0.25876">
        <ele>1802.0350341797</ele>
        <time>2014-03-13T09:02:54Z</time>
      </trkpt>
      <trkpt lat="42.85414" lon="-0.25878">
        <ele>1803.9530029297</ele>
        <time>2014-03-13T09:03:04Z</time>
      </trkpt>
      <trkpt lat="42.85408" lon="-0.25883">
        <ele>1807.1700439453</ele>
        <time>2014-03-13T09:03:18Z</time>
      </trkpt>
      <trkpt lat="42.85395" lon="-0.25895">
        <ele>1806.5920410156</ele>
        <time>2014-03-13T09:03:28Z</time>
      </trkpt>
      <trkpt lat="42.85392" lon="-0.25883">
        <ele>1809.6259765625</ele>
        <time>2014-03-13T09:03:39Z</time>
      </trkpt>
      <trkpt lat="42.85385" lon="-0.25878">
        <ele>1811.9300537109</ele>
        <time>2014-03-13T09:03:45Z</time>
      </trkpt>
      <trkpt lat="42.85376" lon="-0.2586">
        <ele>1814.7750244141</ele>
        <time>2014-03-13T09:04:04Z</time>
      </trkpt>
      <trkpt lat="42.85374" lon="-0.25863">
        <ele>1817.2449951172</ele>
        <time>2014-03-13T09:04:19Z</time>
      </trkpt>
      <trkpt lat="42.85368" lon="-0.25862">
        <ele>1818.5889892578</ele>
        <time>2014-03-13T09:04:27Z</time>
      </trkpt>
      <trkpt lat="42.85358" lon="-0.25868">
        <ele>1821.4739990234</ele>
        <time>2014-03-13T09:04:40Z</time>
      </trkpt>
      <trkpt lat="42.85358" lon="-0.25866">
        <ele>1819.8509521484</ele>
        <time>2014-03-13T09:04:43Z</time>
      </trkpt>
      <trkpt lat="42.85353" lon="-0.25859">
        <ele>1823.9449462891</ele>
        <time>2014-03-13T09:04:57Z</time>
      </trkpt>
      <trkpt lat="42.85358" lon="-0.25854">
        <ele>1826.6739501953</ele>
        <time>2014-03-13T09:05:13Z</time>
      </trkpt>
      <trkpt lat="42.85358" lon="-0.25858">
        <ele>1829.9809570312</ele>
        <time>2014-03-13T09:05:26Z</time>
      </trkpt>
      <trkpt lat="42.85357" lon="-0.25858">
        <ele>1829.9699707031</ele>
        <time>2014-03-13T09:05:27Z</time>
      </trkpt>
      <trkpt lat="42.85366" lon="-0.25855">
        <ele>1827.9560546875</ele>
        <time>2014-03-13T09:05:31Z</time>
      </trkpt>
      <trkpt lat="42.85347" lon="-0.25854">
        <ele>1831.0949707031</ele>
        <time>2014-03-13T09:05:41Z</time>
      </trkpt>
      <trkpt lat="42.85331" lon="-0.25835">
        <ele>1834.2419433594</ele>
        <time>2014-03-13T09:05:58Z</time>
      </trkpt>
      <trkpt lat="42.85334" lon="-0.2583">
        <ele>1836.6120605469</ele>
        <time>2014-03-13T09:06:23Z</time>
      </trkpt>
      <trkpt lat="42.85332" lon="-0.25829">
        <ele>1838.9040527344</ele>
        <time>2014-03-13T09:06:39Z</time>
      </trkpt>
      <trkpt lat="42.85316" lon="-0.25839">
        <ele>1843.0989990234</ele>
        <time>2014-03-13T09:07:00Z</time>
      </trkpt>
      <trkpt lat="42.85312" lon="-0.25842">
        <ele>1843.2359619141</ele>
        <time>2014-03-13T09:07:16Z</time>
      </trkpt>
      <trkpt lat="42.85299" lon="-0.25831">
        <ele>1844.9859619141</ele>
        <time>2014-03-13T09:07:35Z</time>
      </trkpt>
      <trkpt lat="42.85297" lon="-0.25829">
        <ele>1846.6490478516</ele>
        <time>2014-03-13T09:07:39Z</time>
      </trkpt>
      <trkpt lat="42.85287" lon="-0.25814">
        <ele>1849.876953125</ele>
        <time>2014-03-13T09:07:56Z</time>
      </trkpt>
      <trkpt lat="42.85279" lon="-0.25791">
        <ele>1852.8489990234</ele>
        <time>2014-03-13T09:08:17Z</time>
      </trkpt>
      <trkpt lat="42.85279" lon="-0.25788">
        <ele>1853.8850097656</ele>
        <time>2014-03-13T09:08:25Z</time>
      </trkpt>
      <trkpt lat="42.85283" lon="-0.25779">
        <ele>1857.4539794922</ele>
        <time>2014-03-13T09:08:42Z</time>
      </trkpt>
      <trkpt lat="42.85254" lon="-0.25787">
        <ele>1860.41796875</ele>
        <time>2014-03-13T09:09:08Z</time>
      </trkpt>
      <trkpt lat="42.85258" lon="-0.25758">
        <ele>1863.54296875</ele>
        <time>2014-03-13T09:09:28Z</time>
      </trkpt>
      <trkpt lat="42.85268" lon="-0.25765">
        <ele>1861.6960449219</ele>
        <time>2014-03-13T09:09:37Z</time>
      </trkpt>
      <trkpt lat="42.8527" lon="-0.25767">
        <ele>1864.1929931641</ele>
        <time>2014-03-13T09:09:39Z</time>
      </trkpt>
      <trkpt lat="42.85265" lon="-0.25751">
        <ele>1866.4709472656</ele>
        <time>2014-03-13T09:10:01Z</time>
      </trkpt>
      <trkpt lat="42.85252" lon="-0.25761">
        <ele>1866.2469482422</ele>
        <time>2014-03-13T09:10:16Z</time>
      </trkpt>
      <trkpt lat="42.85249" lon="-0.25746">
        <ele>1869.3669433594</ele>
        <time>2014-03-13T09:10:37Z</time>
      </trkpt>
      <trkpt lat="42.85255" lon="-0.25735">
        <ele>1870.4119873047</ele>
        <time>2014-03-13T09:10:51Z</time>
      </trkpt>
      <trkpt lat="42.85261" lon="-0.25748">
        <ele>1871.2320556641</ele>
        <time>2014-03-13T09:10:57Z</time>
      </trkpt>
      <trkpt lat="42.85246" lon="-0.25746">
        <ele>1871.9849853516</ele>
        <time>2014-03-13T09:11:02Z</time>
      </trkpt>
      <trkpt lat="42.8523" lon="-0.25751">
        <ele>1875.6390380859</ele>
        <time>2014-03-13T09:11:20Z</time>
      </trkpt>
      <trkpt lat="42.8523" lon="-0.2575">
        <ele>1875.6130371094</ele>
        <time>2014-03-13T09:11:21Z</time>
      </trkpt>
      <trkpt lat="42.85223" lon="-0.25745">
        <ele>1875.4470214844</ele>
        <time>2014-03-13T09:11:44Z</time>
      </trkpt>
      <trkpt lat="42.85224" lon="-0.25743">
        <ele>1875.5639648438</ele>
        <time>2014-03-13T09:11:48Z</time>
      </trkpt>
      <trkpt lat="42.85234" lon="-0.25726">
        <ele>1877.7270507812</ele>
        <time>2014-03-13T09:12:09Z</time>
      </trkpt>
      <trkpt lat="42.85238" lon="-0.25716">
        <ele>1880.2430419922</ele>
        <time>2014-03-13T09:12:28Z</time>
      </trkpt>
      <trkpt lat="42.85236" lon="-0.25725">
        <ele>1880.3509521484</ele>
        <time>2014-03-13T09:12:37Z</time>
      </trkpt>
      <trkpt lat="42.85223" lon="-0.25729">
        <ele>1883.5510253906</ele>
        <time>2014-03-13T09:12:57Z</time>
      </trkpt>
      <trkpt lat="42.85202" lon="-0.25736">
        <ele>1886.9219970703</ele>
        <time>2014-03-13T09:13:17Z</time>
      </trkpt>
      <trkpt lat="42.85191" lon="-0.25746">
        <ele>1889.9250488281</ele>
        <time>2014-03-13T09:13:41Z</time>
      </trkpt>
      <trkpt lat="42.85195" lon="-0.25743">
        <ele>1887.8979492188</ele>
        <time>2014-03-13T09:13:49Z</time>
      </trkpt>
      <trkpt lat="42.85195" lon="-0.25732">
        <ele>1889.5860595703</ele>
        <time>2014-03-13T09:14:07Z</time>
      </trkpt>
      <trkpt lat="42.85199" lon="-0.25723">
        <ele>1889.5119628906</ele>
        <time>2014-03-13T09:14:11Z</time>
      </trkpt>
      <trkpt lat="42.85206" lon="-0.25712">
        <ele>1893.16796875</ele>
        <time>2014-03-13T09:14:31Z</time>
      </trkpt>
      <trkpt lat="42.85204" lon="-0.25712">
        <ele>1893.2110595703</ele>
        <time>2014-03-13T09:14:47Z</time>
      </trkpt>
      <trkpt lat="42.85194" lon="-0.25715">
        <ele>1893.66796875</ele>
        <time>2014-03-13T09:15:00Z</time>
      </trkpt>
      <trkpt lat="42.85186" lon="-0.25709">
        <ele>1895.3470458984</ele>
        <time>2014-03-13T09:15:14Z</time>
      </trkpt>
      <trkpt lat="42.85185" lon="-0.2571">
        <ele>1895.7900390625</ele>
        <time>2014-03-13T09:15:15Z</time>
      </trkpt>
      <trkpt lat="42.85174" lon="-0.25713">
        <ele>1897.9630126953</ele>
        <time>2014-03-13T09:15:35Z</time>
      </trkpt>
      <trkpt lat="42.85162" lon="-0.25718">
        <ele>1899.5500488281</ele>
        <time>2014-03-13T09:15:54Z</time>
      </trkpt>
      <trkpt lat="42.85159" lon="-0.25721">
        <ele>1902.6770019531</ele>
        <time>2014-03-13T09:16:00Z</time>
      </trkpt>
      <trkpt lat="42.85159" lon="-0.25723">
        <ele>1902.6440429688</ele>
        <time>2014-03-13T09:16:01Z</time>
      </trkpt>
      <trkpt lat="42.85155" lon="-0.2573">
        <ele>1900.33203125</ele>
        <time>2014-03-13T09:16:15Z</time>
      </trkpt>
      <trkpt lat="42.85144" lon="-0.25729">
        <ele>1901.1280517578</ele>
        <time>2014-03-13T09:16:32Z</time>
      </trkpt>
      <trkpt lat="42.85143" lon="-0.25724">
        <ele>1901.9699707031</ele>
        <time>2014-03-13T09:16:38Z</time>
      </trkpt>
      <trkpt lat="42.85141" lon="-0.25717">
        <ele>1904.4350585938</ele>
        <time>2014-03-13T09:16:52Z</time>
      </trkpt>
      <trkpt lat="42.85126" lon="-0.25721">
        <ele>1908.1090087891</ele>
        <time>2014-03-13T09:17:14Z</time>
      </trkpt>
      <trkpt lat="42.85126" lon="-0.25722">
        <ele>1908.0760498047</ele>
        <time>2014-03-13T09:17:15Z</time>
      </trkpt>
      <trkpt lat="42.85112" lon="-0.25729">
        <ele>1907.7769775391</ele>
        <time>2014-03-13T09:17:37Z</time>
      </trkpt>
      <trkpt lat="42.85109" lon="-0.25721">
        <ele>1910.0930175781</ele>
        <time>2014-03-13T09:17:50Z</time>
      </trkpt>
      <trkpt lat="42.85102" lon="-0.2571">
        <ele>1910.0200195312</ele>
        <time>2014-03-13T09:18:16Z</time>
      </trkpt>
      <trkpt lat="42.85103" lon="-0.25704">
        <ele>1912.4079589844</ele>
        <time>2014-03-13T09:18:20Z</time>
      </trkpt>
      <trkpt lat="42.85098" lon="-0.25697">
        <ele>1914.5760498047</ele>
        <time>2014-03-13T09:18:38Z</time>
      </trkpt>
      <trkpt lat="42.85091" lon="-0.25695">
        <ele>1917.8570556641</ele>
        <time>2014-03-13T09:18:46Z</time>
      </trkpt>
      <trkpt lat="42.85091" lon="-0.25695">
        <ele>1917.8260498047</ele>
        <time>2014-03-13T09:18:47Z</time>
      </trkpt>
      <trkpt lat="42.85091" lon="-0.25695">
        <ele>1915.0939941406</ele>
        <time>2014-03-13T09:18:49Z</time>
      </trkpt>
      <trkpt lat="42.85083" lon="-0.25687">
        <ele>1916.1779785156</ele>
        <time>2014-03-13T09:19:05Z</time>
      </trkpt>
      <trkpt lat="42.85072" lon="-0.25678">
        <ele>1917.4439697266</ele>
        <time>2014-03-13T09:19:22Z</time>
      </trkpt>
      <trkpt lat="42.85071" lon="-0.25675">
        <ele>1918.4470214844</ele>
        <time>2014-03-13T09:19:26Z</time>
      </trkpt>
      <trkpt lat="42.85062" lon="-0.2567">
        <ele>1919.3499755859</ele>
        <time>2014-03-13T09:19:44Z</time>
      </trkpt>
      <trkpt lat="42.85057" lon="-0.25669">
        <ele>1918.4389648438</ele>
        <time>2014-03-13T09:19:51Z</time>
      </trkpt>
      <trkpt lat="42.85046" lon="-0.25666">
        <ele>1920.1999511719</ele>
        <time>2014-03-13T09:20:09Z</time>
      </trkpt>
      <trkpt lat="42.85032" lon="-0.25655">
        <ele>1923.2340087891</ele>
        <time>2014-03-13T09:20:31Z</time>
      </trkpt>
      <trkpt lat="42.85023" lon="-0.25649">
        <ele>1922.8000488281</ele>
        <time>2014-03-13T09:20:45Z</time>
      </trkpt>
      <trkpt lat="42.85012" lon="-0.25644">
        <ele>1923.708984375</ele>
        <time>2014-03-13T09:20:58Z</time>
      </trkpt>
      <trkpt lat="42.85005" lon="-0.25637">
        <ele>1923.3549804688</ele>
        <time>2014-03-13T09:21:15Z</time>
      </trkpt>
      <trkpt lat="42.84998" lon="-0.25633">
        <ele>1923.9370117188</ele>
        <time>2014-03-13T09:21:27Z</time>
      </trkpt>
      <trkpt lat="42.84981" lon="-0.25635">
        <ele>1924.7270507812</ele>
        <time>2014-03-13T09:21:45Z</time>
      </trkpt>
      <trkpt lat="42.84968" lon="-0.25627">
        <ele>1926.0699462891</ele>
        <time>2014-03-13T09:22:07Z</time>
      </trkpt>
      <trkpt lat="42.84953" lon="-0.25628">
        <ele>1927.9370117188</ele>
        <time>2014-03-13T09:22:27Z</time>
      </trkpt>
      <trkpt lat="42.84937" lon="-0.25641">
        <ele>1929.7950439453</ele>
        <time>2014-03-13T09:22:47Z</time>
      </trkpt>
      <trkpt lat="42.84934" lon="-0.25644">
        <ele>1930.1140136719</ele>
        <time>2014-03-13T09:22:51Z</time>
      </trkpt>
      <trkpt lat="42.84924" lon="-0.25652">
        <ele>1931.8270263672</ele>
        <time>2014-03-13T09:23:07Z</time>
      </trkpt>
      <trkpt lat="42.84909" lon="-0.25651">
        <ele>1933.7449951172</ele>
        <time>2014-03-13T09:23:40Z</time>
      </trkpt>
      <trkpt lat="42.84901" lon="-0.25648">
        <ele>1935.83203125</ele>
        <time>2014-03-13T09:23:52Z</time>
      </trkpt>
      <trkpt lat="42.84892" lon="-0.25644">
        <ele>1937.1850585938</ele>
        <time>2014-03-13T09:24:09Z</time>
      </trkpt>
      <trkpt lat="42.84884" lon="-0.25637">
        <ele>1939.1290283203</ele>
        <time>2014-03-13T09:24:25Z</time>
      </trkpt>
      <trkpt lat="42.84871" lon="-0.25641">
        <ele>1940.4260253906</ele>
        <time>2014-03-13T09:24:44Z</time>
      </trkpt>
      <trkpt lat="42.84858" lon="-0.25639">
        <ele>1942.1970214844</ele>
        <time>2014-03-13T09:25:06Z</time>
      </trkpt>
      <trkpt lat="42.84846" lon="-0.25633">
        <ele>1945.6479492188</ele>
        <time>2014-03-13T09:25:29Z</time>
      </trkpt>
      <trkpt lat="42.84846" lon="-0.25641">
        <ele>1947.1579589844</ele>
        <time>2014-03-13T09:25:49Z</time>
      </trkpt>
      <trkpt lat="42.84844" lon="-0.25643">
        <ele>1947.1719970703</ele>
        <time>2014-03-13T09:26:08Z</time>
      </trkpt>
      <trkpt lat="42.84891" lon="-0.25649">
        <ele>1946.0550537109</ele>
        <time>2014-03-13T09:38:29Z</time>
      </trkpt>
      <trkpt lat="42.84889" lon="-0.25643">
        <ele>1948.4040527344</ele>
        <time>2014-03-13T09:38:36Z</time>
      </trkpt>
      <trkpt lat="42.84887" lon="-0.25638">
        <ele>1949.9260253906</ele>
        <time>2014-03-13T09:38:43Z</time>
      </trkpt>
      <trkpt lat="42.8488" lon="-0.25628">
        <ele>1953.7399902344</ele>
        <time>2014-03-13T09:39:04Z</time>
      </trkpt>
      <trkpt lat="42.84878" lon="-0.25627">
        <ele>1957.3540039062</ele>
        <time>2014-03-13T09:39:11Z</time>
      </trkpt>
      <trkpt lat="42.84875" lon="-0.25628">
        <ele>1960.5030517578</ele>
        <time>2014-03-13T09:39:15Z</time>
      </trkpt>
      <trkpt lat="42.84872" lon="-0.25628">
        <ele>1963.8900146484</ele>
        <time>2014-03-13T09:39:21Z</time>
      </trkpt>
      <trkpt lat="42.84868" lon="-0.25629">
        <ele>1967.2299804688</ele>
        <time>2014-03-13T09:39:28Z</time>
      </trkpt>
      <trkpt lat="42.84867" lon="-0.25629">
        <ele>1967.4870605469</ele>
        <time>2014-03-13T09:39:29Z</time>
      </trkpt>
      <trkpt lat="42.84862" lon="-0.25625">
        <ele>1970.5479736328</ele>
        <time>2014-03-13T09:39:40Z</time>
      </trkpt>
      <trkpt lat="42.84861" lon="-0.25624">
        <ele>1970.7550048828</ele>
        <time>2014-03-13T09:39:41Z</time>
      </trkpt>
      <trkpt lat="42.84858" lon="-0.25619">
        <ele>1972.8160400391</ele>
        <time>2014-03-13T09:39:50Z</time>
      </trkpt>
      <trkpt lat="42.84855" lon="-0.2562">
        <ele>1974.8360595703</ele>
        <time>2014-03-13T09:39:54Z</time>
      </trkpt>
      <trkpt lat="42.84845" lon="-0.25623">
        <ele>1977.9110107422</ele>
        <time>2014-03-13T09:40:12Z</time>
      </trkpt>
      <trkpt lat="42.84844" lon="-0.25623">
        <ele>1977.9119873047</ele>
        <time>2014-03-13T09:40:13Z</time>
      </trkpt>
      <trkpt lat="42.84838" lon="-0.25621">
        <ele>1978.7760009766</ele>
        <time>2014-03-13T09:40:25Z</time>
      </trkpt>
      <trkpt lat="42.84824" lon="-0.25623">
        <ele>1979.9370117188</ele>
        <time>2014-03-13T09:40:49Z</time>
      </trkpt>
      <trkpt lat="42.84805" lon="-0.2562">
        <ele>1981.8699951172</ele>
        <time>2014-03-13T09:41:12Z</time>
      </trkpt>
      <trkpt lat="42.84793" lon="-0.2562">
        <ele>1983.7760009766</ele>
        <time>2014-03-13T09:41:25Z</time>
      </trkpt>
      <trkpt lat="42.8479" lon="-0.2562">
        <ele>1983.3360595703</ele>
        <time>2014-03-13T09:41:27Z</time>
      </trkpt>
      <trkpt lat="42.84772" lon="-0.25617">
        <ele>1984.4820556641</ele>
        <time>2014-03-13T09:41:46Z</time>
      </trkpt>
      <trkpt lat="42.84757" lon="-0.25617">
        <ele>1985.5340576172</ele>
        <time>2014-03-13T09:42:03Z</time>
      </trkpt>
      <trkpt lat="42.84739" lon="-0.25615">
        <ele>1987.5830078125</ele>
        <time>2014-03-13T09:42:26Z</time>
      </trkpt>
      <trkpt lat="42.84722" lon="-0.25612">
        <ele>1990.9680175781</ele>
        <time>2014-03-13T09:42:45Z</time>
      </trkpt>
      <trkpt lat="42.8471" lon="-0.25611">
        <ele>1994.1979980469</ele>
        <time>2014-03-13T09:43:06Z</time>
      </trkpt>
      <trkpt lat="42.847" lon="-0.25608">
        <ele>1996.5560302734</ele>
        <time>2014-03-13T09:44:14Z</time>
      </trkpt>
      <trkpt lat="42.84684" lon="-0.25606">
        <ele>1997.4639892578</ele>
        <time>2014-03-13T09:44:42Z</time>
      </trkpt>
      <trkpt lat="42.84672" lon="-0.25608">
        <ele>2000.7509765625</ele>
        <time>2014-03-13T09:44:56Z</time>
      </trkpt>
      <trkpt lat="42.84652" lon="-0.2561">
        <ele>2004.0050048828</ele>
        <time>2014-03-13T09:45:24Z</time>
      </trkpt>
      <trkpt lat="42.84639" lon="-0.25612">
        <ele>2007.1590576172</ele>
        <time>2014-03-13T09:45:43Z</time>
      </trkpt>
      <trkpt lat="42.84628" lon="-0.25611">
        <ele>2010.7359619141</ele>
        <time>2014-03-13T09:45:57Z</time>
      </trkpt>
      <trkpt lat="42.84612" lon="-0.25612">
        <ele>2014.125</ele>
        <time>2014-03-13T09:46:17Z</time>
      </trkpt>
      <trkpt lat="42.84599" lon="-0.25605">
        <ele>2015.626953125</ele>
        <time>2014-03-13T09:46:43Z</time>
      </trkpt>
      <trkpt lat="42.84599" lon="-0.25605">
        <ele>2018.2600097656</ele>
        <time>2014-03-13T09:46:51Z</time>
      </trkpt>
      <trkpt lat="42.84599" lon="-0.25606">
        <ele>2015.58203125</ele>
        <time>2014-03-13T09:46:56Z</time>
      </trkpt>
      <trkpt lat="42.84599" lon="-0.25606">
        <ele>2017.8310546875</ele>
        <time>2014-03-13T09:46:58Z</time>
      </trkpt>
      <trkpt lat="42.84599" lon="-0.25607">
        <ele>2016.5369873047</ele>
        <time>2014-03-13T09:47:00Z</time>
      </trkpt>
      <trkpt lat="42.84599" lon="-0.25607">
        <ele>2018.166015625</ele>
        <time>2014-03-13T09:47:14Z</time>
      </trkpt>
      <trkpt lat="42.84599" lon="-0.25608">
        <ele>2016.6600341797</ele>
        <time>2014-03-13T09:47:17Z</time>
      </trkpt>
      <trkpt lat="42.84598" lon="-0.25607">
        <ele>2014.1910400391</ele>
        <time>2014-03-13T09:47:21Z</time>
      </trkpt>
      <trkpt lat="42.84583" lon="-0.25605">
        <ele>2014.5419921875</ele>
        <time>2014-03-13T09:47:34Z</time>
      </trkpt>
      <trkpt lat="42.84567" lon="-0.25603">
        <ele>2012.5260009766</ele>
        <time>2014-03-13T09:47:47Z</time>
      </trkpt>
      <trkpt lat="42.84559" lon="-0.25592">
        <ele>2010.3220214844</ele>
        <time>2014-03-13T09:47:56Z</time>
      </trkpt>
      <trkpt lat="42.84542" lon="-0.2559">
        <ele>2008.9930419922</ele>
        <time>2014-03-13T09:48:08Z</time>
      </trkpt>
      <trkpt lat="42.84535" lon="-0.25591">
        <ele>2006.2060546875</ele>
        <time>2014-03-13T09:48:12Z</time>
      </trkpt>
      <trkpt lat="42.84532" lon="-0.25592">
        <ele>2005.7270507812</ele>
        <time>2014-03-13T09:48:13Z</time>
      </trkpt>
      <trkpt lat="42.84509" lon="-0.2559">
        <ele>2004.5450439453</ele>
        <time>2014-03-13T09:48:28Z</time>
      </trkpt>
      <trkpt lat="42.84508" lon="-0.25589">
        <ele>2004.6650390625</ele>
        <time>2014-03-13T09:48:30Z</time>
      </trkpt>
      <trkpt lat="42.84505" lon="-0.25588">
        <ele>2004.8520507812</ele>
        <time>2014-03-13T09:48:33Z</time>
      </trkpt>
      <trkpt lat="42.84489" lon="-0.25585">
        <ele>2006.4770507812</ele>
        <time>2014-03-13T09:48:50Z</time>
      </trkpt>
      <trkpt lat="42.84474" lon="-0.25575">
        <ele>2008.5040283203</ele>
        <time>2014-03-13T09:49:10Z</time>
      </trkpt>
      <trkpt lat="42.8447" lon="-0.25573">
        <ele>2009.7440185547</ele>
        <time>2014-03-13T09:49:15Z</time>
      </trkpt>
      <trkpt lat="42.8446" lon="-0.25572">
        <ele>2012.3129882812</ele>
        <time>2014-03-13T09:49:26Z</time>
      </trkpt>
      <trkpt lat="42.84458" lon="-0.25571">
        <ele>2011.8800048828</ele>
        <time>2014-03-13T09:49:29Z</time>
      </trkpt>
      <trkpt lat="42.84451" lon="-0.25573">
        <ele>2012.1750488281</ele>
        <time>2014-03-13T09:49:35Z</time>
      </trkpt>
      <trkpt lat="42.84434" lon="-0.25562">
        <ele>2012.7629394531</ele>
        <time>2014-03-13T09:49:53Z</time>
      </trkpt>
      <trkpt lat="42.84428" lon="-0.25555">
        <ele>2009.9370117188</ele>
        <time>2014-03-13T09:49:57Z</time>
      </trkpt>
      <trkpt lat="42.84422" lon="-0.25554">
        <ele>2008.3349609375</ele>
        <time>2014-03-13T09:49:59Z</time>
      </trkpt>
      <trkpt lat="42.84418" lon="-0.25558">
        <ele>2006.3580322266</ele>
        <time>2014-03-13T09:50:01Z</time>
      </trkpt>
      <trkpt lat="42.84416" lon="-0.25558">
        <ele>2006.3470458984</ele>
        <time>2014-03-13T09:50:02Z</time>
      </trkpt>
      <trkpt lat="42.8441" lon="-0.25558">
        <ele>2006.2130126953</ele>
        <time>2014-03-13T09:50:06Z</time>
      </trkpt>
      <trkpt lat="42.84393" lon="-0.2557">
        <ele>2005.6710205078</ele>
        <time>2014-03-13T09:50:24Z</time>
      </trkpt>
      <trkpt lat="42.84374" lon="-0.25568">
        <ele>2006.9539794922</ele>
        <time>2014-03-13T09:50:42Z</time>
      </trkpt>
      <trkpt lat="42.84355" lon="-0.25562">
        <ele>2006.4840087891</ele>
        <time>2014-03-13T09:51:02Z</time>
      </trkpt>
      <trkpt lat="42.84354" lon="-0.25555">
        <ele>2007.8890380859</ele>
        <time>2014-03-13T09:51:33Z</time>
      </trkpt>
      <trkpt lat="42.8434" lon="-0.25558">
        <ele>2010.0069580078</ele>
        <time>2014-03-13T09:54:20Z</time>
      </trkpt>
      <trkpt lat="42.84328" lon="-0.25552">
        <ele>2013.0090332031</ele>
        <time>2014-03-13T09:54:42Z</time>
      </trkpt>
      <trkpt lat="42.843" lon="-0.25547">
        <ele>2014.2650146484</ele>
        <time>2014-03-13T09:55:10Z</time>
      </trkpt>
      <trkpt lat="42.84289" lon="-0.25537">
        <ele>2015.9599609375</ele>
        <time>2014-03-13T09:55:25Z</time>
      </trkpt>
      <trkpt lat="42.8427" lon="-0.25534">
        <ele>2014.9129638672</ele>
        <time>2014-03-13T09:55:45Z</time>
      </trkpt>
      <trkpt lat="42.84242" lon="-0.25537">
        <ele>2014.2559814453</ele>
        <time>2014-03-13T09:56:11Z</time>
      </trkpt>
      <trkpt lat="42.84226" lon="-0.25534">
        <ele>2013.0159912109</ele>
        <time>2014-03-13T09:56:27Z</time>
      </trkpt>
      <trkpt lat="42.84214" lon="-0.25534">
        <ele>2013.9780273438</ele>
        <time>2014-03-13T09:56:38Z</time>
      </trkpt>
      <trkpt lat="42.84192" lon="-0.25538">
        <ele>2011.2330322266</ele>
        <time>2014-03-13T09:57:00Z</time>
      </trkpt>
      <trkpt lat="42.84172" lon="-0.25539">
        <ele>2011.29296875</ele>
        <time>2014-03-13T09:57:19Z</time>
      </trkpt>
      <trkpt lat="42.84155" lon="-0.25538">
        <ele>2008.7249755859</ele>
        <time>2014-03-13T09:57:32Z</time>
      </trkpt>
      <trkpt lat="42.84143" lon="-0.25537">
        <ele>2009.1419677734</ele>
        <time>2014-03-13T09:57:47Z</time>
      </trkpt>
      <trkpt lat="42.84132" lon="-0.25538">
        <ele>2007.9909667969</ele>
        <time>2014-03-13T09:57:58Z</time>
      </trkpt>
      <trkpt lat="42.84114" lon="-0.25539">
        <ele>2009.9530029297</ele>
        <time>2014-03-13T09:58:19Z</time>
      </trkpt>
      <trkpt lat="42.84097" lon="-0.25542">
        <ele>2010.5340576172</ele>
        <time>2014-03-13T09:58:37Z</time>
      </trkpt>
      <trkpt lat="42.84084" lon="-0.25541">
        <ele>2011.4410400391</ele>
        <time>2014-03-13T09:58:54Z</time>
      </trkpt>
      <trkpt lat="42.84077" lon="-0.25537">
        <ele>2011.5379638672</ele>
        <time>2014-03-13T09:59:07Z</time>
      </trkpt>
      <trkpt lat="42.84073" lon="-0.25539">
        <ele>2013.6190185547</ele>
        <time>2014-03-13T09:59:10Z</time>
      </trkpt>
      <trkpt lat="42.84053" lon="-0.2554">
        <ele>2013.3280029297</ele>
        <time>2014-03-13T09:59:32Z</time>
      </trkpt>
      <trkpt lat="42.84041" lon="-0.2554">
        <ele>2015.0500488281</ele>
        <time>2014-03-13T09:59:45Z</time>
      </trkpt>
      <trkpt lat="42.84024" lon="-0.25534">
        <ele>2014.8780517578</ele>
        <time>2014-03-13T10:00:08Z</time>
      </trkpt>
      <trkpt lat="42.84012" lon="-0.25526">
        <ele>2013.9749755859</ele>
        <time>2014-03-13T10:00:24Z</time>
      </trkpt>
      <trkpt lat="42.84006" lon="-0.25523">
        <ele>2016.001953125</ele>
        <time>2014-03-13T10:00:33Z</time>
      </trkpt>
      <trkpt lat="42.83982" lon="-0.25515">
        <ele>2015.3260498047</ele>
        <time>2014-03-13T10:01:00Z</time>
      </trkpt>
      <trkpt lat="42.83961" lon="-0.2551">
        <ele>2016.2869873047</ele>
        <time>2014-03-13T10:01:26Z</time>
      </trkpt>
      <trkpt lat="42.83938" lon="-0.25518">
        <ele>2017.8010253906</ele>
        <time>2014-03-13T10:01:55Z</time>
      </trkpt>
      <trkpt lat="42.83931" lon="-0.25521">
        <ele>2019.6419677734</ele>
        <time>2014-03-13T10:02:04Z</time>
      </trkpt>
      <trkpt lat="42.8391" lon="-0.25516">
        <ele>2021.8990478516</ele>
        <time>2014-03-13T10:02:33Z</time>
      </trkpt>
      <trkpt lat="42.8389" lon="-0.25509">
        <ele>2023.833984375</ele>
        <time>2014-03-13T10:02:59Z</time>
      </trkpt>
      <trkpt lat="42.83869" lon="-0.25495">
        <ele>2024.5989990234</ele>
        <time>2014-03-13T10:03:30Z</time>
      </trkpt>
      <trkpt lat="42.83843" lon="-0.25492">
        <ele>2026.0539550781</ele>
        <time>2014-03-13T10:03:57Z</time>
      </trkpt>
      <trkpt lat="42.83826" lon="-0.255">
        <ele>2026.5069580078</ele>
        <time>2014-03-13T10:04:20Z</time>
      </trkpt>
      <trkpt lat="42.83807" lon="-0.25506">
        <ele>2029.6789550781</ele>
        <time>2014-03-13T10:04:44Z</time>
      </trkpt>
      <trkpt lat="42.83791" lon="-0.25508">
        <ele>2029.6729736328</ele>
        <time>2014-03-13T10:05:04Z</time>
      </trkpt>
      <trkpt lat="42.83788" lon="-0.25509">
        <ele>2028.9689941406</ele>
        <time>2014-03-13T10:05:08Z</time>
      </trkpt>
      <trkpt lat="42.83772" lon="-0.25512">
        <ele>2030.2390136719</ele>
        <time>2014-03-13T10:05:29Z</time>
      </trkpt>
      <trkpt lat="42.83755" lon="-0.25521">
        <ele>2031.7619628906</ele>
        <time>2014-03-13T10:05:55Z</time>
      </trkpt>
      <trkpt lat="42.83746" lon="-0.25523">
        <ele>2034.7819824219</ele>
        <time>2014-03-13T10:06:17Z</time>
      </trkpt>
      <trkpt lat="42.8374" lon="-0.25521">
        <ele>2035.7760009766</ele>
        <time>2014-03-13T10:06:48Z</time>
      </trkpt>
      <trkpt lat="42.83739" lon="-0.25521">
        <ele>2036.5510253906</ele>
        <time>2014-03-13T10:06:53Z</time>
      </trkpt>
      <trkpt lat="42.83735" lon="-0.2552">
        <ele>2039.6870117188</ele>
        <time>2014-03-13T10:11:00Z</time>
      </trkpt>
      <trkpt lat="42.83735" lon="-0.2552">
        <ele>2039.3430175781</ele>
        <time>2014-03-13T10:11:24Z</time>
      </trkpt>
      <trkpt lat="42.83734" lon="-0.2551">
        <ele>2042.5810546875</ele>
        <time>2014-03-13T10:11:41Z</time>
      </trkpt>
      <trkpt lat="42.8373" lon="-0.2551">
        <ele>2045.125</ele>
        <time>2014-03-13T10:12:03Z</time>
      </trkpt>
      <trkpt lat="42.83723" lon="-0.25517">
        <ele>2047.8310546875</ele>
        <time>2014-03-13T10:12:15Z</time>
      </trkpt>
      <trkpt lat="42.83709" lon="-0.25537">
        <ele>2051.1149902344</ele>
        <time>2014-03-13T10:12:44Z</time>
      </trkpt>
      <trkpt lat="42.83692" lon="-0.25545">
        <ele>2052.4150390625</ele>
        <time>2014-03-13T10:13:10Z</time>
      </trkpt>
      <trkpt lat="42.8369" lon="-0.25543">
        <ele>2055.3310546875</ele>
        <time>2014-03-13T10:13:13Z</time>
      </trkpt>
      <trkpt lat="42.83681" lon="-0.25539">
        <ele>2052.95703125</ele>
        <time>2014-03-13T10:13:27Z</time>
      </trkpt>
      <trkpt lat="42.83677" lon="-0.25539">
        <ele>2056.1508789062</ele>
        <time>2014-03-13T10:13:32Z</time>
      </trkpt>
      <trkpt lat="42.83677" lon="-0.2554">
        <ele>2055.7770996094</ele>
        <time>2014-03-13T10:13:33Z</time>
      </trkpt>
      <trkpt lat="42.83665" lon="-0.25541">
        <ele>2058.2858886719</ele>
        <time>2014-03-13T10:13:52Z</time>
      </trkpt>
      <trkpt lat="42.83649" lon="-0.2554">
        <ele>2061.751953125</ele>
        <time>2014-03-13T10:14:21Z</time>
      </trkpt>
      <trkpt lat="42.83634" lon="-0.25547">
        <ele>2064.8059082031</ele>
        <time>2014-03-13T10:14:47Z</time>
      </trkpt>
      <trkpt lat="42.83625" lon="-0.25546">
        <ele>2067.9289550781</ele>
        <time>2014-03-13T10:15:05Z</time>
      </trkpt>
      <trkpt lat="42.83607" lon="-0.25538">
        <ele>2071.3720703125</ele>
        <time>2014-03-13T10:15:37Z</time>
      </trkpt>
      <trkpt lat="42.83597" lon="-0.25533">
        <ele>2071.7900390625</ele>
        <time>2014-03-13T10:15:57Z</time>
      </trkpt>
      <trkpt lat="42.83594" lon="-0.25531">
        <ele>2073.4340820312</ele>
        <time>2014-03-13T10:16:04Z</time>
      </trkpt>
      <trkpt lat="42.83585" lon="-0.2553">
        <ele>2074.3659667969</ele>
        <time>2014-03-13T10:16:16Z</time>
      </trkpt>
      <trkpt lat="42.83563" lon="-0.25534">
        <ele>2073.8349609375</ele>
        <time>2014-03-13T10:16:47Z</time>
      </trkpt>
      <trkpt lat="42.83553" lon="-0.2553">
        <ele>2075.2319335938</ele>
        <time>2014-03-13T10:17:00Z</time>
      </trkpt>
      <trkpt lat="42.8355" lon="-0.25532">
        <ele>2076.2758789062</ele>
        <time>2014-03-13T10:17:04Z</time>
      </trkpt>
      <trkpt lat="42.8353" lon="-0.25538">
        <ele>2078.2338867188</ele>
        <time>2014-03-13T10:17:32Z</time>
      </trkpt>
      <trkpt lat="42.83522" lon="-0.25537">
        <ele>2078.1069335938</ele>
        <time>2014-03-13T10:17:44Z</time>
      </trkpt>
      <trkpt lat="42.83503" lon="-0.25539">
        <ele>2081.3020019531</ele>
        <time>2014-03-13T10:18:13Z</time>
      </trkpt>
      <trkpt lat="42.83479" lon="-0.25544">
        <ele>2083.6240234375</ele>
        <time>2014-03-13T10:18:47Z</time>
      </trkpt>
      <trkpt lat="42.83462" lon="-0.25552">
        <ele>2085.1069335938</ele>
        <time>2014-03-13T10:19:15Z</time>
      </trkpt>
      <trkpt lat="42.83447" lon="-0.2556">
        <ele>2088.5979003906</ele>
        <time>2014-03-13T10:19:41Z</time>
      </trkpt>
      <trkpt lat="42.83447" lon="-0.2556">
        <ele>2088.5991210938</ele>
        <time>2014-03-13T10:19:42Z</time>
      </trkpt>
      <trkpt lat="42.83423" lon="-0.25573">
        <ele>2089.9360351562</ele>
        <time>2014-03-13T10:20:13Z</time>
      </trkpt>
      <trkpt lat="42.83408" lon="-0.25582">
        <ele>2091.9670410156</ele>
        <time>2014-03-13T10:20:40Z</time>
      </trkpt>
      <trkpt lat="42.83391" lon="-0.25588">
        <ele>2094.2561035156</ele>
        <time>2014-03-13T10:21:04Z</time>
      </trkpt>
      <trkpt lat="42.83371" lon="-0.25607">
        <ele>2095.5900878906</ele>
        <time>2014-03-13T10:21:31Z</time>
      </trkpt>
      <trkpt lat="42.83361" lon="-0.2561">
        <ele>2098.9680175781</ele>
        <time>2014-03-13T10:21:53Z</time>
      </trkpt>
      <trkpt lat="42.83357" lon="-0.25616">
        <ele>2099.3811035156</ele>
        <time>2014-03-13T10:22:40Z</time>
      </trkpt>
      <trkpt lat="42.8334" lon="-0.25634">
        <ele>2098.9709472656</ele>
        <time>2014-03-13T10:23:04Z</time>
      </trkpt>
      <trkpt lat="42.83333" lon="-0.25657">
        <ele>2095.6040039062</ele>
        <time>2014-03-13T10:23:21Z</time>
      </trkpt>
      <trkpt lat="42.83329" lon="-0.25676">
        <ele>2093.6088867188</ele>
        <time>2014-03-13T10:23:29Z</time>
      </trkpt>
      <trkpt lat="42.83316" lon="-0.25697">
        <ele>2092.6950683594</ele>
        <time>2014-03-13T10:23:49Z</time>
      </trkpt>
      <trkpt lat="42.83303" lon="-0.25717">
        <ele>2090.6918945312</ele>
        <time>2014-03-13T10:24:10Z</time>
      </trkpt>
      <trkpt lat="42.83287" lon="-0.25738">
        <ele>2092.1359863281</ele>
        <time>2014-03-13T10:24:33Z</time>
      </trkpt>
      <trkpt lat="42.83273" lon="-0.25757">
        <ele>2091.7719726562</ele>
        <time>2014-03-13T10:24:52Z</time>
      </trkpt>
      <trkpt lat="42.83272" lon="-0.25763">
        <ele>2089.9470214844</ele>
        <time>2014-03-13T10:24:54Z</time>
      </trkpt>
      <trkpt lat="42.8327" lon="-0.25777">
        <ele>2087.1708984375</ele>
        <time>2014-03-13T10:24:57Z</time>
      </trkpt>
      <trkpt lat="42.83266" lon="-0.25796">
        <ele>2084.0749511719</ele>
        <time>2014-03-13T10:25:05Z</time>
      </trkpt>
      <trkpt lat="42.83253" lon="-0.25816">
        <ele>2084.2670898438</ele>
        <time>2014-03-13T10:25:26Z</time>
      </trkpt>
      <trkpt lat="42.8324" lon="-0.25827">
        <ele>2085.8701171875</ele>
        <time>2014-03-13T10:25:44Z</time>
      </trkpt>
      <trkpt lat="42.83229" lon="-0.25839">
        <ele>2087.333984375</ele>
        <time>2014-03-13T10:25:59Z</time>
      </trkpt>
      <trkpt lat="42.83223" lon="-0.25844">
        <ele>2087.4289550781</ele>
        <time>2014-03-13T10:26:06Z</time>
      </trkpt>
      <trkpt lat="42.83208" lon="-0.25848">
        <ele>2089.0209960938</ele>
        <time>2014-03-13T10:26:24Z</time>
      </trkpt>
      <trkpt lat="42.83192" lon="-0.25859">
        <ele>2088.99609375</ele>
        <time>2014-03-13T10:26:44Z</time>
      </trkpt>
      <trkpt lat="42.8319" lon="-0.25861">
        <ele>2090.5329589844</ele>
        <time>2014-03-13T10:26:48Z</time>
      </trkpt>
      <trkpt lat="42.83171" lon="-0.25875">
        <ele>2094.0659179688</ele>
        <time>2014-03-13T10:27:17Z</time>
      </trkpt>
      <trkpt lat="42.83169" lon="-0.25877">
        <ele>2095.2338867188</ele>
        <time>2014-03-13T10:27:23Z</time>
      </trkpt>
      <trkpt lat="42.83163" lon="-0.25884">
        <ele>2095.58203125</ele>
        <time>2014-03-13T10:27:41Z</time>
      </trkpt>
      <trkpt lat="42.8316" lon="-0.25883">
        <ele>2097.5568847656</ele>
        <time>2014-03-13T10:27:48Z</time>
      </trkpt>
      <trkpt lat="42.83159" lon="-0.25882">
        <ele>2098.7839355469</ele>
        <time>2014-03-13T10:27:50Z</time>
      </trkpt>
      <trkpt lat="42.83156" lon="-0.25875">
        <ele>2101.8100585938</ele>
        <time>2014-03-13T10:27:58Z</time>
      </trkpt>
      <trkpt lat="42.83148" lon="-0.25864">
        <ele>2105.123046875</ele>
        <time>2014-03-13T10:28:22Z</time>
      </trkpt>
      <trkpt lat="42.83147" lon="-0.25864">
        <ele>2103.6599121094</ele>
        <time>2014-03-13T10:28:27Z</time>
      </trkpt>
      <trkpt lat="42.83135" lon="-0.2588">
        <ele>2106.4130859375</ele>
        <time>2014-03-13T10:28:56Z</time>
      </trkpt>
      <trkpt lat="42.83134" lon="-0.25882">
        <ele>2107.7109375</ele>
        <time>2014-03-13T10:29:00Z</time>
      </trkpt>
      <trkpt lat="42.83133" lon="-0.25888">
        <ele>2108.95703125</ele>
        <time>2014-03-13T10:29:09Z</time>
      </trkpt>
      <trkpt lat="42.83132" lon="-0.25887">
        <ele>2108.6320800781</ele>
        <time>2014-03-13T10:29:14Z</time>
      </trkpt>
      <trkpt lat="42.83132" lon="-0.25887">
        <ele>2110.5471191406</ele>
        <time>2014-03-13T10:29:41Z</time>
      </trkpt>
      <trkpt lat="42.83132" lon="-0.25886">
        <ele>2111.4541015625</ele>
        <time>2014-03-13T10:29:51Z</time>
      </trkpt>
      <trkpt lat="42.83126" lon="-0.25872">
        <ele>2112.8068847656</ele>
        <time>2014-03-13T10:30:09Z</time>
      </trkpt>
      <trkpt lat="42.83125" lon="-0.25867">
        <ele>2114.3840332031</ele>
        <time>2014-03-13T10:30:14Z</time>
      </trkpt>
      <trkpt lat="42.83124" lon="-0.25866">
        <ele>2113.2770996094</ele>
        <time>2014-03-13T10:30:19Z</time>
      </trkpt>
      <trkpt lat="42.83118" lon="-0.25874">
        <ele>2113.9790039062</ele>
        <time>2014-03-13T10:30:32Z</time>
      </trkpt>
      <trkpt lat="42.83114" lon="-0.25884">
        <ele>2117.2019042969</ele>
        <time>2014-03-13T10:30:45Z</time>
      </trkpt>
      <trkpt lat="42.83112" lon="-0.25885">
        <ele>2118.0239257812</ele>
        <time>2014-03-13T10:30:55Z</time>
      </trkpt>
      <trkpt lat="42.83104" lon="-0.25874">
        <ele>2119.9108886719</ele>
        <time>2014-03-13T10:31:11Z</time>
      </trkpt>
      <trkpt lat="42.83099" lon="-0.2586">
        <ele>2123.7819824219</ele>
        <time>2014-03-13T10:31:31Z</time>
      </trkpt>
      <trkpt lat="42.83099" lon="-0.25859">
        <ele>2123.7819824219</ele>
        <time>2014-03-13T10:31:32Z</time>
      </trkpt>
      <trkpt lat="42.831" lon="-0.25857">
        <ele>2122.9719238281</ele>
        <time>2014-03-13T10:31:40Z</time>
      </trkpt>
      <trkpt lat="42.83099" lon="-0.25858">
        <ele>2121.6831054688</ele>
        <time>2014-03-13T10:31:42Z</time>
      </trkpt>
      <trkpt lat="42.83098" lon="-0.25858">
        <ele>2120.2980957031</ele>
        <time>2014-03-13T10:31:44Z</time>
      </trkpt>
      <trkpt lat="42.83088" lon="-0.25863">
        <ele>2123.4760742188</ele>
        <time>2014-03-13T10:31:59Z</time>
      </trkpt>
      <trkpt lat="42.83087" lon="-0.25864">
        <ele>2123.4780273438</ele>
        <time>2014-03-13T10:32:00Z</time>
      </trkpt>
      <trkpt lat="42.83086" lon="-0.25866">
        <ele>2124.7648925781</ele>
        <time>2014-03-13T10:32:03Z</time>
      </trkpt>
      <trkpt lat="42.83084" lon="-0.25871">
        <ele>2128.1760253906</ele>
        <time>2014-03-13T10:32:13Z</time>
      </trkpt>
      <trkpt lat="42.83083" lon="-0.25873">
        <ele>2126.9431152344</ele>
        <time>2014-03-13T10:32:16Z</time>
      </trkpt>
      <trkpt lat="42.83079" lon="-0.25883">
        <ele>2129.9030761719</ele>
        <time>2014-03-13T10:32:39Z</time>
      </trkpt>
      <trkpt lat="42.83069" lon="-0.25873">
        <ele>2132.5690917969</ele>
        <time>2014-03-13T10:32:57Z</time>
      </trkpt>
      <trkpt lat="42.83059" lon="-0.25855">
        <ele>2135.5190429688</ele>
        <time>2014-03-13T10:33:27Z</time>
      </trkpt>
      <trkpt lat="42.83057" lon="-0.25848">
        <ele>2138.7680664062</ele>
        <time>2014-03-13T10:33:34Z</time>
      </trkpt>
      <trkpt lat="42.83057" lon="-0.25847">
        <ele>2138.7690429688</ele>
        <time>2014-03-13T10:33:35Z</time>
      </trkpt>
      <trkpt lat="42.83056" lon="-0.2584">
        <ele>2136.0148925781</ele>
        <time>2014-03-13T10:33:52Z</time>
      </trkpt>
      <trkpt lat="42.83044" lon="-0.25842">
        <ele>2139.2600097656</ele>
        <time>2014-03-13T10:34:07Z</time>
      </trkpt>
      <trkpt lat="42.8303" lon="-0.25848">
        <ele>2142.6860351562</ele>
        <time>2014-03-13T10:34:32Z</time>
      </trkpt>
      <trkpt lat="42.83027" lon="-0.25858">
        <ele>2145.7980957031</ele>
        <time>2014-03-13T10:34:46Z</time>
      </trkpt>
      <trkpt lat="42.83027" lon="-0.25861">
        <ele>2147.0639648438</ele>
        <time>2014-03-13T10:34:49Z</time>
      </trkpt>
      <trkpt lat="42.83024" lon="-0.25874">
        <ele>2147.1960449219</ele>
        <time>2014-03-13T10:35:06Z</time>
      </trkpt>
      <trkpt lat="42.83023" lon="-0.25873">
        <ele>2145.7141113281</ele>
        <time>2014-03-13T10:35:08Z</time>
      </trkpt>
      <trkpt lat="42.83012" lon="-0.25863">
        <ele>2149.50390625</ele>
        <time>2014-03-13T10:35:30Z</time>
      </trkpt>
      <trkpt lat="42.83011" lon="-0.25863">
        <ele>2149.5080566406</ele>
        <time>2014-03-13T10:35:31Z</time>
      </trkpt>
      <trkpt lat="42.83001" lon="-0.25851">
        <ele>2152.8420410156</ele>
        <time>2014-03-13T10:35:55Z</time>
      </trkpt>
      <trkpt lat="42.82989" lon="-0.25858">
        <ele>2156.1440429688</ele>
        <time>2014-03-13T10:36:18Z</time>
      </trkpt>
      <trkpt lat="42.82982" lon="-0.25852">
        <ele>2157.3510742188</ele>
        <time>2014-03-13T10:36:34Z</time>
      </trkpt>
      <trkpt lat="42.8298" lon="-0.25852">
        <ele>2158.8701171875</ele>
        <time>2014-03-13T10:36:38Z</time>
      </trkpt>
      <trkpt lat="42.82967" lon="-0.25851">
        <ele>2161.169921875</ele>
        <time>2014-03-13T10:37:06Z</time>
      </trkpt>
      <trkpt lat="42.82954" lon="-0.25859">
        <ele>2164.9660644531</ele>
        <time>2014-03-13T10:37:30Z</time>
      </trkpt>
      <trkpt lat="42.82935" lon="-0.25853">
        <ele>2168.0690917969</ele>
        <time>2014-03-13T10:38:03Z</time>
      </trkpt>
      <trkpt lat="42.82924" lon="-0.25851">
        <ele>2170.5119628906</ele>
        <time>2014-03-13T10:38:29Z</time>
      </trkpt>
      <trkpt lat="42.82919" lon="-0.25861">
        <ele>2174.0759277344</ele>
        <time>2014-03-13T10:38:47Z</time>
      </trkpt>
      <trkpt lat="42.82916" lon="-0.25865">
        <ele>2175.8400878906</ele>
        <time>2014-03-13T10:38:53Z</time>
      </trkpt>
      <trkpt lat="42.82913" lon="-0.25865">
        <ele>2173.6398925781</ele>
        <time>2014-03-13T10:38:57Z</time>
      </trkpt>
      <trkpt lat="42.82909" lon="-0.25854">
        <ele>2177.3879394531</ele>
        <time>2014-03-13T10:39:10Z</time>
      </trkpt>
      <trkpt lat="42.82909" lon="-0.25853">
        <ele>2177.3889160156</ele>
        <time>2014-03-13T10:39:11Z</time>
      </trkpt>
      <trkpt lat="42.82906" lon="-0.25849">
        <ele>2178.2990722656</ele>
        <time>2014-03-13T10:39:16Z</time>
      </trkpt>
      <trkpt lat="42.82901" lon="-0.25857">
        <ele>2180.8569335938</ele>
        <time>2014-03-13T10:39:33Z</time>
      </trkpt>
      <trkpt lat="42.82899" lon="-0.25859">
        <ele>2179.5649414062</ele>
        <time>2014-03-13T10:39:36Z</time>
      </trkpt>
      <trkpt lat="42.82896" lon="-0.25855">
        <ele>2180.3139648438</ele>
        <time>2014-03-13T10:39:44Z</time>
      </trkpt>
      <trkpt lat="42.82888" lon="-0.25845">
        <ele>2183.3439941406</ele>
        <time>2014-03-13T10:40:03Z</time>
      </trkpt>
      <trkpt lat="42.82874" lon="-0.25847">
        <ele>2186.8081054688</ele>
        <time>2014-03-13T10:40:27Z</time>
      </trkpt>
      <trkpt lat="42.82855" lon="-0.25859">
        <ele>2188.7749023438</ele>
        <time>2014-03-13T10:40:57Z</time>
      </trkpt>
      <trkpt lat="42.82837" lon="-0.25858">
        <ele>2191.9509277344</ele>
        <time>2014-03-13T10:41:27Z</time>
      </trkpt>
      <trkpt lat="42.82827" lon="-0.25856">
        <ele>2194.583984375</ele>
        <time>2014-03-13T10:41:44Z</time>
      </trkpt>
      <trkpt lat="42.82816" lon="-0.25856">
        <ele>2197.876953125</ele>
        <time>2014-03-13T10:42:06Z</time>
      </trkpt>
      <trkpt lat="42.82799" lon="-0.25852">
        <ele>2201.4580078125</ele>
        <time>2014-03-13T10:42:39Z</time>
      </trkpt>
      <trkpt lat="42.82786" lon="-0.2585">
        <ele>2204.6379394531</ele>
        <time>2014-03-13T10:43:11Z</time>
      </trkpt>
      <trkpt lat="42.82785" lon="-0.2585">
        <ele>2204.6359863281</ele>
        <time>2014-03-13T10:43:12Z</time>
      </trkpt>
      <trkpt lat="42.82784" lon="-0.2585">
        <ele>2203.3579101562</ele>
        <time>2014-03-13T10:43:14Z</time>
      </trkpt>
      <trkpt lat="42.82767" lon="-0.2585">
        <ele>2205.4909667969</ele>
        <time>2014-03-13T10:43:37Z</time>
      </trkpt>
      <trkpt lat="42.82759" lon="-0.25849">
        <ele>2206.7919921875</ele>
        <time>2014-03-13T10:43:48Z</time>
      </trkpt>
      <trkpt lat="42.82748" lon="-0.25852">
        <ele>2209.33203125</ele>
        <time>2014-03-13T10:44:03Z</time>
      </trkpt>
      <trkpt lat="42.8274" lon="-0.25858">
        <ele>2210.9069824219</ele>
        <time>2014-03-13T10:44:17Z</time>
      </trkpt>
      <trkpt lat="42.82722" lon="-0.25866">
        <ele>2211.2729492188</ele>
        <time>2014-03-13T10:44:43Z</time>
      </trkpt>
      <trkpt lat="42.82722" lon="-0.25866">
        <ele>2214.6440429688</ele>
        <time>2014-03-13T10:44:53Z</time>
      </trkpt>
      <trkpt lat="42.82722" lon="-0.25866">
        <ele>2214.6430664062</ele>
        <time>2014-03-13T10:44:54Z</time>
      </trkpt>
      <trkpt lat="42.827" lon="-0.25848">
        <ele>2214.4489746094</ele>
        <time>2014-03-13T10:56:12Z</time>
      </trkpt>
      <trkpt lat="42.82692" lon="-0.25844">
        <ele>2217.6059570312</ele>
        <time>2014-03-13T10:56:25Z</time>
      </trkpt>
      <trkpt lat="42.82688" lon="-0.25839">
        <ele>2220.24609375</ele>
        <time>2014-03-13T10:56:35Z</time>
      </trkpt>
      <trkpt lat="42.82688" lon="-0.25839">
        <ele>2221.5729980469</ele>
        <time>2014-03-13T10:56:37Z</time>
      </trkpt>
      <trkpt lat="42.82682" lon="-0.25836">
        <ele>2221.4169921875</ele>
        <time>2014-03-13T10:56:49Z</time>
      </trkpt>
      <trkpt lat="42.82678" lon="-0.25838">
        <ele>2222.9150390625</ele>
        <time>2014-03-13T10:56:55Z</time>
      </trkpt>
      <trkpt lat="42.82671" lon="-0.25841">
        <ele>2223.623046875</ele>
        <time>2014-03-13T10:57:11Z</time>
      </trkpt>
      <trkpt lat="42.82665" lon="-0.25839">
        <ele>2226.2209472656</ele>
        <time>2014-03-13T10:57:24Z</time>
      </trkpt>
      <trkpt lat="42.82655" lon="-0.2584">
        <ele>2228.8149414062</ele>
        <time>2014-03-13T10:57:38Z</time>
      </trkpt>
      <trkpt lat="42.82645" lon="-0.25844">
        <ele>2230.9240722656</ele>
        <time>2014-03-13T10:57:54Z</time>
      </trkpt>
      <trkpt lat="42.82638" lon="-0.25843">
        <ele>2231.7009277344</ele>
        <time>2014-03-13T10:58:07Z</time>
      </trkpt>
      <trkpt lat="42.82627" lon="-0.25838">
        <ele>2234.7919921875</ele>
        <time>2014-03-13T10:58:25Z</time>
      </trkpt>
      <trkpt lat="42.82617" lon="-0.25837">
        <ele>2236.9250488281</ele>
        <time>2014-03-13T10:58:40Z</time>
      </trkpt>
      <trkpt lat="42.82607" lon="-0.25838">
        <ele>2239.0170898438</ele>
        <time>2014-03-13T10:58:54Z</time>
      </trkpt>
      <trkpt lat="42.82598" lon="-0.25834">
        <ele>2239.8759765625</ele>
        <time>2014-03-13T10:59:11Z</time>
      </trkpt>
      <trkpt lat="42.82589" lon="-0.25833">
        <ele>2242.0529785156</ele>
        <time>2014-03-13T10:59:27Z</time>
      </trkpt>
      <trkpt lat="42.82578" lon="-0.25827">
        <ele>2243.8979492188</ele>
        <time>2014-03-13T10:59:53Z</time>
      </trkpt>
      <trkpt lat="42.82569" lon="-0.25823">
        <ele>2247.0290527344</ele>
        <time>2014-03-13T11:00:11Z</time>
      </trkpt>
      <trkpt lat="42.82558" lon="-0.2582">
        <ele>2249.5969238281</ele>
        <time>2014-03-13T11:00:34Z</time>
      </trkpt>
      <trkpt lat="42.82547" lon="-0.25824">
        <ele>2252.2661132812</ele>
        <time>2014-03-13T11:00:55Z</time>
      </trkpt>
      <trkpt lat="42.82539" lon="-0.25827">
        <ele>2254.3479003906</ele>
        <time>2014-03-13T11:01:16Z</time>
      </trkpt>
      <trkpt lat="42.82526" lon="-0.25836">
        <ele>2257.2280273438</ele>
        <time>2014-03-13T11:01:42Z</time>
      </trkpt>
      <trkpt lat="42.82516" lon="-0.25845">
        <ele>2258.958984375</ele>
        <time>2014-03-13T11:01:58Z</time>
      </trkpt>
      <trkpt lat="42.82505" lon="-0.25852">
        <ele>2262.3491210938</ele>
        <time>2014-03-13T11:02:16Z</time>
      </trkpt>
      <trkpt lat="42.82495" lon="-0.25854">
        <ele>2264.7958984375</ele>
        <time>2014-03-13T11:02:33Z</time>
      </trkpt>
      <trkpt lat="42.82492" lon="-0.25854">
        <ele>2266.083984375</ele>
        <time>2014-03-13T11:02:36Z</time>
      </trkpt>
      <trkpt lat="42.8249" lon="-0.25849">
        <ele>2268.875</ele>
        <time>2014-03-13T11:02:45Z</time>
      </trkpt>
      <trkpt lat="42.82491" lon="-0.25846">
        <ele>2270.1340332031</ele>
        <time>2014-03-13T11:02:47Z</time>
      </trkpt>
      <trkpt lat="42.82492" lon="-0.25843">
        <ele>2271.2670898438</ele>
        <time>2014-03-13T11:02:49Z</time>
      </trkpt>
      <trkpt lat="42.82498" lon="-0.25821">
        <ele>2274.6831054688</ele>
        <time>2014-03-13T11:03:09Z</time>
      </trkpt>
      <trkpt lat="42.82499" lon="-0.25814">
        <ele>2273.375</ele>
        <time>2014-03-13T11:03:27Z</time>
      </trkpt>
      <trkpt lat="42.82489" lon="-0.25817">
        <ele>2276.4309082031</ele>
        <time>2014-03-13T11:03:44Z</time>
      </trkpt>
      <trkpt lat="42.82477" lon="-0.2582">
        <ele>2279.4331054688</ele>
        <time>2014-03-13T11:04:07Z</time>
      </trkpt>
      <trkpt lat="42.82478" lon="-0.25815">
        <ele>2281.1350097656</ele>
        <time>2014-03-13T11:04:10Z</time>
      </trkpt>
      <trkpt lat="42.82484" lon="-0.25804">
        <ele>2282.3369140625</ele>
        <time>2014-03-13T11:04:23Z</time>
      </trkpt>
      <trkpt lat="42.82487" lon="-0.25792">
        <ele>2284.2429199219</ele>
        <time>2014-03-13T11:04:39Z</time>
      </trkpt>
      <trkpt lat="42.82489" lon="-0.25782">
        <ele>2286.62109375</ele>
        <time>2014-03-13T11:05:02Z</time>
      </trkpt>
      <trkpt lat="42.82484" lon="-0.25779">
        <ele>2285.9829101562</ele>
        <time>2014-03-13T11:05:19Z</time>
      </trkpt>
      <trkpt lat="42.82471" lon="-0.25785">
        <ele>2288.9440917969</ele>
        <time>2014-03-13T11:05:38Z</time>
      </trkpt>
      <trkpt lat="42.82469" lon="-0.25784">
        <ele>2291.1010742188</ele>
        <time>2014-03-13T11:05:46Z</time>
      </trkpt>
      <trkpt lat="42.82471" lon="-0.25778">
        <ele>2292.8120117188</ele>
        <time>2014-03-13T11:06:00Z</time>
      </trkpt>
      <trkpt lat="42.82478" lon="-0.25767">
        <ele>2295.2849121094</ele>
        <time>2014-03-13T11:06:15Z</time>
      </trkpt>
      <trkpt lat="42.82482" lon="-0.25759">
        <ele>2297.1799316406</ele>
        <time>2014-03-13T11:06:29Z</time>
      </trkpt>
      <trkpt lat="42.82484" lon="-0.25755">
        <ele>2297.5249023438</ele>
        <time>2014-03-13T11:06:47Z</time>
      </trkpt>
      <trkpt lat="42.82482" lon="-0.25757">
        <ele>2296.2189941406</ele>
        <time>2014-03-13T11:06:50Z</time>
      </trkpt>
      <trkpt lat="42.82474" lon="-0.25758">
        <ele>2298.2971191406</ele>
        <time>2014-03-13T11:07:00Z</time>
      </trkpt>
      <trkpt lat="42.82464" lon="-0.25759">
        <ele>2300.3059082031</ele>
        <time>2014-03-13T11:07:21Z</time>
      </trkpt>
      <trkpt lat="42.82469" lon="-0.25751">
        <ele>2303.7590332031</ele>
        <time>2014-03-13T11:07:33Z</time>
      </trkpt>
      <trkpt lat="42.82479" lon="-0.25738">
        <ele>2306.0300292969</ele>
        <time>2014-03-13T11:07:54Z</time>
      </trkpt>
      <trkpt lat="42.82486" lon="-0.25729">
        <ele>2308.9409179688</ele>
        <time>2014-03-13T11:08:15Z</time>
      </trkpt>
      <trkpt lat="42.82484" lon="-0.2573">
        <ele>2307.6740722656</ele>
        <time>2014-03-13T11:08:30Z</time>
      </trkpt>
      <trkpt lat="42.82472" lon="-0.2573">
        <ele>2309.8930664062</ele>
        <time>2014-03-13T11:08:46Z</time>
      </trkpt>
      <trkpt lat="42.82457" lon="-0.25732">
        <ele>2312.8859863281</ele>
        <time>2014-03-13T11:09:06Z</time>
      </trkpt>
      <trkpt lat="42.82456" lon="-0.25734">
        <ele>2316.5659179688</ele>
        <time>2014-03-13T11:09:24Z</time>
      </trkpt>
      <trkpt lat="42.82465" lon="-0.25723">
        <ele>2318.4741210938</ele>
        <time>2014-03-13T11:09:40Z</time>
      </trkpt>
      <trkpt lat="42.82469" lon="-0.25719">
        <ele>2319.5629882812</ele>
        <time>2014-03-13T11:09:59Z</time>
      </trkpt>
      <trkpt lat="42.8247" lon="-0.25713">
        <ele>2318.7299804688</ele>
        <time>2014-03-13T11:10:12Z</time>
      </trkpt>
      <trkpt lat="42.8246" lon="-0.25714">
        <ele>2320.7849121094</ele>
        <time>2014-03-13T11:10:32Z</time>
      </trkpt>
      <trkpt lat="42.8246" lon="-0.25715">
        <ele>2322.2150878906</ele>
        <time>2014-03-13T11:11:09Z</time>
      </trkpt>
      <trkpt lat="42.8246" lon="-0.25715">
        <ele>2322.208984375</ele>
        <time>2014-03-13T11:11:10Z</time>
      </trkpt>
      <trkpt lat="42.82459" lon="-0.25714">
        <ele>2320.8720703125</ele>
        <time>2014-03-13T11:12:04Z</time>
      </trkpt>
      <trkpt lat="42.8246" lon="-0.25717">
        <ele>2320.4780273438</ele>
        <time>2014-03-13T11:13:55Z</time>
      </trkpt>
      <trkpt lat="42.82453" lon="-0.25726">
        <ele>2320.8029785156</ele>
        <time>2014-03-13T11:15:10Z</time>
      </trkpt>
      <trkpt lat="42.82444" lon="-0.25725">
        <ele>2324.0319824219</ele>
        <time>2014-03-13T11:15:33Z</time>
      </trkpt>
      <trkpt lat="42.82443" lon="-0.25724">
        <ele>2324.0319824219</ele>
        <time>2014-03-13T11:15:34Z</time>
      </trkpt>
      <trkpt lat="42.82451" lon="-0.25704">
        <ele>2327.0739746094</ele>
        <time>2014-03-13T11:15:53Z</time>
      </trkpt>
      <trkpt lat="42.82459" lon="-0.2569">
        <ele>2330.0600585938</ele>
        <time>2014-03-13T11:16:16Z</time>
      </trkpt>
      <trkpt lat="42.82458" lon="-0.25688">
        <ele>2331.5791015625</ele>
        <time>2014-03-13T11:16:40Z</time>
      </trkpt>
      <trkpt lat="42.82446" lon="-0.25692">
        <ele>2334.3989257812</ele>
        <time>2014-03-13T11:16:58Z</time>
      </trkpt>
      <trkpt lat="42.82448" lon="-0.25684">
        <ele>2337.8959960938</ele>
        <time>2014-03-13T11:17:17Z</time>
      </trkpt>
      <trkpt lat="42.82453" lon="-0.25672">
        <ele>2340.5720214844</ele>
        <time>2014-03-13T11:17:32Z</time>
      </trkpt>
      <trkpt lat="42.82464" lon="-0.25659">
        <ele>2341.0830078125</ele>
        <time>2014-03-13T11:17:55Z</time>
      </trkpt>
      <trkpt lat="42.82473" lon="-0.25648">
        <ele>2343.419921875</ele>
        <time>2014-03-13T11:18:16Z</time>
      </trkpt>
      <trkpt lat="42.82486" lon="-0.25645">
        <ele>2344.8850097656</ele>
        <time>2014-03-13T11:18:39Z</time>
      </trkpt>
      <trkpt lat="42.8249" lon="-0.25641">
        <ele>2345.0939941406</ele>
        <time>2014-03-13T11:19:05Z</time>
      </trkpt>
      <trkpt lat="42.82501" lon="-0.25641">
        <ele>2346.4750976562</ele>
        <time>2014-03-13T11:19:29Z</time>
      </trkpt>
      <trkpt lat="42.82514" lon="-0.25641">
        <ele>2349.4890136719</ele>
        <time>2014-03-13T11:19:52Z</time>
      </trkpt>
      <trkpt lat="42.82528" lon="-0.25644">
        <ele>2352.2548828125</ele>
        <time>2014-03-13T11:20:12Z</time>
      </trkpt>
      <trkpt lat="42.8254" lon="-0.25648">
        <ele>2355.2971191406</ele>
        <time>2014-03-13T11:20:27Z</time>
      </trkpt>
      <trkpt lat="42.82541" lon="-0.25648">
        <ele>2355.2099609375</ele>
        <time>2014-03-13T11:20:39Z</time>
      </trkpt>
      <trkpt lat="42.82543" lon="-0.25648">
        <ele>2356.7739257812</ele>
        <time>2014-03-13T11:20:42Z</time>
      </trkpt>
      <trkpt lat="42.82543" lon="-0.25648">
        <ele>2355.287109375</ele>
        <time>2014-03-13T11:20:44Z</time>
      </trkpt>
      <trkpt lat="42.82547" lon="-0.25643">
        <ele>2357.4060058594</ele>
        <time>2014-03-13T11:21:14Z</time>
      </trkpt>
      <trkpt lat="42.82547" lon="-0.25635">
        <ele>2358.7380371094</ele>
        <time>2014-03-13T11:21:48Z</time>
      </trkpt>
      <trkpt lat="42.82544" lon="-0.25624">
        <ele>2362.1970214844</ele>
        <time>2014-03-13T11:22:08Z</time>
      </trkpt>
      <trkpt lat="42.82551" lon="-0.2561">
        <ele>2365.4929199219</ele>
        <time>2014-03-13T11:22:29Z</time>
      </trkpt>
      <trkpt lat="42.82558" lon="-0.25598">
        <ele>2368.2160644531</ele>
        <time>2014-03-13T11:22:51Z</time>
      </trkpt>
      <trkpt lat="42.82557" lon="-0.25589">
        <ele>2370.4760742188</ele>
        <time>2014-03-13T11:23:09Z</time>
      </trkpt>
      <trkpt lat="42.82567" lon="-0.25584">
        <ele>2371.7758789062</ele>
        <time>2014-03-13T11:23:47Z</time>
      </trkpt>
      <trkpt lat="42.82577" lon="-0.25576">
        <ele>2374.7739257812</ele>
        <time>2014-03-13T11:24:03Z</time>
      </trkpt>
      <trkpt lat="42.82582" lon="-0.25569">
        <ele>2377.3129882812</ele>
        <time>2014-03-13T11:24:18Z</time>
      </trkpt>
      <trkpt lat="42.82584" lon="-0.25565">
        <ele>2378.0061035156</ele>
        <time>2014-03-13T11:24:24Z</time>
      </trkpt>
      <trkpt lat="42.82593" lon="-0.25563">
        <ele>2380.3720703125</ele>
        <time>2014-03-13T11:24:39Z</time>
      </trkpt>
      <trkpt lat="42.82598" lon="-0.25556">
        <ele>2380.6049804688</ele>
        <time>2014-03-13T11:25:03Z</time>
      </trkpt>
      <trkpt lat="42.82605" lon="-0.25549">
        <ele>2383.166015625</ele>
        <time>2014-03-13T11:25:56Z</time>
      </trkpt>
      <trkpt lat="42.82614" lon="-0.25537">
        <ele>2384.5629882812</ele>
        <time>2014-03-13T11:26:11Z</time>
      </trkpt>
      <trkpt lat="42.82624" lon="-0.25523">
        <ele>2386.7370605469</ele>
        <time>2014-03-13T11:26:29Z</time>
      </trkpt>
      <trkpt lat="42.82631" lon="-0.25516">
        <ele>2388.0568847656</ele>
        <time>2014-03-13T11:26:44Z</time>
      </trkpt>
      <trkpt lat="42.82639" lon="-0.25508">
        <ele>2389.4399414062</ele>
        <time>2014-03-13T11:26:58Z</time>
      </trkpt>
      <trkpt lat="42.82646" lon="-0.25498">
        <ele>2391.3620605469</ele>
        <time>2014-03-13T11:27:11Z</time>
      </trkpt>
      <trkpt lat="42.82657" lon="-0.25482">
        <ele>2393.0610351562</ele>
        <time>2014-03-13T11:27:28Z</time>
      </trkpt>
      <trkpt lat="42.82663" lon="-0.25468">
        <ele>2395.166015625</ele>
        <time>2014-03-13T11:27:42Z</time>
      </trkpt>
      <trkpt lat="42.82664" lon="-0.25467">
        <ele>2395.2790527344</ele>
        <time>2014-03-13T11:27:44Z</time>
      </trkpt>
      <trkpt lat="42.82674" lon="-0.25461">
        <ele>2397.9750976562</ele>
        <time>2014-03-13T11:27:59Z</time>
      </trkpt>
      <trkpt lat="42.82682" lon="-0.25455">
        <ele>2400.294921875</ele>
        <time>2014-03-13T11:28:13Z</time>
      </trkpt>
      <trkpt lat="42.82692" lon="-0.25446">
        <ele>2403.4729003906</ele>
        <time>2014-03-13T11:28:31Z</time>
      </trkpt>
      <trkpt lat="42.82697" lon="-0.25437">
        <ele>2405.62890625</ele>
        <time>2014-03-13T11:28:52Z</time>
      </trkpt>
      <trkpt lat="42.82702" lon="-0.25441">
        <ele>2406.9030761719</ele>
        <time>2014-03-13T11:34:38Z</time>
      </trkpt>
      <trkpt lat="42.82706" lon="-0.25432">
        <ele>2407.7380371094</ele>
        <time>2014-03-13T11:35:54Z</time>
      </trkpt>
      <trkpt lat="42.82729" lon="-0.25401">
        <ele>2406.9060058594</ele>
        <time>2014-03-13T11:36:21Z</time>
      </trkpt>
      <trkpt lat="42.82741" lon="-0.25382">
        <ele>2407.3359375</ele>
        <time>2014-03-13T11:36:38Z</time>
      </trkpt>
      <trkpt lat="42.82754" lon="-0.25362">
        <ele>2410.0319824219</ele>
        <time>2014-03-13T11:37:03Z</time>
      </trkpt>
      <trkpt lat="42.82769" lon="-0.2534">
        <ele>2411.0239257812</ele>
        <time>2014-03-13T11:37:30Z</time>
      </trkpt>
      <trkpt lat="42.82773" lon="-0.25334">
        <ele>2411.001953125</ele>
        <time>2014-03-13T11:37:57Z</time>
      </trkpt>
      <trkpt lat="42.82773" lon="-0.25335">
        <ele>2408.9851074219</ele>
        <time>2014-03-13T11:38:01Z</time>
      </trkpt>
      <trkpt lat="42.82773" lon="-0.25335">
        <ele>2410.3100585938</ele>
        <time>2014-03-13T11:38:03Z</time>
      </trkpt>
      <trkpt lat="42.82772" lon="-0.25335">
        <ele>2409.6030273438</ele>
        <time>2014-03-13T11:39:31Z</time>
      </trkpt>
      <trkpt lat="42.8278" lon="-0.25319">
        <ele>2409.6298828125</ele>
        <time>2014-03-13T11:39:49Z</time>
      </trkpt>
      <trkpt lat="42.82784" lon="-0.25313">
        <ele>2408.6799316406</ele>
        <time>2014-03-13T11:39:54Z</time>
      </trkpt>
      <trkpt lat="42.82787" lon="-0.25303">
        <ele>2407.1311035156</ele>
        <time>2014-03-13T11:40:01Z</time>
      </trkpt>
      <trkpt lat="42.82797" lon="-0.25295">
        <ele>2403.4509277344</ele>
        <time>2014-03-13T11:40:07Z</time>
      </trkpt>
      <trkpt lat="42.828" lon="-0.25294">
        <ele>2403.4519042969</ele>
        <time>2014-03-13T11:40:08Z</time>
      </trkpt>
      <trkpt lat="42.82809" lon="-0.25289">
        <ele>2401.3911132812</ele>
        <time>2014-03-13T11:40:12Z</time>
      </trkpt>
      <trkpt lat="42.82818" lon="-0.25283">
        <ele>2401.0319824219</ele>
        <time>2014-03-13T11:40:27Z</time>
      </trkpt>
      <trkpt lat="42.82833" lon="-0.25268">
        <ele>2402.4069824219</ele>
        <time>2014-03-13T11:40:50Z</time>
      </trkpt>
      <trkpt lat="42.82851" lon="-0.25257">
        <ele>2402.4829101562</ele>
        <time>2014-03-13T11:41:09Z</time>
      </trkpt>
      <trkpt lat="42.82868" lon="-0.25229">
        <ele>2401.7160644531</ele>
        <time>2014-03-13T11:41:32Z</time>
      </trkpt>
      <trkpt lat="42.82871" lon="-0.25223">
        <ele>2400.8400878906</ele>
        <time>2014-03-13T11:41:36Z</time>
      </trkpt>
      <trkpt lat="42.82877" lon="-0.25214">
        <ele>2398.5649414062</ele>
        <time>2014-03-13T11:41:40Z</time>
      </trkpt>
      <trkpt lat="42.82883" lon="-0.25205">
        <ele>2395.9580078125</ele>
        <time>2014-03-13T11:41:43Z</time>
      </trkpt>
      <trkpt lat="42.82886" lon="-0.252">
        <ele>2395.37109375</ele>
        <time>2014-03-13T11:41:46Z</time>
      </trkpt>
      <trkpt lat="42.82901" lon="-0.25184">
        <ele>2396.2290039062</ele>
        <time>2014-03-13T11:42:06Z</time>
      </trkpt>
      <trkpt lat="42.82912" lon="-0.25169">
        <ele>2398.1040039062</ele>
        <time>2014-03-13T11:42:29Z</time>
      </trkpt>
      <trkpt lat="42.82925" lon="-0.2516">
        <ele>2398.8168945312</ele>
        <time>2014-03-13T11:42:45Z</time>
      </trkpt>
      <trkpt lat="42.82933" lon="-0.25147">
        <ele>2400.0610351562</ele>
        <time>2014-03-13T11:43:04Z</time>
      </trkpt>
      <trkpt lat="42.82934" lon="-0.25084">
        <ele>2403.8969726562</ele>
        <time>2014-03-13T11:51:00Z</time>
      </trkpt>
      <trkpt lat="42.82934" lon="-0.25088">
        <ele>2411.376953125</ele>
        <time>2014-03-13T11:51:05Z</time>
      </trkpt>
      <trkpt lat="42.82933" lon="-0.25089">
        <ele>2403.2060546875</ele>
        <time>2014-03-13T11:51:06Z</time>
      </trkpt>
      <trkpt lat="42.8293" lon="-0.25057">
        <ele>2405.62109375</ele>
        <time>2014-03-13T11:51:28Z</time>
      </trkpt>
      <trkpt lat="42.82932" lon="-0.25053">
        <ele>2405.337890625</ele>
        <time>2014-03-13T11:51:30Z</time>
      </trkpt>
      <trkpt lat="42.82933" lon="-0.25045">
        <ele>2406.9020996094</ele>
        <time>2014-03-13T11:51:41Z</time>
      </trkpt>
      <trkpt lat="42.82933" lon="-0.25041">
        <ele>2406.9870605469</ele>
        <time>2014-03-13T11:51:44Z</time>
      </trkpt>
      <trkpt lat="42.82934" lon="-0.25038">
        <ele>2407.2429199219</ele>
        <time>2014-03-13T11:51:46Z</time>
      </trkpt>
      <trkpt lat="42.82931" lon="-0.25018">
        <ele>2409.1188964844</ele>
        <time>2014-03-13T11:52:03Z</time>
      </trkpt>
      <trkpt lat="42.82928" lon="-0.24999">
        <ele>2410.3820800781</ele>
        <time>2014-03-13T11:52:18Z</time>
      </trkpt>
      <trkpt lat="42.82929" lon="-0.24995">
        <ele>2410.1179199219</ele>
        <time>2014-03-13T11:52:21Z</time>
      </trkpt>
      <trkpt lat="42.82949" lon="-0.24986">
        <ele>2412.6989746094</ele>
        <time>2014-03-13T11:52:42Z</time>
      </trkpt>
      <trkpt lat="42.82962" lon="-0.24978">
        <ele>2414.9099121094</ele>
        <time>2014-03-13T11:53:01Z</time>
      </trkpt>
      <trkpt lat="42.82981" lon="-0.24967">
        <ele>2417.6440429688</ele>
        <time>2014-03-13T11:53:29Z</time>
      </trkpt>
      <trkpt lat="42.83002" lon="-0.24957">
        <ele>2420.9619140625</ele>
        <time>2014-03-13T11:53:57Z</time>
      </trkpt>
      <trkpt lat="42.83015" lon="-0.24946">
        <ele>2422.6960449219</ele>
        <time>2014-03-13T11:54:15Z</time>
      </trkpt>
      <trkpt lat="42.83035" lon="-0.24928">
        <ele>2425.4780273438</ele>
        <time>2014-03-13T11:54:42Z</time>
      </trkpt>
      <trkpt lat="42.83035" lon="-0.24929">
        <ele>2425.9729003906</ele>
        <time>2014-03-13T11:54:52Z</time>
      </trkpt>
      <trkpt lat="42.83022" lon="-0.2493">
        <ele>2427.6569824219</ele>
        <time>2014-03-13T11:55:12Z</time>
      </trkpt>
      <trkpt lat="42.83017" lon="-0.24931">
        <ele>2428.8540039062</ele>
        <time>2014-03-13T11:55:31Z</time>
      </trkpt>
      <trkpt lat="42.82997" lon="-0.24937">
        <ele>2431.9541015625</ele>
        <time>2014-03-13T11:55:55Z</time>
      </trkpt>
      <trkpt lat="42.82993" lon="-0.24931">
        <ele>2433.6379394531</ele>
        <time>2014-03-13T11:56:13Z</time>
      </trkpt>
      <trkpt lat="42.83006" lon="-0.24917">
        <ele>2436.1789550781</ele>
        <time>2014-03-13T11:56:31Z</time>
      </trkpt>
      <trkpt lat="42.82999" lon="-0.24919">
        <ele>2438.8720703125</ele>
        <time>2014-03-13T11:56:49Z</time>
      </trkpt>
      <trkpt lat="42.82986" lon="-0.24923">
        <ele>2441.3430175781</ele>
        <time>2014-03-13T11:57:09Z</time>
      </trkpt>
      <trkpt lat="42.8299" lon="-0.24919">
        <ele>2442.5180664062</ele>
        <time>2014-03-13T11:57:22Z</time>
      </trkpt>
      <trkpt lat="42.82997" lon="-0.24903">
        <ele>2444.8110351562</ele>
        <time>2014-03-13T11:57:37Z</time>
      </trkpt>
      <trkpt lat="42.83001" lon="-0.24896">
        <ele>2446.87890625</ele>
        <time>2014-03-13T11:57:56Z</time>
      </trkpt>
      <trkpt lat="42.83003" lon="-0.24896">
        <ele>2446.7370605469</ele>
        <time>2014-03-13T11:58:11Z</time>
      </trkpt>
      <trkpt lat="42.82989" lon="-0.24904">
        <ele>2448.6560058594</ele>
        <time>2014-03-13T11:59:03Z</time>
      </trkpt>
      <trkpt lat="42.82986" lon="-0.24903">
        <ele>2450.2958984375</ele>
        <time>2014-03-13T11:59:21Z</time>
      </trkpt>
      <trkpt lat="42.82993" lon="-0.24894">
        <ele>2453.2829589844</ele>
        <time>2014-03-13T11:59:36Z</time>
      </trkpt>
      <trkpt lat="42.83001" lon="-0.24881">
        <ele>2455.1311035156</ele>
        <time>2014-03-13T11:59:54Z</time>
      </trkpt>
      <trkpt lat="42.82989" lon="-0.24886">
        <ele>2457.4699707031</ele>
        <time>2014-03-13T12:00:19Z</time>
      </trkpt>
      <trkpt lat="42.82983" lon="-0.24887">
        <ele>2459.2380371094</ele>
        <time>2014-03-13T12:00:39Z</time>
      </trkpt>
      <trkpt lat="42.8299" lon="-0.24872">
        <ele>2462.5791015625</ele>
        <time>2014-03-13T12:00:57Z</time>
      </trkpt>
      <trkpt lat="42.83" lon="-0.24859">
        <ele>2465.3359375</ele>
        <time>2014-03-13T12:01:25Z</time>
      </trkpt>
      <trkpt lat="42.82988" lon="-0.24861">
        <ele>2467.7800292969</ele>
        <time>2014-03-13T12:01:41Z</time>
      </trkpt>
      <trkpt lat="42.82971" lon="-0.24861">
        <ele>2470.9650878906</ele>
        <time>2014-03-13T12:02:06Z</time>
      </trkpt>
      <trkpt lat="42.82975" lon="-0.24859">
        <ele>2473.2160644531</ele>
        <time>2014-03-13T12:02:23Z</time>
      </trkpt>
      <trkpt lat="42.82983" lon="-0.24849">
        <ele>2474.4951171875</ele>
        <time>2014-03-13T12:02:39Z</time>
      </trkpt>
      <trkpt lat="42.82993" lon="-0.24835">
        <ele>2477.4360351562</ele>
        <time>2014-03-13T12:03:00Z</time>
      </trkpt>
      <trkpt lat="42.82981" lon="-0.24836">
        <ele>2479.916015625</ele>
        <time>2014-03-13T12:03:17Z</time>
      </trkpt>
      <trkpt lat="42.82972" lon="-0.24838">
        <ele>2481.9440917969</ele>
        <time>2014-03-13T12:03:31Z</time>
      </trkpt>
      <trkpt lat="42.82959" lon="-0.24835">
        <ele>2484.7370605469</ele>
        <time>2014-03-13T12:03:50Z</time>
      </trkpt>
      <trkpt lat="42.82947" lon="-0.24831">
        <ele>2486.8168945312</ele>
        <time>2014-03-13T12:04:05Z</time>
      </trkpt>
      <trkpt lat="42.82949" lon="-0.24824">
        <ele>2489.2419433594</ele>
        <time>2014-03-13T12:04:21Z</time>
      </trkpt>
      <trkpt lat="42.82949" lon="-0.24823">
        <ele>2489.1589355469</ele>
        <time>2014-03-13T12:04:22Z</time>
      </trkpt>
      <trkpt lat="42.82966" lon="-0.24807">
        <ele>2492.7270507812</ele>
        <time>2014-03-13T12:04:44Z</time>
      </trkpt>
      <trkpt lat="42.82977" lon="-0.24796">
        <ele>2495.8959960938</ele>
        <time>2014-03-13T12:05:04Z</time>
      </trkpt>
      <trkpt lat="42.82965" lon="-0.24795">
        <ele>2498.3010253906</ele>
        <time>2014-03-13T12:05:19Z</time>
      </trkpt>
      <trkpt lat="42.8295" lon="-0.24792">
        <ele>2501.33203125</ele>
        <time>2014-03-13T12:05:39Z</time>
      </trkpt>
      <trkpt lat="42.82946" lon="-0.24785">
        <ele>2503.5939941406</ele>
        <time>2014-03-13T12:05:58Z</time>
      </trkpt>
      <trkpt lat="42.82957" lon="-0.24768">
        <ele>2506.8229980469</ele>
        <time>2014-03-13T12:06:16Z</time>
      </trkpt>
      <trkpt lat="42.82963" lon="-0.24762">
        <ele>2507.7819824219</ele>
        <time>2014-03-13T12:06:25Z</time>
      </trkpt>
      <trkpt lat="42.82962" lon="-0.24759">
        <ele>2509.0949707031</ele>
        <time>2014-03-13T12:06:29Z</time>
      </trkpt>
      <trkpt lat="42.82949" lon="-0.24757">
        <ele>2512.1789550781</ele>
        <time>2014-03-13T12:06:46Z</time>
      </trkpt>
      <trkpt lat="42.82933" lon="-0.24763">
        <ele>2515.2199707031</ele>
        <time>2014-03-13T12:07:09Z</time>
      </trkpt>
      <trkpt lat="42.82931" lon="-0.24757">
        <ele>2517.1279296875</ele>
        <time>2014-03-13T12:07:25Z</time>
      </trkpt>
      <trkpt lat="42.82933" lon="-0.24745">
        <ele>2519.3579101562</ele>
        <time>2014-03-13T12:07:37Z</time>
      </trkpt>
      <trkpt lat="42.8293" lon="-0.24743">
        <ele>2521.419921875</ele>
        <time>2014-03-13T12:07:51Z</time>
      </trkpt>
      <trkpt lat="42.82918" lon="-0.2475">
        <ele>2524.8479003906</ele>
        <time>2014-03-13T12:08:07Z</time>
      </trkpt>
      <trkpt lat="42.82918" lon="-0.24743">
        <ele>2526.7980957031</ele>
        <time>2014-03-13T12:08:24Z</time>
      </trkpt>
      <trkpt lat="42.82914" lon="-0.24743">
        <ele>2528.4870605469</ele>
        <time>2014-03-13T12:08:38Z</time>
      </trkpt>
      <trkpt lat="42.82907" lon="-0.24747">
        <ele>2530.2199707031</ele>
        <time>2014-03-13T12:08:47Z</time>
      </trkpt>
      <trkpt lat="42.82902" lon="-0.24747">
        <ele>2531.5939941406</ele>
        <time>2014-03-13T12:08:57Z</time>
      </trkpt>
      <trkpt lat="42.82911" lon="-0.24726">
        <ele>2534.4108886719</ele>
        <time>2014-03-13T12:09:14Z</time>
      </trkpt>
      <trkpt lat="42.82912" lon="-0.24724">
        <ele>2534.5161132812</ele>
        <time>2014-03-13T12:09:16Z</time>
      </trkpt>
      <trkpt lat="42.82914" lon="-0.24718">
        <ele>2535.8159179688</ele>
        <time>2014-03-13T12:09:21Z</time>
      </trkpt>
      <trkpt lat="42.8292" lon="-0.24698">
        <ele>2537.91796875</ele>
        <time>2014-03-13T12:09:37Z</time>
      </trkpt>
      <trkpt lat="42.82925" lon="-0.24683">
        <ele>2539.7451171875</ele>
        <time>2014-03-13T12:09:50Z</time>
      </trkpt>
      <trkpt lat="42.82931" lon="-0.2467">
        <ele>2542.412109375</ele>
        <time>2014-03-13T12:10:04Z</time>
      </trkpt>
      <trkpt lat="42.82942" lon="-0.24656">
        <ele>2544.7199707031</ele>
        <time>2014-03-13T12:10:21Z</time>
      </trkpt>
      <trkpt lat="42.82935" lon="-0.24658">
        <ele>2545.8391113281</ele>
        <time>2014-03-13T12:10:32Z</time>
      </trkpt>
      <trkpt lat="42.82919" lon="-0.24661">
        <ele>2549.4389648438</ele>
        <time>2014-03-13T12:10:51Z</time>
      </trkpt>
      <trkpt lat="42.82901" lon="-0.24677">
        <ele>2553.2580566406</ele>
        <time>2014-03-13T12:11:15Z</time>
      </trkpt>
      <trkpt lat="42.82888" lon="-0.24691">
        <ele>2555.962890625</ele>
        <time>2014-03-13T12:11:38Z</time>
      </trkpt>
      <trkpt lat="42.8288" lon="-0.24697">
        <ele>2558.4519042969</ele>
        <time>2014-03-13T12:11:58Z</time>
      </trkpt>
      <trkpt lat="42.82885" lon="-0.24674">
        <ele>2561.2109375</ele>
        <time>2014-03-13T12:12:15Z</time>
      </trkpt>
      <trkpt lat="42.82885" lon="-0.24671">
        <ele>2561.2109375</ele>
        <time>2014-03-13T12:12:18Z</time>
      </trkpt>
      <trkpt lat="42.82888" lon="-0.24652">
        <ele>2564.3010253906</ele>
        <time>2014-03-13T12:12:36Z</time>
      </trkpt>
      <trkpt lat="42.82891" lon="-0.24637">
        <ele>2566.6889648438</ele>
        <time>2014-03-13T12:12:52Z</time>
      </trkpt>
      <trkpt lat="42.82895" lon="-0.24624">
        <ele>2568.6589355469</ele>
        <time>2014-03-13T12:13:11Z</time>
      </trkpt>
      <trkpt lat="42.82901" lon="-0.24611">
        <ele>2571.2119140625</ele>
        <time>2014-03-13T12:13:27Z</time>
      </trkpt>
      <trkpt lat="42.82906" lon="-0.24604">
        <ele>2572.2529296875</ele>
        <time>2014-03-13T12:13:40Z</time>
      </trkpt>
      <trkpt lat="42.82892" lon="-0.24608">
        <ele>2575.0959472656</ele>
        <time>2014-03-13T12:14:00Z</time>
      </trkpt>
      <trkpt lat="42.82883" lon="-0.24613">
        <ele>2576.8410644531</ele>
        <time>2014-03-13T12:14:16Z</time>
      </trkpt>
      <trkpt lat="42.82874" lon="-0.24621">
        <ele>2579.2080078125</ele>
        <time>2014-03-13T12:14:37Z</time>
      </trkpt>
      <trkpt lat="42.82864" lon="-0.24633">
        <ele>2580.9250488281</ele>
        <time>2014-03-13T12:14:58Z</time>
      </trkpt>
      <trkpt lat="42.82866" lon="-0.24631">
        <ele>2581.6220703125</ele>
        <time>2014-03-13T12:15:12Z</time>
      </trkpt>
      <trkpt lat="42.82867" lon="-0.24627">
        <ele>2581.5229492188</ele>
        <time>2014-03-13T12:15:44Z</time>
      </trkpt>
      <trkpt lat="42.82869" lon="-0.24628">
        <ele>2580.9599609375</ele>
        <time>2014-03-13T12:16:25Z</time>
      </trkpt>
      <trkpt lat="42.82869" lon="-0.2462">
        <ele>2582.0148925781</ele>
        <time>2014-03-13T12:17:28Z</time>
      </trkpt>
      <trkpt lat="42.82869" lon="-0.246">
        <ele>2584.087890625</ele>
        <time>2014-03-13T12:17:43Z</time>
      </trkpt>
      <trkpt lat="42.82871" lon="-0.24581">
        <ele>2586.9389648438</ele>
        <time>2014-03-13T12:18:03Z</time>
      </trkpt>
      <trkpt lat="42.8288" lon="-0.2457">
        <ele>2590.2189941406</ele>
        <time>2014-03-13T12:18:21Z</time>
      </trkpt>
      <trkpt lat="42.82884" lon="-0.24561">
        <ele>2591.3020019531</ele>
        <time>2014-03-13T12:18:40Z</time>
      </trkpt>
      <trkpt lat="42.82884" lon="-0.24562">
        <ele>2592.2819824219</ele>
        <time>2014-03-13T12:18:55Z</time>
      </trkpt>
      <trkpt lat="42.8287" lon="-0.24569">
        <ele>2594.4030761719</ele>
        <time>2014-03-13T12:19:14Z</time>
      </trkpt>
      <trkpt lat="42.82853" lon="-0.24583">
        <ele>2597.5690917969</ele>
        <time>2014-03-13T12:19:39Z</time>
      </trkpt>
      <trkpt lat="42.82844" lon="-0.24592">
        <ele>2599.4130859375</ele>
        <time>2014-03-13T12:19:59Z</time>
      </trkpt>
      <trkpt lat="42.82852" lon="-0.2457">
        <ele>2601.9499511719</ele>
        <time>2014-03-13T12:20:21Z</time>
      </trkpt>
      <trkpt lat="42.82857" lon="-0.24561">
        <ele>2603.6831054688</ele>
        <time>2014-03-13T12:20:36Z</time>
      </trkpt>
      <trkpt lat="42.82864" lon="-0.2455">
        <ele>2605.373046875</ele>
        <time>2014-03-13T12:20:55Z</time>
      </trkpt>
      <trkpt lat="42.82877" lon="-0.24537">
        <ele>2608.2399902344</ele>
        <time>2014-03-13T12:21:19Z</time>
      </trkpt>
      <trkpt lat="42.82879" lon="-0.24534">
        <ele>2608.9770507812</ele>
        <time>2014-03-13T12:21:33Z</time>
      </trkpt>
      <trkpt lat="42.82871" lon="-0.24536">
        <ele>2610.6350097656</ele>
        <time>2014-03-13T12:21:46Z</time>
      </trkpt>
      <trkpt lat="42.82871" lon="-0.24533">
        <ele>2612.337890625</ele>
        <time>2014-03-13T12:22:07Z</time>
      </trkpt>
      <trkpt lat="42.82875" lon="-0.24528">
        <ele>2613.8349609375</ele>
        <time>2014-03-13T12:22:14Z</time>
      </trkpt>
      <trkpt lat="42.82878" lon="-0.24526">
        <ele>2615.6120605469</ele>
        <time>2014-03-13T12:22:34Z</time>
      </trkpt>
      <trkpt lat="42.82867" lon="-0.2453">
        <ele>2617.5681152344</ele>
        <time>2014-03-13T12:22:51Z</time>
      </trkpt>
      <trkpt lat="42.82854" lon="-0.2453">
        <ele>2620.1340332031</ele>
        <time>2014-03-13T12:23:10Z</time>
      </trkpt>
      <trkpt lat="42.82866" lon="-0.24521">
        <ele>2622.8820800781</ele>
        <time>2014-03-13T12:23:46Z</time>
      </trkpt>
      <trkpt lat="42.82863" lon="-0.24518">
        <ele>2624.1589355469</ele>
        <time>2014-03-13T12:24:07Z</time>
      </trkpt>
      <trkpt lat="42.82847" lon="-0.24526">
        <ele>2627.24609375</ele>
        <time>2014-03-13T12:24:33Z</time>
      </trkpt>
      <trkpt lat="42.82833" lon="-0.24535">
        <ele>2629.583984375</ele>
        <time>2014-03-13T12:25:02Z</time>
      </trkpt>
      <trkpt lat="42.82839" lon="-0.24521">
        <ele>2631.9760742188</ele>
        <time>2014-03-13T12:25:23Z</time>
      </trkpt>
      <trkpt lat="42.8285" lon="-0.24508">
        <ele>2635.669921875</ele>
        <time>2014-03-13T12:25:43Z</time>
      </trkpt>
      <trkpt lat="42.82845" lon="-0.24509">
        <ele>2636.2739257812</ele>
        <time>2014-03-13T12:26:02Z</time>
      </trkpt>
      <trkpt lat="42.82831" lon="-0.24516">
        <ele>2639.3830566406</ele>
        <time>2014-03-13T12:26:22Z</time>
      </trkpt>
      <trkpt lat="42.82817" lon="-0.24522">
        <ele>2642.5310058594</ele>
        <time>2014-03-13T12:26:43Z</time>
      </trkpt>
      <trkpt lat="42.82806" lon="-0.24533">
        <ele>2645.6650390625</ele>
        <time>2014-03-13T12:27:06Z</time>
      </trkpt>
      <trkpt lat="42.82791" lon="-0.24548">
        <ele>2648.8249511719</ele>
        <time>2014-03-13T12:27:34Z</time>
      </trkpt>
      <trkpt lat="42.82798" lon="-0.24535">
        <ele>2650.7409667969</ele>
        <time>2014-03-13T12:27:54Z</time>
      </trkpt>
      <trkpt lat="42.82807" lon="-0.24517">
        <ele>2653.7829589844</ele>
        <time>2014-03-13T12:28:16Z</time>
      </trkpt>
      <trkpt lat="42.82815" lon="-0.245">
        <ele>2656.875</ele>
        <time>2014-03-13T12:28:35Z</time>
      </trkpt>
      <trkpt lat="42.82826" lon="-0.24488">
        <ele>2660.1889648438</ele>
        <time>2014-03-13T12:28:58Z</time>
      </trkpt>
      <trkpt lat="42.82825" lon="-0.24485">
        <ele>2662.1411132812</ele>
        <time>2014-03-13T12:29:19Z</time>
      </trkpt>
      <trkpt lat="42.82809" lon="-0.24489">
        <ele>2665.3239746094</ele>
        <time>2014-03-13T12:29:41Z</time>
      </trkpt>
      <trkpt lat="42.82795" lon="-0.24497">
        <ele>2668.541015625</ele>
        <time>2014-03-13T12:30:03Z</time>
      </trkpt>
      <trkpt lat="42.82783" lon="-0.24503">
        <ele>2671.748046875</ele>
        <time>2014-03-13T12:30:23Z</time>
      </trkpt>
      <trkpt lat="42.82771" lon="-0.24512">
        <ele>2675.1540527344</ele>
        <time>2014-03-13T12:30:44Z</time>
      </trkpt>
      <trkpt lat="42.8277" lon="-0.24511">
        <ele>2677.6640625</ele>
        <time>2014-03-13T12:31:09Z</time>
      </trkpt>
      <trkpt lat="42.82781" lon="-0.2449">
        <ele>2680.8420410156</ele>
        <time>2014-03-13T12:31:31Z</time>
      </trkpt>
      <trkpt lat="42.82788" lon="-0.24476">
        <ele>2683.12109375</ele>
        <time>2014-03-13T12:31:56Z</time>
      </trkpt>
      <trkpt lat="42.82777" lon="-0.24482">
        <ele>2685.2819824219</ele>
        <time>2014-03-13T12:32:12Z</time>
      </trkpt>
      <trkpt lat="42.82763" lon="-0.24491">
        <ele>2688.3239746094</ele>
        <time>2014-03-13T12:32:35Z</time>
      </trkpt>
      <trkpt lat="42.82754" lon="-0.24497">
        <ele>2690.2590332031</ele>
        <time>2014-03-13T12:32:56Z</time>
      </trkpt>
      <trkpt lat="42.82762" lon="-0.24481">
        <ele>2693.2810058594</ele>
        <time>2014-03-13T12:33:24Z</time>
      </trkpt>
      <trkpt lat="42.82769" lon="-0.24467">
        <ele>2696.2858886719</ele>
        <time>2014-03-13T12:33:47Z</time>
      </trkpt>
      <trkpt lat="42.8276" lon="-0.24473">
        <ele>2698.0939941406</ele>
        <time>2014-03-13T12:34:00Z</time>
      </trkpt>
      <trkpt lat="42.82765" lon="-0.24467">
        <ele>2699.4741210938</ele>
        <time>2014-03-13T12:34:18Z</time>
      </trkpt>
      <trkpt lat="42.8276" lon="-0.24468">
        <ele>2700.8549804688</ele>
        <time>2014-03-13T12:34:42Z</time>
      </trkpt>
      <trkpt lat="42.82752" lon="-0.24472">
        <ele>2702.8059082031</ele>
        <time>2014-03-13T12:35:04Z</time>
      </trkpt>
      <trkpt lat="42.82754" lon="-0.2446">
        <ele>2703.5190429688</ele>
        <time>2014-03-13T12:35:34Z</time>
      </trkpt>
      <trkpt lat="42.82759" lon="-0.24458">
        <ele>2704.7380371094</ele>
        <time>2014-03-13T12:35:54Z</time>
      </trkpt>
      <trkpt lat="42.8276" lon="-0.24457">
        <ele>2704.7280273438</ele>
        <time>2014-03-13T12:37:12Z</time>
      </trkpt>
      <trkpt lat="42.82744" lon="-0.24438">
        <ele>2699.6469726562</ele>
        <time>2014-03-13T13:41:22Z</time>
      </trkpt>
      <trkpt lat="42.82743" lon="-0.24458">
        <ele>2699.8510742188</ele>
        <time>2014-03-13T13:41:25Z</time>
      </trkpt>
      <trkpt lat="42.82736" lon="-0.24454">
        <ele>2696.2409667969</ele>
        <time>2014-03-13T13:41:28Z</time>
      </trkpt>
      <trkpt lat="42.82732" lon="-0.24455">
        <ele>2695.6279296875</ele>
        <time>2014-03-13T13:41:29Z</time>
      </trkpt>
      <trkpt lat="42.82714" lon="-0.24449">
        <ele>2693.9350585938</ele>
        <time>2014-03-13T13:41:35Z</time>
      </trkpt>
      <trkpt lat="42.82713" lon="-0.24444">
        <ele>2693.0229492188</ele>
        <time>2014-03-13T13:41:37Z</time>
      </trkpt>
      <trkpt lat="42.82718" lon="-0.2444">
        <ele>2690.5949707031</ele>
        <time>2014-03-13T13:41:39Z</time>
      </trkpt>
      <trkpt lat="42.82721" lon="-0.24439">
        <ele>2688.3649902344</ele>
        <time>2014-03-13T13:41:40Z</time>
      </trkpt>
      <trkpt lat="42.8273" lon="-0.24433">
        <ele>2685.0559082031</ele>
        <time>2014-03-13T13:41:45Z</time>
      </trkpt>
      <trkpt lat="42.82726" lon="-0.24427">
        <ele>2683.2119140625</ele>
        <time>2014-03-13T13:41:48Z</time>
      </trkpt>
      <trkpt lat="42.82722" lon="-0.24421">
        <ele>2681.1989746094</ele>
        <time>2014-03-13T13:41:50Z</time>
      </trkpt>
      <trkpt lat="42.82724" lon="-0.24413">
        <ele>2677.4650878906</ele>
        <time>2014-03-13T13:41:52Z</time>
      </trkpt>
      <trkpt lat="42.82724" lon="-0.24408">
        <ele>2677.4650878906</ele>
        <time>2014-03-13T13:41:53Z</time>
      </trkpt>
      <trkpt lat="42.82724" lon="-0.24401">
        <ele>2673.7629394531</ele>
        <time>2014-03-13T13:41:54Z</time>
      </trkpt>
      <trkpt lat="42.82724" lon="-0.24395">
        <ele>2673.7629394531</ele>
        <time>2014-03-13T13:41:55Z</time>
      </trkpt>
      <trkpt lat="42.82724" lon="-0.24389">
        <ele>2670.4389648438</ele>
        <time>2014-03-13T13:41:56Z</time>
      </trkpt>
      <trkpt lat="42.82725" lon="-0.24384">
        <ele>2670.4389648438</ele>
        <time>2014-03-13T13:41:57Z</time>
      </trkpt>
      <trkpt lat="42.8273" lon="-0.24376">
        <ele>2665.8181152344</ele>
        <time>2014-03-13T13:41:59Z</time>
      </trkpt>
      <trkpt lat="42.82732" lon="-0.2437">
        <ele>2665.8181152344</ele>
        <time>2014-03-13T13:42:00Z</time>
      </trkpt>
      <trkpt lat="42.82738" lon="-0.24363">
        <ele>2663.4899902344</ele>
        <time>2014-03-13T13:42:02Z</time>
      </trkpt>
      <trkpt lat="42.82744" lon="-0.24357">
        <ele>2661.4760742188</ele>
        <time>2014-03-13T13:42:04Z</time>
      </trkpt>
      <trkpt lat="42.82751" lon="-0.24341">
        <ele>2655.0190429688</ele>
        <time>2014-03-13T13:42:07Z</time>
      </trkpt>
      <trkpt lat="42.82751" lon="-0.24334">
        <ele>2650.7990722656</ele>
        <time>2014-03-13T13:42:08Z</time>
      </trkpt>
      <trkpt lat="42.82754" lon="-0.24329">
        <ele>2650.7990722656</ele>
        <time>2014-03-13T13:42:09Z</time>
      </trkpt>
      <trkpt lat="42.82759" lon="-0.24312">
        <ele>2647.1420898438</ele>
        <time>2014-03-13T13:42:11Z</time>
      </trkpt>
      <trkpt lat="42.82764" lon="-0.24301">
        <ele>2642.5100097656</ele>
        <time>2014-03-13T13:42:12Z</time>
      </trkpt>
      <trkpt lat="42.82769" lon="-0.24296">
        <ele>2636.7580566406</ele>
        <time>2014-03-13T13:42:13Z</time>
      </trkpt>
      <trkpt lat="42.82783" lon="-0.24274">
        <ele>2629.3330078125</ele>
        <time>2014-03-13T13:42:15Z</time>
      </trkpt>
      <trkpt lat="42.82789" lon="-0.24262">
        <ele>2629.3330078125</ele>
        <time>2014-03-13T13:42:16Z</time>
      </trkpt>
      <trkpt lat="42.82798" lon="-0.24237">
        <ele>2625.54296875</ele>
        <time>2014-03-13T13:42:18Z</time>
      </trkpt>
      <trkpt lat="42.82817" lon="-0.24206">
        <ele>2624.125</ele>
        <time>2014-03-13T13:42:23Z</time>
      </trkpt>
      <trkpt lat="42.82832" lon="-0.24211">
        <ele>2621.6220703125</ele>
        <time>2014-03-13T13:42:25Z</time>
      </trkpt>
      <trkpt lat="42.8284" lon="-0.24211">
        <ele>2618.3688964844</ele>
        <time>2014-03-13T13:42:26Z</time>
      </trkpt>
      <trkpt lat="42.82846" lon="-0.24205">
        <ele>2618.3688964844</ele>
        <time>2014-03-13T13:42:27Z</time>
      </trkpt>
      <trkpt lat="42.8285" lon="-0.24199">
        <ele>2615.2019042969</ele>
        <time>2014-03-13T13:42:28Z</time>
      </trkpt>
      <trkpt lat="42.8285" lon="-0.24193">
        <ele>2615.3310546875</ele>
        <time>2014-03-13T13:42:29Z</time>
      </trkpt>
      <trkpt lat="42.82847" lon="-0.24185">
        <ele>2616.0690917969</ele>
        <time>2014-03-13T13:42:34Z</time>
      </trkpt>
      <trkpt lat="42.82862" lon="-0.24178">
        <ele>2613.7829589844</ele>
        <time>2014-03-13T13:42:39Z</time>
      </trkpt>
      <trkpt lat="42.82876" lon="-0.24177">
        <ele>2610.7561035156</ele>
        <time>2014-03-13T13:42:41Z</time>
      </trkpt>
      <trkpt lat="42.82896" lon="-0.24169">
        <ele>2599.6311035156</ele>
        <time>2014-03-13T13:42:43Z</time>
      </trkpt>
      <trkpt lat="42.82905" lon="-0.2416">
        <ele>2599.6298828125</ele>
        <time>2014-03-13T13:42:44Z</time>
      </trkpt>
      <trkpt lat="42.82921" lon="-0.24144">
        <ele>2597.7309570312</ele>
        <time>2014-03-13T13:42:46Z</time>
      </trkpt>
      <trkpt lat="42.82952" lon="-0.24115">
        <ele>2598.4790039062</ele>
        <time>2014-03-13T13:42:51Z</time>
      </trkpt>
      <trkpt lat="42.82972" lon="-0.24096">
        <ele>2600.162109375</ele>
        <time>2014-03-13T13:43:00Z</time>
      </trkpt>
      <trkpt lat="42.82983" lon="-0.24081">
        <ele>2599.2548828125</ele>
        <time>2014-03-13T13:43:09Z</time>
      </trkpt>
      <trkpt lat="42.82983" lon="-0.24082">
        <ele>2598.6311035156</ele>
        <time>2014-03-13T13:43:32Z</time>
      </trkpt>
      <trkpt lat="42.82982" lon="-0.24081">
        <ele>2599.0061035156</ele>
        <time>2014-03-13T13:44:10Z</time>
      </trkpt>
      <trkpt lat="42.82982" lon="-0.2408">
        <ele>2598.6259765625</ele>
        <time>2014-03-13T13:44:40Z</time>
      </trkpt>
      <trkpt lat="42.82983" lon="-0.24067">
        <ele>2598.3039550781</ele>
        <time>2014-03-13T13:44:44Z</time>
      </trkpt>
      <trkpt lat="42.82983" lon="-0.24052">
        <ele>2596.6560058594</ele>
        <time>2014-03-13T13:44:46Z</time>
      </trkpt>
      <trkpt lat="42.82983" lon="-0.24044">
        <ele>2594.3391113281</ele>
        <time>2014-03-13T13:44:47Z</time>
      </trkpt>
      <trkpt lat="42.82981" lon="-0.24029">
        <ele>2593.4030761719</ele>
        <time>2014-03-13T13:44:49Z</time>
      </trkpt>
      <trkpt lat="42.82977" lon="-0.23995">
        <ele>2589.1708984375</ele>
        <time>2014-03-13T13:44:54Z</time>
      </trkpt>
      <trkpt lat="42.82977" lon="-0.23985">
        <ele>2585.8898925781</ele>
        <time>2014-03-13T13:44:55Z</time>
      </trkpt>
      <trkpt lat="42.82977" lon="-0.23961">
        <ele>2581.8879394531</ele>
        <time>2014-03-13T13:44:57Z</time>
      </trkpt>
      <trkpt lat="42.82978" lon="-0.23948">
        <ele>2581.8889160156</ele>
        <time>2014-03-13T13:44:58Z</time>
      </trkpt>
      <trkpt lat="42.82981" lon="-0.23921">
        <ele>2577.2060546875</ele>
        <time>2014-03-13T13:45:00Z</time>
      </trkpt>
      <trkpt lat="42.82993" lon="-0.23842">
        <ele>2575.6201171875</ele>
        <time>2014-03-13T13:45:09Z</time>
      </trkpt>
      <trkpt lat="42.82997" lon="-0.2379">
        <ele>2572.7590332031</ele>
        <time>2014-03-13T13:45:17Z</time>
      </trkpt>
      <trkpt lat="42.82994" lon="-0.23757">
        <ele>2571.3400878906</ele>
        <time>2014-03-13T13:45:23Z</time>
      </trkpt>
      <trkpt lat="42.83002" lon="-0.2375">
        <ele>2569.1311035156</ele>
        <time>2014-03-13T13:45:26Z</time>
      </trkpt>
      <trkpt lat="42.83009" lon="-0.23743">
        <ele>2566.7670898438</ele>
        <time>2014-03-13T13:45:29Z</time>
      </trkpt>
      <trkpt lat="42.83014" lon="-0.23732">
        <ele>2563.0439453125</ele>
        <time>2014-03-13T13:45:32Z</time>
      </trkpt>
      <trkpt lat="42.83019" lon="-0.23719">
        <ele>2561.337890625</ele>
        <time>2014-03-13T13:45:35Z</time>
      </trkpt>
      <trkpt lat="42.83024" lon="-0.23718">
        <ele>2558.8740234375</ele>
        <time>2014-03-13T13:45:37Z</time>
      </trkpt>
      <trkpt lat="42.83031" lon="-0.23715">
        <ele>2554.0620117188</ele>
        <time>2014-03-13T13:45:39Z</time>
      </trkpt>
      <trkpt lat="42.83032" lon="-0.23708">
        <ele>2554.0629882812</ele>
        <time>2014-03-13T13:45:40Z</time>
      </trkpt>
      <trkpt lat="42.83035" lon="-0.23698">
        <ele>2551.9240722656</ele>
        <time>2014-03-13T13:45:42Z</time>
      </trkpt>
      <trkpt lat="42.8304" lon="-0.23692">
        <ele>2549.3569335938</ele>
        <time>2014-03-13T13:45:44Z</time>
      </trkpt>
      <trkpt lat="42.83043" lon="-0.23687">
        <ele>2547.0979003906</ele>
        <time>2014-03-13T13:45:45Z</time>
      </trkpt>
      <trkpt lat="42.83051" lon="-0.23674">
        <ele>2540.9560546875</ele>
        <time>2014-03-13T13:45:48Z</time>
      </trkpt>
      <trkpt lat="42.83053" lon="-0.23672">
        <ele>2540.958984375</ele>
        <time>2014-03-13T13:45:49Z</time>
      </trkpt>
      <trkpt lat="42.83058" lon="-0.23658">
        <ele>2538.4230957031</ele>
        <time>2014-03-13T13:45:51Z</time>
      </trkpt>
      <trkpt lat="42.83061" lon="-0.23653">
        <ele>2534.8000488281</ele>
        <time>2014-03-13T13:45:52Z</time>
      </trkpt>
      <trkpt lat="42.83064" lon="-0.23649">
        <ele>2531.6279296875</ele>
        <time>2014-03-13T13:45:53Z</time>
      </trkpt>
      <trkpt lat="42.83068" lon="-0.2364">
        <ele>2528.0080566406</ele>
        <time>2014-03-13T13:45:55Z</time>
      </trkpt>
      <trkpt lat="42.8307" lon="-0.23634">
        <ele>2528.0129394531</ele>
        <time>2014-03-13T13:45:56Z</time>
      </trkpt>
      <trkpt lat="42.83072" lon="-0.23626">
        <ele>2523.5258789062</ele>
        <time>2014-03-13T13:45:57Z</time>
      </trkpt>
      <trkpt lat="42.83075" lon="-0.23619">
        <ele>2523.5310058594</ele>
        <time>2014-03-13T13:45:58Z</time>
      </trkpt>
      <trkpt lat="42.83078" lon="-0.23612">
        <ele>2519.0239257812</ele>
        <time>2014-03-13T13:45:59Z</time>
      </trkpt>
      <trkpt lat="42.83081" lon="-0.23598">
        <ele>2515.4641113281</ele>
        <time>2014-03-13T13:46:01Z</time>
      </trkpt>
      <trkpt lat="42.83081" lon="-0.23584">
        <ele>2513.1740722656</ele>
        <time>2014-03-13T13:46:03Z</time>
      </trkpt>
      <trkpt lat="42.83068" lon="-0.23562">
        <ele>2511.7971191406</ele>
        <time>2014-03-13T13:46:11Z</time>
      </trkpt>
      <trkpt lat="42.83065" lon="-0.23559">
        <ele>2511.5681152344</ele>
        <time>2014-03-13T13:46:32Z</time>
      </trkpt>
      <trkpt lat="42.83067" lon="-0.23541">
        <ele>2505.7719726562</ele>
        <time>2014-03-13T13:46:37Z</time>
      </trkpt>
      <trkpt lat="42.83067" lon="-0.23526">
        <ele>2502.6320800781</ele>
        <time>2014-03-13T13:46:39Z</time>
      </trkpt>
      <trkpt lat="42.83067" lon="-0.23518">
        <ele>2502.6369628906</ele>
        <time>2014-03-13T13:46:40Z</time>
      </trkpt>
      <trkpt lat="42.83068" lon="-0.23508">
        <ele>2499.2241210938</ele>
        <time>2014-03-13T13:46:41Z</time>
      </trkpt>
      <trkpt lat="42.8307" lon="-0.235">
        <ele>2499.2280273438</ele>
        <time>2014-03-13T13:46:42Z</time>
      </trkpt>
      <trkpt lat="42.83076" lon="-0.23471">
        <ele>2492.7119140625</ele>
        <time>2014-03-13T13:46:45Z</time>
      </trkpt>
      <trkpt lat="42.83082" lon="-0.23452">
        <ele>2490.3530273438</ele>
        <time>2014-03-13T13:46:47Z</time>
      </trkpt>
      <trkpt lat="42.83084" lon="-0.23431">
        <ele>2488.6101074219</ele>
        <time>2014-03-13T13:46:49Z</time>
      </trkpt>
      <trkpt lat="42.83083" lon="-0.23412">
        <ele>2485.9660644531</ele>
        <time>2014-03-13T13:46:51Z</time>
      </trkpt>
      <trkpt lat="42.83083" lon="-0.23401">
        <ele>2485.8859863281</ele>
        <time>2014-03-13T13:46:56Z</time>
      </trkpt>
      <trkpt lat="42.83084" lon="-0.234">
        <ele>2486.08203125</ele>
        <time>2014-03-13T13:47:16Z</time>
      </trkpt>
      <trkpt lat="42.83084" lon="-0.23401">
        <ele>2485.5930175781</ele>
        <time>2014-03-13T13:48:18Z</time>
      </trkpt>
      <trkpt lat="42.83083" lon="-0.23395">
        <ele>2484.916015625</ele>
        <time>2014-03-13T13:48:30Z</time>
      </trkpt>
      <trkpt lat="42.83083" lon="-0.23394">
        <ele>2485.166015625</ele>
        <time>2014-03-13T13:48:37Z</time>
      </trkpt>
      <trkpt lat="42.83087" lon="-0.23389">
        <ele>2485.0119628906</ele>
        <time>2014-03-13T13:48:40Z</time>
      </trkpt>
      <trkpt lat="42.83096" lon="-0.23382">
        <ele>2482.1650390625</ele>
        <time>2014-03-13T13:48:43Z</time>
      </trkpt>
      <trkpt lat="42.83097" lon="-0.23377">
        <ele>2480.5959472656</ele>
        <time>2014-03-13T13:48:44Z</time>
      </trkpt>
      <trkpt lat="42.83099" lon="-0.2337">
        <ele>2479.4851074219</ele>
        <time>2014-03-13T13:48:46Z</time>
      </trkpt>
      <trkpt lat="42.8311" lon="-0.23372">
        <ele>2475.5</ele>
        <time>2014-03-13T13:48:49Z</time>
      </trkpt>
      <trkpt lat="42.83115" lon="-0.23375">
        <ele>2475.501953125</ele>
        <time>2014-03-13T13:48:50Z</time>
      </trkpt>
      <trkpt lat="42.83123" lon="-0.23372">
        <ele>2472.7189941406</ele>
        <time>2014-03-13T13:48:52Z</time>
      </trkpt>
      <trkpt lat="42.83128" lon="-0.23368">
        <ele>2470.1030273438</ele>
        <time>2014-03-13T13:48:53Z</time>
      </trkpt>
      <trkpt lat="42.83141" lon="-0.23357">
        <ele>2467.6740722656</ele>
        <time>2014-03-13T13:48:56Z</time>
      </trkpt>
      <trkpt lat="42.83139" lon="-0.23348">
        <ele>2465.6870117188</ele>
        <time>2014-03-13T13:48:58Z</time>
      </trkpt>
      <trkpt lat="42.83154" lon="-0.23336">
        <ele>2461.458984375</ele>
        <time>2014-03-13T13:49:05Z</time>
      </trkpt>
      <trkpt lat="42.83168" lon="-0.23338">
        <ele>2460.1259765625</ele>
        <time>2014-03-13T13:49:08Z</time>
      </trkpt>
      <trkpt lat="42.83174" lon="-0.23324">
        <ele>2458.087890625</ele>
        <time>2014-03-13T13:49:10Z</time>
      </trkpt>
      <trkpt lat="42.83173" lon="-0.23315">
        <ele>2453.7880859375</ele>
        <time>2014-03-13T13:49:11Z</time>
      </trkpt>
      <trkpt lat="42.8317" lon="-0.233">
        <ele>2452.9431152344</ele>
        <time>2014-03-13T13:49:13Z</time>
      </trkpt>
      <trkpt lat="42.83168" lon="-0.23267">
        <ele>2454.3601074219</ele>
        <time>2014-03-13T13:49:23Z</time>
      </trkpt>
      <trkpt lat="42.83168" lon="-0.23257">
        <ele>2454.4360351562</ele>
        <time>2014-03-13T13:49:30Z</time>
      </trkpt>
      <trkpt lat="42.83167" lon="-0.2325">
        <ele>2455.0100097656</ele>
        <time>2014-03-13T13:49:33Z</time>
      </trkpt>
      <trkpt lat="42.83169" lon="-0.23246">
        <ele>2455.0520019531</ele>
        <time>2014-03-13T13:49:36Z</time>
      </trkpt>
      <trkpt lat="42.83169" lon="-0.23233">
        <ele>2455.0930175781</ele>
        <time>2014-03-13T13:49:43Z</time>
      </trkpt>
      <trkpt lat="42.83171" lon="-0.23225">
        <ele>2456.0869140625</ele>
        <time>2014-03-13T13:49:51Z</time>
      </trkpt>
      <trkpt lat="42.83171" lon="-0.23222">
        <ele>2455.8249511719</ele>
        <time>2014-03-13T13:50:20Z</time>
      </trkpt>
      <trkpt lat="42.83175" lon="-0.23214">
        <ele>2455.2019042969</ele>
        <time>2014-03-13T13:50:22Z</time>
      </trkpt>
      <trkpt lat="42.8318" lon="-0.23201">
        <ele>2452.8610839844</ele>
        <time>2014-03-13T13:50:24Z</time>
      </trkpt>
      <trkpt lat="42.83183" lon="-0.23178">
        <ele>2449.9040527344</ele>
        <time>2014-03-13T13:50:27Z</time>
      </trkpt>
      <trkpt lat="42.83187" lon="-0.2315">
        <ele>2447.6840820312</ele>
        <time>2014-03-13T13:50:31Z</time>
      </trkpt>
      <trkpt lat="42.83192" lon="-0.23118">
        <ele>2445.1010742188</ele>
        <time>2014-03-13T13:50:36Z</time>
      </trkpt>
      <trkpt lat="42.83193" lon="-0.23112">
        <ele>2444.6179199219</ele>
        <time>2014-03-13T13:50:37Z</time>
      </trkpt>
      <trkpt lat="42.83201" lon="-0.23089">
        <ele>2442.2189941406</ele>
        <time>2014-03-13T13:50:41Z</time>
      </trkpt>
      <trkpt lat="42.83204" lon="-0.23069">
        <ele>2439.9418945312</ele>
        <time>2014-03-13T13:50:44Z</time>
      </trkpt>
      <trkpt lat="42.83204" lon="-0.23046">
        <ele>2436.8430175781</ele>
        <time>2014-03-13T13:50:47Z</time>
      </trkpt>
      <trkpt lat="42.83203" lon="-0.23038">
        <ele>2436.8459472656</ele>
        <time>2014-03-13T13:50:48Z</time>
      </trkpt>
      <trkpt lat="42.83202" lon="-0.2303">
        <ele>2435.5090332031</ele>
        <time>2014-03-13T13:50:49Z</time>
      </trkpt>
      <trkpt lat="42.83197" lon="-0.22995">
        <ele>2433.9450683594</ele>
        <time>2014-03-13T13:50:55Z</time>
      </trkpt>
      <trkpt lat="42.83196" lon="-0.22971">
        <ele>2432.6340332031</ele>
        <time>2014-03-13T13:50:59Z</time>
      </trkpt>
      <trkpt lat="42.83199" lon="-0.22952">
        <ele>2430.4580078125</ele>
        <time>2014-03-13T13:51:02Z</time>
      </trkpt>
      <trkpt lat="42.832" lon="-0.22946">
        <ele>2429.6298828125</ele>
        <time>2014-03-13T13:51:03Z</time>
      </trkpt>
      <trkpt lat="42.832" lon="-0.22925">
        <ele>2428.0190429688</ele>
        <time>2014-03-13T13:51:06Z</time>
      </trkpt>
      <trkpt lat="42.83198" lon="-0.2291">
        <ele>2426.0009765625</ele>
        <time>2014-03-13T13:51:08Z</time>
      </trkpt>
      <trkpt lat="42.83192" lon="-0.22888">
        <ele>2423.626953125</ele>
        <time>2014-03-13T13:51:11Z</time>
      </trkpt>
      <trkpt lat="42.83191" lon="-0.22882">
        <ele>2422.9799804688</ele>
        <time>2014-03-13T13:51:12Z</time>
      </trkpt>
      <trkpt lat="42.83188" lon="-0.2287">
        <ele>2422.4340820312</ele>
        <time>2014-03-13T13:51:14Z</time>
      </trkpt>
      <trkpt lat="42.83188" lon="-0.22831">
        <ele>2419.6599121094</ele>
        <time>2014-03-13T13:51:20Z</time>
      </trkpt>
      <trkpt lat="42.83189" lon="-0.22815">
        <ele>2418.0400390625</ele>
        <time>2014-03-13T13:51:22Z</time>
      </trkpt>
      <trkpt lat="42.8319" lon="-0.22801">
        <ele>2414.7270507812</ele>
        <time>2014-03-13T13:51:24Z</time>
      </trkpt>
      <trkpt lat="42.8319" lon="-0.22794">
        <ele>2414.7319335938</ele>
        <time>2014-03-13T13:51:25Z</time>
      </trkpt>
      <trkpt lat="42.83191" lon="-0.22781">
        <ele>2412.6860351562</ele>
        <time>2014-03-13T13:51:27Z</time>
      </trkpt>
      <trkpt lat="42.83191" lon="-0.2277">
        <ele>2411.45703125</ele>
        <time>2014-03-13T13:51:29Z</time>
      </trkpt>
      <trkpt lat="42.83191" lon="-0.22748">
        <ele>2406.5891113281</ele>
        <time>2014-03-13T13:51:32Z</time>
      </trkpt>
      <trkpt lat="42.8319" lon="-0.22734">
        <ele>2403.9140625</ele>
        <time>2014-03-13T13:51:34Z</time>
      </trkpt>
      <trkpt lat="42.83187" lon="-0.22712">
        <ele>2400.4528808594</ele>
        <time>2014-03-13T13:51:37Z</time>
      </trkpt>
      <trkpt lat="42.83186" lon="-0.22697">
        <ele>2398.0979003906</ele>
        <time>2014-03-13T13:51:39Z</time>
      </trkpt>
      <trkpt lat="42.83184" lon="-0.2267">
        <ele>2395.6440429688</ele>
        <time>2014-03-13T13:51:43Z</time>
      </trkpt>
      <trkpt lat="42.83182" lon="-0.22641">
        <ele>2393.5891113281</ele>
        <time>2014-03-13T13:51:48Z</time>
      </trkpt>
      <trkpt lat="42.83183" lon="-0.22613">
        <ele>2390.8898925781</ele>
        <time>2014-03-13T13:51:52Z</time>
      </trkpt>
      <trkpt lat="42.83185" lon="-0.22596">
        <ele>2387.0539550781</ele>
        <time>2014-03-13T13:51:54Z</time>
      </trkpt>
      <trkpt lat="42.83186" lon="-0.22589">
        <ele>2387.0649414062</ele>
        <time>2014-03-13T13:51:55Z</time>
      </trkpt>
      <trkpt lat="42.83189" lon="-0.22563">
        <ele>2386.0590820312</ele>
        <time>2014-03-13T13:51:59Z</time>
      </trkpt>
      <trkpt lat="42.83192" lon="-0.22551">
        <ele>2384.7189941406</ele>
        <time>2014-03-13T13:52:01Z</time>
      </trkpt>
      <trkpt lat="42.83195" lon="-0.22537">
        <ele>2384.4750976562</ele>
        <time>2014-03-13T13:52:04Z</time>
      </trkpt>
      <trkpt lat="42.83194" lon="-0.22522">
        <ele>2382.79296875</ele>
        <time>2014-03-13T13:52:06Z</time>
      </trkpt>
      <trkpt lat="42.83192" lon="-0.22511">
        <ele>2379.3200683594</ele>
        <time>2014-03-13T13:52:07Z</time>
      </trkpt>
      <trkpt lat="42.8319" lon="-0.22499">
        <ele>2373.9208984375</ele>
        <time>2014-03-13T13:52:08Z</time>
      </trkpt>
      <trkpt lat="42.83187" lon="-0.22487">
        <ele>2373.9331054688</ele>
        <time>2014-03-13T13:52:09Z</time>
      </trkpt>
      <trkpt lat="42.83182" lon="-0.22463">
        <ele>2371.2749023438</ele>
        <time>2014-03-13T13:52:11Z</time>
      </trkpt>
      <trkpt lat="42.83179" lon="-0.22442">
        <ele>2369.876953125</ele>
        <time>2014-03-13T13:52:13Z</time>
      </trkpt>
      <trkpt lat="42.83179" lon="-0.22433">
        <ele>2370.4389648438</ele>
        <time>2014-03-13T13:52:14Z</time>
      </trkpt>
      <trkpt lat="42.8317" lon="-0.22413">
        <ele>2371.7629394531</ele>
        <time>2014-03-13T13:52:21Z</time>
      </trkpt>
      <trkpt lat="42.83171" lon="-0.22416">
        <ele>2371.6149902344</ele>
        <time>2014-03-13T13:54:02Z</time>
      </trkpt>
      <trkpt lat="42.83167" lon="-0.22415">
        <ele>2371.33203125</ele>
        <time>2014-03-13T13:54:45Z</time>
      </trkpt>
      <trkpt lat="42.83155" lon="-0.22397">
        <ele>2366.8239746094</ele>
        <time>2014-03-13T13:54:50Z</time>
      </trkpt>
      <trkpt lat="42.8315" lon="-0.22391">
        <ele>2366.8239746094</ele>
        <time>2014-03-13T13:54:51Z</time>
      </trkpt>
      <trkpt lat="42.83145" lon="-0.22384">
        <ele>2363.7280273438</ele>
        <time>2014-03-13T13:54:52Z</time>
      </trkpt>
      <trkpt lat="42.83138" lon="-0.22377">
        <ele>2363.7280273438</ele>
        <time>2014-03-13T13:54:53Z</time>
      </trkpt>
      <trkpt lat="42.83132" lon="-0.2237">
        <ele>2360.7629394531</ele>
        <time>2014-03-13T13:54:54Z</time>
      </trkpt>
      <trkpt lat="42.83104" lon="-0.22346">
        <ele>2358.8740234375</ele>
        <time>2014-03-13T13:54:59Z</time>
      </trkpt>
      <trkpt lat="42.83087" lon="-0.22312">
        <ele>2352.2648925781</ele>
        <time>2014-03-13T13:55:04Z</time>
      </trkpt>
      <trkpt lat="42.83078" lon="-0.22292">
        <ele>2348.5791015625</ele>
        <time>2014-03-13T13:55:06Z</time>
      </trkpt>
      <trkpt lat="42.83073" lon="-0.22283">
        <ele>2348.5859375</ele>
        <time>2014-03-13T13:55:07Z</time>
      </trkpt>
      <trkpt lat="42.83055" lon="-0.22238">
        <ele>2345.9479980469</ele>
        <time>2014-03-13T13:55:12Z</time>
      </trkpt>
      <trkpt lat="42.83053" lon="-0.2223">
        <ele>2345.3190917969</ele>
        <time>2014-03-13T13:55:13Z</time>
      </trkpt>
      <trkpt lat="42.8305" lon="-0.22203">
        <ele>2343.1599121094</ele>
        <time>2014-03-13T13:55:16Z</time>
      </trkpt>
      <trkpt lat="42.83053" lon="-0.22185">
        <ele>2340.8291015625</ele>
        <time>2014-03-13T13:55:18Z</time>
      </trkpt>
      <trkpt lat="42.8307" lon="-0.22136">
        <ele>2340.0520019531</ele>
        <time>2014-03-13T13:55:26Z</time>
      </trkpt>
      <trkpt lat="42.83088" lon="-0.22081">
        <ele>2336.7890625</ele>
        <time>2014-03-13T13:55:40Z</time>
      </trkpt>
      <trkpt lat="42.83089" lon="-0.22071">
        <ele>2335.4729003906</ele>
        <time>2014-03-13T13:55:42Z</time>
      </trkpt>
      <trkpt lat="42.83087" lon="-0.22037">
        <ele>2335.4750976562</ele>
        <time>2014-03-13T13:55:52Z</time>
      </trkpt>
      <trkpt lat="42.83088" lon="-0.22032">
        <ele>2335.9079589844</ele>
        <time>2014-03-13T13:55:54Z</time>
      </trkpt>
      <trkpt lat="42.83084" lon="-0.21996">
        <ele>2333.7609863281</ele>
        <time>2014-03-13T13:56:06Z</time>
      </trkpt>
      <trkpt lat="42.8309" lon="-0.21961">
        <ele>2331.0778808594</ele>
        <time>2014-03-13T13:56:13Z</time>
      </trkpt>
      <trkpt lat="42.83102" lon="-0.21917">
        <ele>2329.3159179688</ele>
        <time>2014-03-13T13:56:20Z</time>
      </trkpt>
      <trkpt lat="42.8311" lon="-0.2191">
        <ele>2323.1169433594</ele>
        <time>2014-03-13T13:56:22Z</time>
      </trkpt>
      <trkpt lat="42.8311" lon="-0.21898">
        <ele>2318.1450195312</ele>
        <time>2014-03-13T13:56:24Z</time>
      </trkpt>
      <trkpt lat="42.83107" lon="-0.21894">
        <ele>2315.6159667969</ele>
        <time>2014-03-13T13:56:25Z</time>
      </trkpt>
      <trkpt lat="42.83089" lon="-0.21872">
        <ele>2315.7590332031</ele>
        <time>2014-03-13T13:56:36Z</time>
      </trkpt>
      <trkpt lat="42.83089" lon="-0.21872">
        <ele>2315.1721191406</ele>
        <time>2014-03-13T13:56:40Z</time>
      </trkpt>
      <trkpt lat="42.83095" lon="-0.21866">
        <ele>2310.6379394531</ele>
        <time>2014-03-13T13:56:45Z</time>
      </trkpt>
      <trkpt lat="42.83092" lon="-0.21863">
        <ele>2307.3559570312</ele>
        <time>2014-03-13T13:56:46Z</time>
      </trkpt>
      <trkpt lat="42.8309" lon="-0.2186">
        <ele>2307.3559570312</ele>
        <time>2014-03-13T13:56:47Z</time>
      </trkpt>
      <trkpt lat="42.83074" lon="-0.21841">
        <ele>2305.6689453125</ele>
        <time>2014-03-13T13:56:54Z</time>
      </trkpt>
      <trkpt lat="42.83059" lon="-0.21828">
        <ele>2303.2338867188</ele>
        <time>2014-03-13T13:56:58Z</time>
      </trkpt>
      <trkpt lat="42.8305" lon="-0.21821">
        <ele>2303.2849121094</ele>
        <time>2014-03-13T13:57:04Z</time>
      </trkpt>
      <trkpt lat="42.83038" lon="-0.21814">
        <ele>2302.0939941406</ele>
        <time>2014-03-13T13:57:17Z</time>
      </trkpt>
      <trkpt lat="42.83023" lon="-0.21811">
        <ele>2299.6140136719</ele>
        <time>2014-03-13T13:57:24Z</time>
      </trkpt>
      <trkpt lat="42.82994" lon="-0.21794">
        <ele>2296.291015625</ele>
        <time>2014-03-13T13:57:34Z</time>
      </trkpt>
      <trkpt lat="42.82982" lon="-0.21764">
        <ele>2294.0710449219</ele>
        <time>2014-03-13T13:57:41Z</time>
      </trkpt>
      <trkpt lat="42.82986" lon="-0.21746">
        <ele>2290.0390625</ele>
        <time>2014-03-13T13:57:43Z</time>
      </trkpt>
      <trkpt lat="42.82986" lon="-0.21738">
        <ele>2290.0390625</ele>
        <time>2014-03-13T13:57:44Z</time>
      </trkpt>
      <trkpt lat="42.82989" lon="-0.21725">
        <ele>2291.537109375</ele>
        <time>2014-03-13T13:57:47Z</time>
      </trkpt>
      <trkpt lat="42.82989" lon="-0.21712">
        <ele>2292.12109375</ele>
        <time>2014-03-13T13:57:52Z</time>
      </trkpt>
      <trkpt lat="42.82985" lon="-0.21705">
        <ele>2292.2749023438</ele>
        <time>2014-03-13T13:58:06Z</time>
      </trkpt>
      <trkpt lat="42.82984" lon="-0.21707">
        <ele>2293.3310546875</ele>
        <time>2014-03-13T13:59:35Z</time>
      </trkpt>
      <trkpt lat="42.82974" lon="-0.21706">
        <ele>2293.2780761719</ele>
        <time>2014-03-13T14:00:24Z</time>
      </trkpt>
      <trkpt lat="42.82944" lon="-0.21695">
        <ele>2289.6149902344</ele>
        <time>2014-03-13T14:00:35Z</time>
      </trkpt>
      <trkpt lat="42.8294" lon="-0.21693">
        <ele>2289.623046875</ele>
        <time>2014-03-13T14:00:36Z</time>
      </trkpt>
      <trkpt lat="42.82931" lon="-0.21688">
        <ele>2287.7409667969</ele>
        <time>2014-03-13T14:00:38Z</time>
      </trkpt>
      <trkpt lat="42.82922" lon="-0.2168">
        <ele>2287.5778808594</ele>
        <time>2014-03-13T14:00:41Z</time>
      </trkpt>
      <trkpt lat="42.82891" lon="-0.21629">
        <ele>2285.0681152344</ele>
        <time>2014-03-13T14:00:56Z</time>
      </trkpt>
      <trkpt lat="42.82874" lon="-0.21609">
        <ele>2282.25390625</ele>
        <time>2014-03-13T14:01:04Z</time>
      </trkpt>
      <trkpt lat="42.82864" lon="-0.21596">
        <ele>2279.748046875</ele>
        <time>2014-03-13T14:01:06Z</time>
      </trkpt>
      <trkpt lat="42.82858" lon="-0.21588">
        <ele>2274.6030273438</ele>
        <time>2014-03-13T14:01:07Z</time>
      </trkpt>
      <trkpt lat="42.82845" lon="-0.21565">
        <ele>2276.9519042969</ele>
        <time>2014-03-13T14:01:11Z</time>
      </trkpt>
      <trkpt lat="42.82836" lon="-0.21527">
        <ele>2277.0529785156</ele>
        <time>2014-03-13T14:01:24Z</time>
      </trkpt>
      <trkpt lat="42.82833" lon="-0.21524">
        <ele>2277.0270996094</ele>
        <time>2014-03-13T14:01:36Z</time>
      </trkpt>
      <trkpt lat="42.82833" lon="-0.21523">
        <ele>2277.1330566406</ele>
        <time>2014-03-13T14:02:00Z</time>
      </trkpt>
      <trkpt lat="42.82825" lon="-0.21518">
        <ele>2274.5070800781</ele>
        <time>2014-03-13T14:02:04Z</time>
      </trkpt>
      <trkpt lat="42.82804" lon="-0.21503">
        <ele>2270.9938964844</ele>
        <time>2014-03-13T14:02:10Z</time>
      </trkpt>
      <trkpt lat="42.828" lon="-0.21501">
        <ele>2271</ele>
        <time>2014-03-13T14:02:11Z</time>
      </trkpt>
      <trkpt lat="42.82786" lon="-0.21487">
        <ele>2268.9479980469</ele>
        <time>2014-03-13T14:02:15Z</time>
      </trkpt>
      <trkpt lat="42.82777" lon="-0.21476">
        <ele>2267.9509277344</ele>
        <time>2014-03-13T14:02:20Z</time>
      </trkpt>
      <trkpt lat="42.8279" lon="-0.21464">
        <ele>2260.2800292969</ele>
        <time>2014-03-13T14:02:24Z</time>
      </trkpt>
      <trkpt lat="42.82797" lon="-0.21467">
        <ele>2260.2839355469</ele>
        <time>2014-03-13T14:02:25Z</time>
      </trkpt>
      <trkpt lat="42.82809" lon="-0.21471">
        <ele>2258.3039550781</ele>
        <time>2014-03-13T14:02:27Z</time>
      </trkpt>
      <trkpt lat="42.82815" lon="-0.21471">
        <ele>2257.6320800781</ele>
        <time>2014-03-13T14:02:28Z</time>
      </trkpt>
      <trkpt lat="42.82839" lon="-0.21468">
        <ele>2254.6650390625</ele>
        <time>2014-03-13T14:02:32Z</time>
      </trkpt>
      <trkpt lat="42.82845" lon="-0.21468">
        <ele>2253.6440429688</ele>
        <time>2014-03-13T14:02:33Z</time>
      </trkpt>
      <trkpt lat="42.82857" lon="-0.21471">
        <ele>2249.9899902344</ele>
        <time>2014-03-13T14:02:35Z</time>
      </trkpt>
      <trkpt lat="42.82862" lon="-0.21473">
        <ele>2249.99609375</ele>
        <time>2014-03-13T14:02:36Z</time>
      </trkpt>
      <trkpt lat="42.82866" lon="-0.21473">
        <ele>2250.1411132812</ele>
        <time>2014-03-13T14:02:37Z</time>
      </trkpt>
      <trkpt lat="42.82875" lon="-0.2147">
        <ele>2248.5791015625</ele>
        <time>2014-03-13T14:02:39Z</time>
      </trkpt>
      <trkpt lat="42.82876" lon="-0.21463">
        <ele>2243.9780273438</ele>
        <time>2014-03-13T14:02:40Z</time>
      </trkpt>
      <trkpt lat="42.82872" lon="-0.21454">
        <ele>2243.9829101562</ele>
        <time>2014-03-13T14:02:41Z</time>
      </trkpt>
      <trkpt lat="42.82867" lon="-0.21446">
        <ele>2238.3059082031</ele>
        <time>2014-03-13T14:02:42Z</time>
      </trkpt>
      <trkpt lat="42.82861" lon="-0.21442">
        <ele>2238.3129882812</ele>
        <time>2014-03-13T14:02:43Z</time>
      </trkpt>
      <trkpt lat="42.82851" lon="-0.21436">
        <ele>2236.291015625</ele>
        <time>2014-03-13T14:02:45Z</time>
      </trkpt>
      <trkpt lat="42.82849" lon="-0.21436">
        <ele>2236.1101074219</ele>
        <time>2014-03-13T14:02:46Z</time>
      </trkpt>
      <trkpt lat="42.82846" lon="-0.21433">
        <ele>2237.66796875</ele>
        <time>2014-03-13T14:03:07Z</time>
      </trkpt>
      <trkpt lat="42.82846" lon="-0.21433">
        <ele>2237.5219726562</ele>
        <time>2014-03-13T14:03:09Z</time>
      </trkpt>
      <trkpt lat="42.82838" lon="-0.21423">
        <ele>2235.7209472656</ele>
        <time>2014-03-13T14:03:13Z</time>
      </trkpt>
      <trkpt lat="42.82831" lon="-0.21414">
        <ele>2232.4750976562</ele>
        <time>2014-03-13T14:03:15Z</time>
      </trkpt>
      <trkpt lat="42.82828" lon="-0.21409">
        <ele>2232.4838867188</ele>
        <time>2014-03-13T14:03:16Z</time>
      </trkpt>
      <trkpt lat="42.82812" lon="-0.21391">
        <ele>2231.5759277344</ele>
        <time>2014-03-13T14:03:24Z</time>
      </trkpt>
      <trkpt lat="42.82812" lon="-0.21392">
        <ele>2231.5080566406</ele>
        <time>2014-03-13T14:03:37Z</time>
      </trkpt>
      <trkpt lat="42.8282" lon="-0.21386">
        <ele>2227.5480957031</ele>
        <time>2014-03-13T14:03:40Z</time>
      </trkpt>
      <trkpt lat="42.82828" lon="-0.21383">
        <ele>2227.5529785156</ele>
        <time>2014-03-13T14:03:41Z</time>
      </trkpt>
      <trkpt lat="42.82836" lon="-0.21382">
        <ele>2222.5009765625</ele>
        <time>2014-03-13T14:03:42Z</time>
      </trkpt>
      <trkpt lat="42.8286" lon="-0.21381">
        <ele>2219.7680664062</ele>
        <time>2014-03-13T14:03:45Z</time>
      </trkpt>
      <trkpt lat="42.82877" lon="-0.21373">
        <ele>2217.462890625</ele>
        <time>2014-03-13T14:03:48Z</time>
      </trkpt>
      <trkpt lat="42.8288" lon="-0.21364">
        <ele>2218.7509765625</ele>
        <time>2014-03-13T14:03:50Z</time>
      </trkpt>
      <trkpt lat="42.82883" lon="-0.2135">
        <ele>2217.0280761719</ele>
        <time>2014-03-13T14:03:53Z</time>
      </trkpt>
      <trkpt lat="42.82888" lon="-0.21326">
        <ele>2214.79296875</ele>
        <time>2014-03-13T14:04:00Z</time>
      </trkpt>
      <trkpt lat="42.82884" lon="-0.21319">
        <ele>2212.6479492188</ele>
        <time>2014-03-13T14:04:02Z</time>
      </trkpt>
      <trkpt lat="42.82879" lon="-0.21308">
        <ele>2209.6140136719</ele>
        <time>2014-03-13T14:04:04Z</time>
      </trkpt>
      <trkpt lat="42.82876" lon="-0.21303">
        <ele>2205.9460449219</ele>
        <time>2014-03-13T14:04:05Z</time>
      </trkpt>
      <trkpt lat="42.82874" lon="-0.213">
        <ele>2202.4470214844</ele>
        <time>2014-03-13T14:04:06Z</time>
      </trkpt>
      <trkpt lat="42.82867" lon="-0.2129">
        <ele>2198.9990234375</ele>
        <time>2014-03-13T14:04:08Z</time>
      </trkpt>
      <trkpt lat="42.82864" lon="-0.21283">
        <ele>2199.0139160156</ele>
        <time>2014-03-13T14:04:09Z</time>
      </trkpt>
      <trkpt lat="42.82859" lon="-0.21276">
        <ele>2193.7990722656</ele>
        <time>2014-03-13T14:04:10Z</time>
      </trkpt>
      <trkpt lat="42.82851" lon="-0.21263">
        <ele>2189.8359375</ele>
        <time>2014-03-13T14:04:12Z</time>
      </trkpt>
      <trkpt lat="42.8284" lon="-0.21256">
        <ele>2185.0471191406</ele>
        <time>2014-03-13T14:04:14Z</time>
      </trkpt>
      <trkpt lat="42.82834" lon="-0.21257">
        <ele>2179.87890625</ele>
        <time>2014-03-13T14:04:15Z</time>
      </trkpt>
      <trkpt lat="42.8283" lon="-0.21253">
        <ele>2179.9008789062</ele>
        <time>2014-03-13T14:04:16Z</time>
      </trkpt>
      <trkpt lat="42.82821" lon="-0.21242">
        <ele>2177.2749023438</ele>
        <time>2014-03-13T14:04:18Z</time>
      </trkpt>
      <trkpt lat="42.82816" lon="-0.21235">
        <ele>2173.8269042969</ele>
        <time>2014-03-13T14:04:19Z</time>
      </trkpt>
      <trkpt lat="42.82811" lon="-0.21228">
        <ele>2173.8510742188</ele>
        <time>2014-03-13T14:04:20Z</time>
      </trkpt>
      <trkpt lat="42.82806" lon="-0.21221">
        <ele>2169.4790039062</ele>
        <time>2014-03-13T14:04:21Z</time>
      </trkpt>
      <trkpt lat="42.82795" lon="-0.21208">
        <ele>2166.1989746094</ele>
        <time>2014-03-13T14:04:23Z</time>
      </trkpt>
      <trkpt lat="42.8279" lon="-0.21203">
        <ele>2161.7548828125</ele>
        <time>2014-03-13T14:04:24Z</time>
      </trkpt>
      <trkpt lat="42.82782" lon="-0.21189">
        <ele>2158.0070800781</ele>
        <time>2014-03-13T14:04:26Z</time>
      </trkpt>
      <trkpt lat="42.82777" lon="-0.21181">
        <ele>2158.0329589844</ele>
        <time>2014-03-13T14:04:27Z</time>
      </trkpt>
      <trkpt lat="42.82772" lon="-0.21176">
        <ele>2153.6940917969</ele>
        <time>2014-03-13T14:04:28Z</time>
      </trkpt>
      <trkpt lat="42.82768" lon="-0.21162">
        <ele>2149.9990234375</ele>
        <time>2014-03-13T14:04:30Z</time>
      </trkpt>
      <trkpt lat="42.8276" lon="-0.21149">
        <ele>2147.7028808594</ele>
        <time>2014-03-13T14:04:32Z</time>
      </trkpt>
      <trkpt lat="42.82748" lon="-0.21124">
        <ele>2139.794921875</ele>
        <time>2014-03-13T14:04:35Z</time>
      </trkpt>
      <trkpt lat="42.82747" lon="-0.21114">
        <ele>2136.6188964844</ele>
        <time>2014-03-13T14:04:36Z</time>
      </trkpt>
      <trkpt lat="42.82743" lon="-0.21102">
        <ele>2136.6188964844</ele>
        <time>2014-03-13T14:04:37Z</time>
      </trkpt>
      <trkpt lat="42.82739" lon="-0.21092">
        <ele>2133.5620117188</ele>
        <time>2014-03-13T14:04:38Z</time>
      </trkpt>
      <trkpt lat="42.82733" lon="-0.21083">
        <ele>2133.5620117188</ele>
        <time>2014-03-13T14:04:39Z</time>
      </trkpt>
      <trkpt lat="42.82726" lon="-0.21073">
        <ele>2129.74609375</ele>
        <time>2014-03-13T14:04:40Z</time>
      </trkpt>
      <trkpt lat="42.82717" lon="-0.21054">
        <ele>2126.6708984375</ele>
        <time>2014-03-13T14:04:42Z</time>
      </trkpt>
      <trkpt lat="42.8271" lon="-0.21032">
        <ele>2124.1340332031</ele>
        <time>2014-03-13T14:04:44Z</time>
      </trkpt>
      <trkpt lat="42.82705" lon="-0.21024">
        <ele>2123.1489257812</ele>
        <time>2014-03-13T14:04:45Z</time>
      </trkpt>
      <trkpt lat="42.8269" lon="-0.20995">
        <ele>2120.9899902344</ele>
        <time>2014-03-13T14:04:49Z</time>
      </trkpt>
      <trkpt lat="42.82687" lon="-0.20964">
        <ele>2122.87890625</ele>
        <time>2014-03-13T14:04:57Z</time>
      </trkpt>
      <trkpt lat="42.82689" lon="-0.20967">
        <ele>2126.0419921875</ele>
        <time>2014-03-13T14:07:13Z</time>
      </trkpt>
      <trkpt lat="42.82689" lon="-0.20967">
        <ele>2126.1650390625</ele>
        <time>2014-03-13T14:07:53Z</time>
      </trkpt>
      <trkpt lat="42.82684" lon="-0.20958">
        <ele>2124.1379394531</ele>
        <time>2014-03-13T14:07:56Z</time>
      </trkpt>
      <trkpt lat="42.82681" lon="-0.20951">
        <ele>2122.4780273438</ele>
        <time>2014-03-13T14:07:57Z</time>
      </trkpt>
      <trkpt lat="42.82671" lon="-0.20925">
        <ele>2119.7041015625</ele>
        <time>2014-03-13T14:08:00Z</time>
      </trkpt>
      <trkpt lat="42.82661" lon="-0.20899">
        <ele>2116.7971191406</ele>
        <time>2014-03-13T14:08:03Z</time>
      </trkpt>
      <trkpt lat="42.82656" lon="-0.20882">
        <ele>2115.3439941406</ele>
        <time>2014-03-13T14:08:05Z</time>
      </trkpt>
      <trkpt lat="42.82655" lon="-0.20866">
        <ele>2115.3679199219</ele>
        <time>2014-03-13T14:08:07Z</time>
      </trkpt>
      <trkpt lat="42.82655" lon="-0.2085">
        <ele>2113.0480957031</ele>
        <time>2014-03-13T14:08:09Z</time>
      </trkpt>
      <trkpt lat="42.82651" lon="-0.20813">
        <ele>2112.1818847656</ele>
        <time>2014-03-13T14:08:14Z</time>
      </trkpt>
      <trkpt lat="42.82645" lon="-0.20802">
        <ele>2107.9799804688</ele>
        <time>2014-03-13T14:08:16Z</time>
      </trkpt>
      <trkpt lat="42.82643" lon="-0.20796">
        <ele>2107.9799804688</ele>
        <time>2014-03-13T14:08:17Z</time>
      </trkpt>
      <trkpt lat="42.8264" lon="-0.20789">
        <ele>2105.0339355469</ele>
        <time>2014-03-13T14:08:18Z</time>
      </trkpt>
      <trkpt lat="42.82634" lon="-0.20775">
        <ele>2103.0080566406</ele>
        <time>2014-03-13T14:08:20Z</time>
      </trkpt>
      <trkpt lat="42.82626" lon="-0.20762">
        <ele>2098.2829589844</ele>
        <time>2014-03-13T14:08:23Z</time>
      </trkpt>
      <trkpt lat="42.82626" lon="-0.20759">
        <ele>2098.2829589844</ele>
        <time>2014-03-13T14:08:24Z</time>
      </trkpt>
      <trkpt lat="42.82625" lon="-0.20754">
        <ele>2096.3149414062</ele>
        <time>2014-03-13T14:08:26Z</time>
      </trkpt>
      <trkpt lat="42.82623" lon="-0.20763">
        <ele>2099.3559570312</ele>
        <time>2014-03-13T14:09:30Z</time>
      </trkpt>
      <trkpt lat="42.82621" lon="-0.20768">
        <ele>2099.3999023438</ele>
        <time>2014-03-13T14:09:37Z</time>
      </trkpt>
      <trkpt lat="42.82615" lon="-0.20793">
        <ele>2096.5520019531</ele>
        <time>2014-03-13T14:09:46Z</time>
      </trkpt>
      <trkpt lat="42.82608" lon="-0.20813">
        <ele>2094.6950683594</ele>
        <time>2014-03-13T14:09:49Z</time>
      </trkpt>
      <trkpt lat="42.82605" lon="-0.20817">
        <ele>2096.5791015625</ele>
        <time>2014-03-13T14:09:51Z</time>
      </trkpt>
      <trkpt lat="42.82597" lon="-0.20821">
        <ele>2095.2958984375</ele>
        <time>2014-03-13T14:09:54Z</time>
      </trkpt>
      <trkpt lat="42.82591" lon="-0.20825">
        <ele>2094.5349121094</ele>
        <time>2014-03-13T14:09:56Z</time>
      </trkpt>
      <trkpt lat="42.82594" lon="-0.20817">
        <ele>2090.962890625</ele>
        <time>2014-03-13T14:10:01Z</time>
      </trkpt>
      <trkpt lat="42.82595" lon="-0.2082">
        <ele>2091.080078125</ele>
        <time>2014-03-13T14:10:41Z</time>
      </trkpt>
      <trkpt lat="42.82594" lon="-0.20815">
        <ele>2088.2490234375</ele>
        <time>2014-03-13T14:10:43Z</time>
      </trkpt>
      <trkpt lat="42.82594" lon="-0.20803">
        <ele>2084.8139648438</ele>
        <time>2014-03-13T14:10:45Z</time>
      </trkpt>
      <trkpt lat="42.82589" lon="-0.20787">
        <ele>2081.5219726562</ele>
        <time>2014-03-13T14:10:47Z</time>
      </trkpt>
      <trkpt lat="42.82591" lon="-0.20771">
        <ele>2076.8159179688</ele>
        <time>2014-03-13T14:10:49Z</time>
      </trkpt>
      <trkpt lat="42.82593" lon="-0.20756">
        <ele>2071.5681152344</ele>
        <time>2014-03-13T14:10:51Z</time>
      </trkpt>
      <trkpt lat="42.82589" lon="-0.20739">
        <ele>2067.3811035156</ele>
        <time>2014-03-13T14:10:53Z</time>
      </trkpt>
      <trkpt lat="42.82587" lon="-0.20731">
        <ele>2067.4020996094</ele>
        <time>2014-03-13T14:10:54Z</time>
      </trkpt>
      <trkpt lat="42.82585" lon="-0.2072">
        <ele>2062.9890136719</ele>
        <time>2014-03-13T14:10:55Z</time>
      </trkpt>
      <trkpt lat="42.82583" lon="-0.20708">
        <ele>2063.0109863281</ele>
        <time>2014-03-13T14:10:56Z</time>
      </trkpt>
      <trkpt lat="42.82581" lon="-0.20696">
        <ele>2060.0830078125</ele>
        <time>2014-03-13T14:10:57Z</time>
      </trkpt>
      <trkpt lat="42.82578" lon="-0.20672">
        <ele>2057.1379394531</ele>
        <time>2014-03-13T14:10:59Z</time>
      </trkpt>
      <trkpt lat="42.82571" lon="-0.2065">
        <ele>2056.8410644531</ele>
        <time>2014-03-13T14:11:01Z</time>
      </trkpt>
      <trkpt lat="42.82562" lon="-0.20622">
        <ele>2055.4270019531</ele>
        <time>2014-03-13T14:11:04Z</time>
      </trkpt>
      <trkpt lat="42.82555" lon="-0.20611">
        <ele>2054.7600097656</ele>
        <time>2014-03-13T14:11:06Z</time>
      </trkpt>
      <trkpt lat="42.82543" lon="-0.20591">
        <ele>2055.2380371094</ele>
        <time>2014-03-13T14:11:14Z</time>
      </trkpt>
      <trkpt lat="42.82543" lon="-0.2059">
        <ele>2056.7390136719</ele>
        <time>2014-03-13T14:11:50Z</time>
      </trkpt>
      <trkpt lat="42.82553" lon="-0.20565">
        <ele>2055.1088867188</ele>
        <time>2014-03-13T14:12:00Z</time>
      </trkpt>
      <trkpt lat="42.82558" lon="-0.20555">
        <ele>2053.1398925781</ele>
        <time>2014-03-13T14:12:03Z</time>
      </trkpt>
      <trkpt lat="42.82561" lon="-0.20534">
        <ele>2051.8659667969</ele>
        <time>2014-03-13T14:12:07Z</time>
      </trkpt>
      <trkpt lat="42.82564" lon="-0.20493">
        <ele>2050.0148925781</ele>
        <time>2014-03-13T14:12:15Z</time>
      </trkpt>
      <trkpt lat="42.82558" lon="-0.20484">
        <ele>2046.7270507812</ele>
        <time>2014-03-13T14:12:18Z</time>
      </trkpt>
      <trkpt lat="42.82546" lon="-0.2048">
        <ele>2043.5789794922</ele>
        <time>2014-03-13T14:12:20Z</time>
      </trkpt>
      <trkpt lat="42.82542" lon="-0.2048">
        <ele>2040.1330566406</ele>
        <time>2014-03-13T14:12:21Z</time>
      </trkpt>
      <trkpt lat="42.82533" lon="-0.20465">
        <ele>2037.66796875</ele>
        <time>2014-03-13T14:12:24Z</time>
      </trkpt>
      <trkpt lat="42.82529" lon="-0.20459">
        <ele>2033.333984375</ele>
        <time>2014-03-13T14:12:25Z</time>
      </trkpt>
      <trkpt lat="42.82519" lon="-0.20445">
        <ele>2030.8830566406</ele>
        <time>2014-03-13T14:12:27Z</time>
      </trkpt>
      <trkpt lat="42.8252" lon="-0.20441">
        <ele>2029.4040527344</ele>
        <time>2014-03-13T14:12:29Z</time>
      </trkpt>
      <trkpt lat="42.82519" lon="-0.20437">
        <ele>2027.9250488281</ele>
        <time>2014-03-13T14:12:30Z</time>
      </trkpt>
      <trkpt lat="42.82512" lon="-0.20423">
        <ele>2021.8110351562</ele>
        <time>2014-03-13T14:12:33Z</time>
      </trkpt>
      <trkpt lat="42.82504" lon="-0.20403">
        <ele>2020.0880126953</ele>
        <time>2014-03-13T14:12:36Z</time>
      </trkpt>
      <trkpt lat="42.825" lon="-0.20391">
        <ele>2017.2419433594</ele>
        <time>2014-03-13T14:12:41Z</time>
      </trkpt>
      <trkpt lat="42.82498" lon="-0.20388">
        <ele>2016.3499755859</ele>
        <time>2014-03-13T14:13:03Z</time>
      </trkpt>
      <trkpt lat="42.825" lon="-0.2037">
        <ele>2014.8179931641</ele>
        <time>2014-03-13T14:13:06Z</time>
      </trkpt>
      <trkpt lat="42.825" lon="-0.20365">
        <ele>2014.7889404297</ele>
        <time>2014-03-13T14:13:07Z</time>
      </trkpt>
      <trkpt lat="42.82492" lon="-0.20345">
        <ele>2012.0799560547</ele>
        <time>2014-03-13T14:13:11Z</time>
      </trkpt>
      <trkpt lat="42.82492" lon="-0.20339">
        <ele>2011.5939941406</ele>
        <time>2014-03-13T14:13:12Z</time>
      </trkpt>
      <trkpt lat="42.82493" lon="-0.20321">
        <ele>2010.4549560547</ele>
        <time>2014-03-13T14:13:16Z</time>
      </trkpt>
      <trkpt lat="42.82492" lon="-0.20311">
        <ele>2009.7629394531</ele>
        <time>2014-03-13T14:13:18Z</time>
      </trkpt>
      <trkpt lat="42.82484" lon="-0.20281">
        <ele>2007.25</ele>
        <time>2014-03-13T14:13:25Z</time>
      </trkpt>
      <trkpt lat="42.82478" lon="-0.20271">
        <ele>2005.4139404297</ele>
        <time>2014-03-13T14:13:27Z</time>
      </trkpt>
      <trkpt lat="42.82474" lon="-0.20265">
        <ele>2003.8649902344</ele>
        <time>2014-03-13T14:13:28Z</time>
      </trkpt>
      <trkpt lat="42.82457" lon="-0.20238">
        <ele>2004.8459472656</ele>
        <time>2014-03-13T14:13:37Z</time>
      </trkpt>
      <trkpt lat="42.82456" lon="-0.20239">
        <ele>2005.1729736328</ele>
        <time>2014-03-13T14:14:03Z</time>
      </trkpt>
      <trkpt lat="42.82453" lon="-0.20228">
        <ele>2005.0200195312</ele>
        <time>2014-03-13T14:14:13Z</time>
      </trkpt>
      <trkpt lat="42.82451" lon="-0.20215">
        <ele>2002.4749755859</ele>
        <time>2014-03-13T14:14:16Z</time>
      </trkpt>
      <trkpt lat="42.82447" lon="-0.20208">
        <ele>2002.9709472656</ele>
        <time>2014-03-13T14:14:18Z</time>
      </trkpt>
      <trkpt lat="42.8245" lon="-0.20213">
        <ele>2002.6330566406</ele>
        <time>2014-03-13T14:14:33Z</time>
      </trkpt>
      <trkpt lat="42.82447" lon="-0.20214">
        <ele>2002.0610351562</ele>
        <time>2014-03-13T14:14:36Z</time>
      </trkpt>
      <trkpt lat="42.82442" lon="-0.2022">
        <ele>2000.3449707031</ele>
        <time>2014-03-13T14:14:39Z</time>
      </trkpt>
      <trkpt lat="42.82437" lon="-0.20224">
        <ele>1995.5629882812</ele>
        <time>2014-03-13T14:14:40Z</time>
      </trkpt>
      <trkpt lat="42.82433" lon="-0.20225">
        <ele>1995.5989990234</ele>
        <time>2014-03-13T14:14:41Z</time>
      </trkpt>
      <trkpt lat="42.82427" lon="-0.20233">
        <ele>1992.9859619141</ele>
        <time>2014-03-13T14:14:43Z</time>
      </trkpt>
      <trkpt lat="42.82414" lon="-0.2023">
        <ele>1989.3950195312</ele>
        <time>2014-03-13T14:14:45Z</time>
      </trkpt>
      <trkpt lat="42.82412" lon="-0.2023">
        <ele>1989.3950195312</ele>
        <time>2014-03-13T14:14:46Z</time>
      </trkpt>
      <trkpt lat="42.82396" lon="-0.2022">
        <ele>1987.0989990234</ele>
        <time>2014-03-13T14:14:48Z</time>
      </trkpt>
      <trkpt lat="42.82393" lon="-0.2022">
        <ele>1987.5560302734</ele>
        <time>2014-03-13T14:14:49Z</time>
      </trkpt>
      <trkpt lat="42.82381" lon="-0.20219">
        <ele>1983.2490234375</ele>
        <time>2014-03-13T14:14:52Z</time>
      </trkpt>
      <trkpt lat="42.82389" lon="-0.20229">
        <ele>1982.1070556641</ele>
        <time>2014-03-13T14:15:05Z</time>
      </trkpt>
      <trkpt lat="42.82387" lon="-0.20224">
        <ele>1976.3229980469</ele>
        <time>2014-03-13T14:15:08Z</time>
      </trkpt>
      <trkpt lat="42.82385" lon="-0.20221">
        <ele>1973.1419677734</ele>
        <time>2014-03-13T14:15:10Z</time>
      </trkpt>
      <trkpt lat="42.82384" lon="-0.2022">
        <ele>1973.1419677734</ele>
        <time>2014-03-13T14:15:11Z</time>
      </trkpt>
      <trkpt lat="42.82383" lon="-0.20218">
        <ele>1971.5460205078</ele>
        <time>2014-03-13T14:15:13Z</time>
      </trkpt>
      <trkpt lat="42.8238" lon="-0.20201">
        <ele>1971.9739990234</ele>
        <time>2014-03-13T14:15:34Z</time>
      </trkpt>
      <trkpt lat="42.82379" lon="-0.20201">
        <ele>1972.1500244141</ele>
        <time>2014-03-13T14:15:38Z</time>
      </trkpt>
      <trkpt lat="42.82363" lon="-0.202">
        <ele>1971.958984375</ele>
        <time>2014-03-13T14:15:41Z</time>
      </trkpt>
      <trkpt lat="42.82353" lon="-0.20196">
        <ele>1967.2130126953</ele>
        <time>2014-03-13T14:15:43Z</time>
      </trkpt>
      <trkpt lat="42.82348" lon="-0.20196">
        <ele>1967.2580566406</ele>
        <time>2014-03-13T14:15:44Z</time>
      </trkpt>
      <trkpt lat="42.82344" lon="-0.20197">
        <ele>1964.9930419922</ele>
        <time>2014-03-13T14:15:45Z</time>
      </trkpt>
      <trkpt lat="42.82332" lon="-0.20208">
        <ele>1961.6800537109</ele>
        <time>2014-03-13T14:15:51Z</time>
      </trkpt>
      <trkpt lat="42.82325" lon="-0.2021">
        <ele>1958.9990234375</ele>
        <time>2014-03-13T14:15:53Z</time>
      </trkpt>
      <trkpt lat="42.82311" lon="-0.20216">
        <ele>1956.7259521484</ele>
        <time>2014-03-13T14:15:57Z</time>
      </trkpt>
      <trkpt lat="42.82309" lon="-0.20216">
        <ele>1956.2740478516</ele>
        <time>2014-03-13T14:15:58Z</time>
      </trkpt>
      <trkpt lat="42.82303" lon="-0.20216">
        <ele>1955.1719970703</ele>
        <time>2014-03-13T14:16:00Z</time>
      </trkpt>
      <trkpt lat="42.82299" lon="-0.20213">
        <ele>1952.3869628906</ele>
        <time>2014-03-13T14:16:01Z</time>
      </trkpt>
      <trkpt lat="42.82294" lon="-0.20217">
        <ele>1950.0419921875</ele>
        <time>2014-03-13T14:16:04Z</time>
      </trkpt>
      <trkpt lat="42.82288" lon="-0.20221">
        <ele>1948.1770019531</ele>
        <time>2014-03-13T14:16:07Z</time>
      </trkpt>
      <trkpt lat="42.82285" lon="-0.20219">
        <ele>1946.5279541016</ele>
        <time>2014-03-13T14:16:09Z</time>
      </trkpt>
      <trkpt lat="42.82276" lon="-0.20215">
        <ele>1944.8819580078</ele>
        <time>2014-03-13T14:16:11Z</time>
      </trkpt>
      <trkpt lat="42.82271" lon="-0.20215">
        <ele>1941.6209716797</ele>
        <time>2014-03-13T14:16:12Z</time>
      </trkpt>
      <trkpt lat="42.82264" lon="-0.20211">
        <ele>1939.4460449219</ele>
        <time>2014-03-13T14:16:13Z</time>
      </trkpt>
      <trkpt lat="42.82246" lon="-0.20213">
        <ele>1937.0179443359</ele>
        <time>2014-03-13T14:16:16Z</time>
      </trkpt>
      <trkpt lat="42.82244" lon="-0.20217">
        <ele>1936.1979980469</ele>
        <time>2014-03-13T14:16:17Z</time>
      </trkpt>
      <trkpt lat="42.82248" lon="-0.20232">
        <ele>1937.8110351562</ele>
        <time>2014-03-13T14:16:36Z</time>
      </trkpt>
      <trkpt lat="42.82249" lon="-0.20232">
        <ele>1939.7309570312</ele>
        <time>2014-03-13T14:17:11Z</time>
      </trkpt>
      <trkpt lat="42.82249" lon="-0.20232">
        <ele>1942.0970458984</ele>
        <time>2014-03-13T14:17:50Z</time>
      </trkpt>
      <trkpt lat="42.82249" lon="-0.20231">
        <ele>1944.9840087891</ele>
        <time>2014-03-13T14:19:04Z</time>
      </trkpt>
      <trkpt lat="42.82243" lon="-0.20215">
        <ele>1940.9370117188</ele>
        <time>2014-03-13T14:19:09Z</time>
      </trkpt>
      <trkpt lat="42.82241" lon="-0.20196">
        <ele>1939.7010498047</ele>
        <time>2014-03-13T14:19:12Z</time>
      </trkpt>
      <trkpt lat="42.82243" lon="-0.20188">
        <ele>1937.3890380859</ele>
        <time>2014-03-13T14:19:13Z</time>
      </trkpt>
      <trkpt lat="42.82242" lon="-0.20167">
        <ele>1935.9510498047</ele>
        <time>2014-03-13T14:19:16Z</time>
      </trkpt>
      <trkpt lat="42.82237" lon="-0.20166">
        <ele>1934.3470458984</ele>
        <time>2014-03-13T14:19:19Z</time>
      </trkpt>
      <trkpt lat="42.82224" lon="-0.2015">
        <ele>1929.2419433594</ele>
        <time>2014-03-13T14:19:24Z</time>
      </trkpt>
      <trkpt lat="42.8222" lon="-0.20151">
        <ele>1926.4310302734</ele>
        <time>2014-03-13T14:19:25Z</time>
      </trkpt>
      <trkpt lat="42.82209" lon="-0.2015">
        <ele>1923.8229980469</ele>
        <time>2014-03-13T14:19:28Z</time>
      </trkpt>
      <trkpt lat="42.82209" lon="-0.20141">
        <ele>1921.7939453125</ele>
        <time>2014-03-13T14:19:30Z</time>
      </trkpt>
      <trkpt lat="42.8221" lon="-0.2013">
        <ele>1917.5179443359</ele>
        <time>2014-03-13T14:19:32Z</time>
      </trkpt>
      <trkpt lat="42.82196" lon="-0.20123">
        <ele>1916.1469726562</ele>
        <time>2014-03-13T14:19:35Z</time>
      </trkpt>
      <trkpt lat="42.82192" lon="-0.20116">
        <ele>1913.5570068359</ele>
        <time>2014-03-13T14:19:37Z</time>
      </trkpt>
      <trkpt lat="42.82191" lon="-0.20111">
        <ele>1912.3420410156</ele>
        <time>2014-03-13T14:19:39Z</time>
      </trkpt>
      <trkpt lat="42.8219" lon="-0.20097">
        <ele>1911.5939941406</ele>
        <time>2014-03-13T14:19:47Z</time>
      </trkpt>
      <trkpt lat="42.82185" lon="-0.20094">
        <ele>1909.8129882812</ele>
        <time>2014-03-13T14:19:49Z</time>
      </trkpt>
      <trkpt lat="42.82179" lon="-0.2009">
        <ele>1907.2110595703</ele>
        <time>2014-03-13T14:19:51Z</time>
      </trkpt>
      <trkpt lat="42.82176" lon="-0.20087">
        <ele>1905.4959716797</ele>
        <time>2014-03-13T14:19:52Z</time>
      </trkpt>
      <trkpt lat="42.82178" lon="-0.20087">
        <ele>1902.7559814453</ele>
        <time>2014-03-13T14:19:54Z</time>
      </trkpt>
      <trkpt lat="42.82175" lon="-0.20072">
        <ele>1900.0129394531</ele>
        <time>2014-03-13T14:19:56Z</time>
      </trkpt>
      <trkpt lat="42.82172" lon="-0.20066">
        <ele>1899.5949707031</ele>
        <time>2014-03-13T14:19:58Z</time>
      </trkpt>
      <trkpt lat="42.82162" lon="-0.20055">
        <ele>1895.9730224609</ele>
        <time>2014-03-13T14:20:01Z</time>
      </trkpt>
      <trkpt lat="42.82153" lon="-0.20058">
        <ele>1896.7259521484</ele>
        <time>2014-03-13T14:20:08Z</time>
      </trkpt>
      <trkpt lat="42.82152" lon="-0.20058">
        <ele>1897.2459716797</ele>
        <time>2014-03-13T14:20:34Z</time>
      </trkpt>
      <trkpt lat="42.82154" lon="-0.20061">
        <ele>1896.6779785156</ele>
        <time>2014-03-13T14:21:08Z</time>
      </trkpt>
      <trkpt lat="42.82153" lon="-0.20054">
        <ele>1896.8000488281</ele>
        <time>2014-03-13T14:21:20Z</time>
      </trkpt>
      <trkpt lat="42.82148" lon="-0.2004">
        <ele>1896.5589599609</ele>
        <time>2014-03-13T14:21:27Z</time>
      </trkpt>
      <trkpt lat="42.82131" lon="-0.20008">
        <ele>1896.1180419922</ele>
        <time>2014-03-13T14:21:35Z</time>
      </trkpt>
      <trkpt lat="42.82126" lon="-0.19981">
        <ele>1896.0340576172</ele>
        <time>2014-03-13T14:21:47Z</time>
      </trkpt>
      <trkpt lat="42.82132" lon="-0.1998">
        <ele>1896.1920166016</ele>
        <time>2014-03-13T14:21:58Z</time>
      </trkpt>
      <trkpt lat="42.82136" lon="-0.19977">
        <ele>1897.5949707031</ele>
        <time>2014-03-13T14:22:12Z</time>
      </trkpt>
      <trkpt lat="42.82138" lon="-0.19972">
        <ele>1898.7629394531</ele>
        <time>2014-03-13T14:22:37Z</time>
      </trkpt>
      <trkpt lat="42.82134" lon="-0.1995">
        <ele>1899.4339599609</ele>
        <time>2014-03-13T14:22:49Z</time>
      </trkpt>
      <trkpt lat="42.82138" lon="-0.19938">
        <ele>1901.5</ele>
        <time>2014-03-13T14:23:08Z</time>
      </trkpt>
      <trkpt lat="42.8214" lon="-0.19935">
        <ele>1901.1629638672</ele>
        <time>2014-03-13T14:23:11Z</time>
      </trkpt>
      <trkpt lat="42.82146" lon="-0.19926">
        <ele>1900.5679931641</ele>
        <time>2014-03-13T14:23:15Z</time>
      </trkpt>
      <trkpt lat="42.82152" lon="-0.19913">
        <ele>1898.3070068359</ele>
        <time>2014-03-13T14:23:17Z</time>
      </trkpt>
      <trkpt lat="42.82155" lon="-0.19895">
        <ele>1895.4389648438</ele>
        <time>2014-03-13T14:23:19Z</time>
      </trkpt>
      <trkpt lat="42.82154" lon="-0.19874">
        <ele>1896.2760009766</ele>
        <time>2014-03-13T14:23:23Z</time>
      </trkpt>
      <trkpt lat="42.82146" lon="-0.19851">
        <ele>1896.998046875</ele>
        <time>2014-03-13T14:23:32Z</time>
      </trkpt>
      <trkpt lat="42.82136" lon="-0.19832">
        <ele>1897.3780517578</ele>
        <time>2014-03-13T14:23:40Z</time>
      </trkpt>
      <trkpt lat="42.82134" lon="-0.19826">
        <ele>1898.7060546875</ele>
        <time>2014-03-13T14:23:50Z</time>
      </trkpt>
      <trkpt lat="42.82131" lon="-0.19817">
        <ele>1900.6149902344</ele>
        <time>2014-03-13T14:24:09Z</time>
      </trkpt>
      <trkpt lat="42.82133" lon="-0.19816">
        <ele>1902.4399414062</ele>
        <time>2014-03-13T14:24:24Z</time>
      </trkpt>
      <trkpt lat="42.82127" lon="-0.19807">
        <ele>1903.748046875</ele>
        <time>2014-03-13T14:24:40Z</time>
      </trkpt>
      <trkpt lat="42.82114" lon="-0.19794">
        <ele>1906.7559814453</ele>
        <time>2014-03-13T14:25:02Z</time>
      </trkpt>
      <trkpt lat="42.82114" lon="-0.1979">
        <ele>1907.126953125</ele>
        <time>2014-03-13T14:25:31Z</time>
      </trkpt>
      <trkpt lat="42.82115" lon="-0.19797">
        <ele>1908.1450195312</ele>
        <time>2014-03-13T14:26:09Z</time>
      </trkpt>
      <trkpt lat="42.82117" lon="-0.19797">
        <ele>1909.2609863281</ele>
        <time>2014-03-13T14:26:27Z</time>
      </trkpt>
      <trkpt lat="42.82119" lon="-0.19801">
        <ele>1911.3959960938</ele>
        <time>2014-03-13T14:27:44Z</time>
      </trkpt>
      <trkpt lat="42.82119" lon="-0.19795">
        <ele>1911.9019775391</ele>
        <time>2014-03-13T14:28:11Z</time>
      </trkpt>
      <trkpt lat="42.82123" lon="-0.19779">
        <ele>1911.5949707031</ele>
        <time>2014-03-13T14:28:24Z</time>
      </trkpt>
      <trkpt lat="42.82117" lon="-0.1974">
        <ele>1910.9420166016</ele>
        <time>2014-03-13T14:28:37Z</time>
      </trkpt>
      <trkpt lat="42.82103" lon="-0.19695">
        <ele>1909.4739990234</ele>
        <time>2014-03-13T14:28:40Z</time>
      </trkpt>
      <trkpt lat="42.82107" lon="-0.19684">
        <ele>1908.666015625</ele>
        <time>2014-03-13T14:28:42Z</time>
      </trkpt>
      <trkpt lat="42.82106" lon="-0.19658">
        <ele>1906.0999755859</ele>
        <time>2014-03-13T14:28:44Z</time>
      </trkpt>
      <trkpt lat="42.82083" lon="-0.19608">
        <ele>1903.6190185547</ele>
        <time>2014-03-13T14:28:48Z</time>
      </trkpt>
      <trkpt lat="42.82061" lon="-0.19567">
        <ele>1902.9530029297</ele>
        <time>2014-03-13T14:28:52Z</time>
      </trkpt>
      <trkpt lat="42.82045" lon="-0.19555">
        <ele>1900.8210449219</ele>
        <time>2014-03-13T14:28:55Z</time>
      </trkpt>
      <trkpt lat="42.8203" lon="-0.19536">
        <ele>1898.3100585938</ele>
        <time>2014-03-13T14:28:58Z</time>
      </trkpt>
      <trkpt lat="42.8201" lon="-0.19497">
        <ele>1898.1729736328</ele>
        <time>2014-03-13T14:29:08Z</time>
      </trkpt>
      <trkpt lat="42.82001" lon="-0.19481">
        <ele>1898.1519775391</ele>
        <time>2014-03-13T14:29:19Z</time>
      </trkpt>
      <trkpt lat="42.81998" lon="-0.19454">
        <ele>1897.3649902344</ele>
        <time>2014-03-13T14:29:35Z</time>
      </trkpt>
    </trkseg>
  </trk>
</gpx>